Date Heure Temperature en °C Pression en Pa Humidité en % Pluviométrie en mm/ 5 minutes Vitesse du vent en km/h Direction du vent en °
2017-03-04 06:30:27 10.64 98287.8 99.99 1.4 0 0
2017-03-04 06:24:41 10.74 98230.5 99.99 0.84 0 0
2017-03-04 06:18:55 10.95 98112.5 99.99 1.12 0 0
2017-03-04 06:13:09 11.05 98071.7 99.99 1.4 0 0
2017-03-04 06:07:24 10.9 98110.9 99.99 2.79 0 0
2017-03-04 06:01:38 11.14 98117.3 99.99 0.84 0 0
2017-03-04 05:55:52 11.13 98140.7 99.99 5.87 0 0
2017-03-04 05:50:06 11.15 98185.3 99.99 0 0 0
2017-03-04 05:44:20 11.24 98133.2 99.99 1.4 0 0
2017-03-04 05:38:35 11.15 98160.2 99.99 0.56 0 0
2017-03-04 05:32:49 11.33 98157.2 99.99 0.28 0 0
2017-03-04 05:27:03 11.55 98120.4 99.99 10.34 0 0
2017-03-04 05:21:17 11.72 98105 99.64 4.75 0 0
2017-03-04 05:15:31 12.07 98161.3 91.73 1.68 0 0
2017-03-04 05:09:46 12.5 98114.3 80.43 6.43 0 0
2017-03-04 05:04:00 12.55 98070.5 77.95 22.63 0 0
2017-03-04 04:58:14 12.89 98150.9 74.07 8.94 0 0
2017-03-04 04:52:28 13.12 98181.4 71.14 9.78 0 0
2017-03-04 04:46:42 13.48 98202.7 66.58 2.79 0 0
2017-03-04 04:40:56 13.54 98212.3 65.21 3.07 0 0
2017-03-04 04:35:11 13.49 98214.5 64.73 18.72 0 0
2017-03-04 04:29:25 13.53 98252.5 64.2 8.38 0 0
2017-03-04 04:23:39 13.73 98242.4 62.95 20.12 0 0
2017-03-04 04:17:53 13.85 98290.2 62.32 10.06 0 0
2017-03-04 04:12:07 13.86 98346.2 61.86 0.84 0 0
2017-03-04 04:06:21 13.87 98383 61.07 0 0 0
2017-03-04 04:00:35 13.56 98404.3 62.42 0 0 0
2017-03-04 03:54:50 13.37 98386 63.43 0 0 0
2017-03-04 03:49:04 13.25 98387.2 63.98 0.28 0 0
2017-03-04 03:43:18 13.35 98398 63.03 0.28 0 0
2017-03-04 03:37:32 13.31 98420.7 63.13 0 0 0
2017-03-04 03:31:46 13.29 98442.1 63.22 0 0 0
2017-03-04 03:26:01 13.31 98463.2 63.31 0 0 0
2017-03-04 03:20:15 13.46 98481.1 62.54 0.28 0 0
2017-03-04 03:14:29 13.58 98492.6 61.87 3.91 0 0
2017-03-04 03:08:43 13.67 98542.2 61.72 1.68 0 0
2017-03-04 03:02:57 13.89 98563.4 60.72 9.22 0 0
2017-03-04 02:57:11 14.11 98602 59.44 0 0 0
2017-03-04 02:51:26 14.13 98615.9 59.23 6.43 0 0
2017-03-04 02:45:40 14.11 98650.8 59.41 5.03 0 0
2017-03-04 02:39:54 13.88 98703.9 61.14 0.56 0 0
2017-03-04 02:34:08 13.69 98757.3 62.95 0 0 0
2017-03-04 02:28:22 13.93 98799.6 61.03 0 0 0
2017-03-04 02:22:37 14.03 98814.5 60.29 0 0 0
2017-03-04 02:16:51 13.96 98808.2 61.18 1.68 0 0
2017-03-04 02:11:05 13.69 98858.1 63.53 0 0 0
2017-03-04 02:05:19 13.9 98875 62.23 0 0 0
2017-03-04 01:59:33 14.12 98863 60.23 0 0 0
2017-03-04 01:53:48 14.1 98852.9 60.37 0 0 0
2017-03-04 01:48:02 14.24 98873.5 58.94 0 0 0
2017-03-04 01:42:16 14.38 98839.9 57.39 0 0 0
2017-03-04 01:36:30 14.4 98824.4 56.63 0 0 0
2017-03-04 01:30:44 14.37 98796.6 56.71 0.84 0 0
2017-03-04 01:24:58 14.25 98818 57.11 0 0 0
2017-03-04 01:19:13 14.25 98825.9 57.3 0 0 0
2017-03-04 01:13:27 14.34 98831.3 56.99 0.28 0 0
2017-03-04 01:07:41 14.25 98870 57.88 0.84 0 0
2017-03-04 01:01:55 14.1 98861.9 59.27 0 0 0
2017-03-04 00:56:09 13.99 98873.4 60.03 0.28 0 0
2017-03-04 00:50:23 13.69 98909.5 61.85 0 0 0
2017-03-04 00:44:37 13.69 98950.6 61.46 0 0 0
2017-03-04 00:38:52 13.61 98958.5 62.83 0 0 0
2017-03-04 00:33:06 13.56 98954.2 64 0.28 0 0
2017-03-04 00:27:20 13.48 98942.5 65.01 1.96 0 0
2017-03-04 00:21:34 13.36 98964.6 65.72 0 0 0
2017-03-04 00:15:48 13.09 98992.7 68.27 0 0 0
2017-03-04 00:10:03 12.66 99037.4 73.24 0 0 0
2017-03-04 00:04:17 12.45 99096.2 77.42 0 0 0
2017-03-03 23:58:31 12.57 99117.4 76.73 0 0 0
2017-03-03 23:52:45 12.57 99136.9 76.92 0 0 0
2017-03-03 23:46:59 12.61 99150.5 76.42 0 0 0
2017-03-03 23:41:13 12.52 99162.4 76.9 0 0 0
2017-03-03 23:35:27 12.52 99173.5 76.92 0 0 0
2017-03-03 23:29:42 12.56 99180.8 76.87 0 0 0
2017-03-03 23:23:56 12.61 99193.6 76.82 0 0 0
2017-03-03 23:18:10 12.58 99205 77.09 0 0 0
2017-03-03 23:12:24 12.57 99203.8 77.24 0 0 0
2017-03-03 23:06:38 12.54 99204.8 77.51 0 0 0
2017-03-03 23:00:52 12.52 99206.9 77.44 0 0 0
2017-03-03 22:55:07 12.44 99213.6 77.7 0 0 0
2017-03-03 22:49:21 12.47 99223.9 76.43 0 0 0
2017-03-03 22:43:35 12.42 99238.4 76.34 0 0 0
2017-03-03 22:37:49 12.44 99239 75.86 0 0 0
2017-03-03 22:32:03 12.46 99243.8 74.89 0 0 0
2017-03-03 22:26:18 12.5 99258.4 73.86 0 0 0
2017-03-03 22:20:32 12.61 99269.1 72.65 0 0 0
2017-03-03 22:14:46 12.53 99276 72.51 0 0 0
2017-03-03 22:09:00 12.42 99297.8 72.84 0 0 0
2017-03-03 22:03:14 12.43 99313.3 72.38 0 0 0
2017-03-03 21:57:28 12.46 99318.3 72.45 0 0 0
2017-03-03 21:51:43 12.38 99328.3 73.61 0 0 0
2017-03-03 21:45:57 12.4 99344.1 73.67 0 0 0
2017-03-03 21:40:11 12.44 99361.6 72.82 0 0 0
2017-03-03 21:34:25 12.46 99366.7 72.55 0 0 0
2017-03-03 21:28:39 12.52 99367 71.82 0 0 0
2017-03-03 21:22:53 12.59 99361.8 70.37 0 0 0
2017-03-03 21:17:08 12.65 99355.4 69.68 0 0 0
2017-03-03 21:11:22 12.64 99361.2 70.03 0 0 0
2017-03-03 21:05:36 12.66 99360.2 70.11 0 0 0
2017-03-03 20:59:50 12.7 99350.6 69.77 0 0 0
2017-03-03 20:54:04 12.68 99373.4 69.96 0 0 0
2017-03-03 20:48:18 12.69 99386.5 70.23 0 0 0
2017-03-03 20:42:33 12.69 99404.3 70.28 0 0 0
2017-03-03 20:36:47 12.75 99410 69.84 0 0 0
2017-03-03 20:31:01 12.67 99426.2 69.94 0 0 0
2017-03-03 20:25:15 12.72 99435 69.62 0 0 0
2017-03-03 20:19:29 12.8 99440.7 68.64 0 0 0
2017-03-03 20:13:43 12.87 99448.9 67.81 0 0 0
2017-03-03 20:07:58 12.92 99452.9 67.36 0 0 0
2017-03-03 20:02:12 13.07 99449 66.04 0 0 0
2017-03-03 19:56:26 13.17 99438.6 65.14 0 0 0
2017-03-03 19:50:42 13.18 99439.4 65.47 0 0 0
2017-03-03 19:44:53 13.15 99460.4 66.4 0 0 0
2017-03-03 19:39:07 13.24 99462.2 66.56 0 0 0
2017-03-03 19:33:22 13.28 99480.7 66.65 0 0 0
2017-03-03 19:27:36 13.37 99487.4 66.74 0 0 0
2017-03-03 19:21:50 13.39 99500.6 67.2 0 0 0
2017-03-03 19:16:04 13.41 99499.8 67.01 0 0 0
2017-03-03 19:10:18 13.45 99513.8 66.12 0 0 0
2017-03-03 19:04:33 13.51 99533.7 64.89 0 0 0
2017-03-03 18:58:47 13.58 99537.5 63.66 0 0 0
2017-03-03 18:53:01 13.65 99530.3 62.21 0 0 0
2017-03-03 18:47:15 13.69 99532.6 61.22 0 0 0
2017-03-03 18:41:29 13.7 99537.1 60.71 0 0 0
2017-03-03 18:35:43 13.79 99536.7 60 0 0 0
2017-03-03 18:29:58 13.83 99543.6 59.72 0 0 0
2017-03-03 18:24:12 13.88 99544.3 59.62 0 0 0
2017-03-03 18:18:26 13.99 99544.5 59.31 0 0 0
2017-03-03 18:12:40 14.11 99542.5 59.27 0 0 0
2017-03-03 18:06:54 14.14 99535 59.9 0 0 0
2017-03-03 18:01:08 14.05 99551.4 65.01 0 0 0
2017-03-03 17:55:23 14.05 99563.4 68.63 0 0 0
2017-03-03 17:49:37 14.04 99577.4 71.1 0 0 0
2017-03-03 17:43:51 14.09 99591.3 73.14 0 0 0
2017-03-03 17:38:05 14.08 99597.1 73.33 0 0 0
2017-03-03 17:32:19 14.32 99590.4 71.74 0 0 0
2017-03-03 17:26:33 14.46 99590 70.36 0 0 0
2017-03-03 17:20:48 14.61 99594.4 68.5 0 0 0
2017-03-03 17:15:02 14.87 99599.7 66.78 0 0 0
2017-03-03 17:09:16 14.85 99609.8 66.14 0 0 0
2017-03-03 17:03:30 15 99619.8 64.19 0 0 0
2017-03-03 16:57:44 15.25 99634.3 62.76 0 0 0
2017-03-03 16:51:58 15.33 99639.2 61.69 0 0 0
2017-03-03 16:46:12 15.41 99641.5 60.95 0 0 0
2017-03-03 16:40:27 15.65 99649.9 59.95 0 0 0
2017-03-03 16:34:41 15.78 99661.5 59.17 0 0 0
2017-03-03 16:28:55 15.76 99669.4 60.22 0 0 0
2017-03-03 16:23:09 15.72 99677.7 59.31 0 0 0
2017-03-03 16:17:23 15.79 99686.7 59.13 0 0 0
2017-03-03 16:11:37 15.65 99693.5 58.5 0 0 0
2017-03-03 16:05:52 15.93 99696.6 57.3 0 0 0
2017-03-03 15:54:20 16.41 99694.7 56.15 0 0 0
2017-03-03 15:48:34 16.25 99693 56.06 0 0 0
2017-03-03 15:42:48 16.29 99704.2 56.06 0 0 0
2017-03-03 15:37:02 15.99 99710.5 56.17 0 0 0
2017-03-03 15:31:17 15.96 99715.1 55.15 0 0 0
2017-03-03 15:25:31 16.15 99717.5 54.9 0 0 0
2017-03-03 15:19:45 15.93 99725.6 54.9 0 0 0
2017-03-03 15:13:59 16.09 99726.3 53.75 0 0 0
2017-03-03 15:08:13 15.92 99731.9 53.12 0 0 0
2017-03-03 15:02:27 16.02 99734.1 51.96 0 0 0
2017-03-03 14:56:41 15.82 99750.9 51.37 0 0 0
2017-03-03 14:50:56 15.92 99761 52.1 0 0 0
2017-03-03 14:45:10 16.06 99772.2 51.96 0 0 0
2017-03-03 14:39:24 16.18 99776.9 52.89 0 0 0
2017-03-03 14:33:38 16.13 99781.5 53.07 0 0 0
2017-03-03 14:27:52 16.69 99786.1 52.85 0 0 0
2017-03-03 14:22:06 16.68 99790.5 52.9 0 0 0
2017-03-03 14:16:21 16.35 99780.7 54.06 0 0 0
2017-03-03 14:10:35 16.33 99790 54.17 0 0 0
2017-03-03 14:04:49 16.52 99792.8 52.52 0 0 0
2017-03-03 13:59:03 16.37 99812.4 54 0 0 0
2017-03-03 13:53:17 16.12 99833.4 54.68 0 0 0
2017-03-03 13:47:30 16.17 99834.5 53.84 0 0 0
2017-03-03 13:41:45 16.43 99842.5 52.35 0 0 0
2017-03-03 13:35:59 16.21 99852.9 52.85 0 0 0
2017-03-03 13:30:13 16.03 99864 52.87 0 0 0
2017-03-03 13:24:27 16.44 99863.7 52.15 0 0 0
2017-03-03 13:18:41 16.44 99873.5 54.31 0 0 0
2017-03-03 13:12:55 16.39 99881.1 53.9 0 0 0
2017-03-03 13:07:09 16.38 99900.6 54.11 0 0 0
2017-03-03 13:01:24 16.18 99907.7 55.35 0 0 0
2017-03-03 12:55:38 16.18 99910.2 55.72 0.28 0 0
2017-03-03 12:49:52 16.29 99918.7 55.75 0 0 0
2017-03-03 12:44:06 16.3 99925 55.83 0 0 0
2017-03-03 12:38:20 16.27 99925.3 57.19 0 0 0
2017-03-03 12:32:34 16.32 99931.5 57.13 0 0 0
2017-03-03 12:26:48 16.59 99928.5 58.38 0 0 0
2017-03-03 12:21:03 16.52 99952.3 59.47 0 0 0
2017-03-03 12:15:17 16.28 99961.5 59.36 0 0 0
2017-03-03 12:09:31 16.38 99968.8 60.18 0 0 0
2017-03-03 12:03:45 16.18 99953.8 60.13 0 0 0
2017-03-03 11:57:59 16.08 99961.4 61.19 0 0 0
2017-03-03 11:52:13 16 99972.9 61.56 0 0 0
2017-03-03 11:46:28 16.04 99977.6 61.7 0 0 0
2017-03-03 11:40:42 15.77 99992.9 63.37 0 0 0
2017-03-03 11:34:56 15.5 99987.2 63.68 0 0 0
2017-03-03 11:29:10 15.53 99987.7 63.35 0 0 0
2017-03-03 11:23:24 15.7 99988.6 63.11 0 0 0
2017-03-03 11:17:38 15.87 99991.2 62.08 0 0 0
2017-03-03 11:11:52 15.86 99986.3 61.85 0 0 0
2017-03-03 11:06:06 15.85 99995.4 62.31 0 0 0
2017-03-03 10:54:35 15.56 99992.3 65.22 0 0 0
2017-03-03 10:48:49 15.49 99994.7 66.73 0 0 0
2017-03-03 10:43:03 15.32 99998.2 68.3 0 0 0
2017-03-03 10:37:17 15.09 100012 70.31 0 0 0
2017-03-03 10:31:31 14.71 100000 70.77 0 0 0
2017-03-03 10:25:45 14.61 100003 71.62 0 0 0
2017-03-03 10:19:59 14.38 99995.5 72.48 0 0 0
2017-03-03 10:14:13 14.13 100002 73.45 0 0 0
2017-03-03 10:08:28 13.91 100011 74.38 0 0 0
2017-03-03 10:02:42 13.78 100025 75.16 0 0 0
2017-03-03 09:56:56 13.68 100032 75.7 0 0 0
2017-03-03 09:51:10 13.26 100036 77.25 0 0 0
2017-03-03 09:45:24 12.98 100043 78.35 0 0 0
2017-03-03 09:39:38 12.69 100045 79.93 0 0 0
2017-03-03 09:33:52 12.5 100052 80.49 0 0 0
2017-03-03 09:28:06 12.28 100056 82.34 0 0 0
2017-03-03 09:22:20 12.04 100064 83.89 0 0 0
2017-03-03 09:16:34 11.8 100070 84.22 0 0 0
2017-03-03 09:10:49 11.6 100080 84.59 0 0 0
2017-03-03 09:05:03 11.54 100082 84.81 0 0 0
2017-03-03 08:59:17 11.35 100089 85.82 0 0 0
2017-03-03 08:53:31 11.2 100101 86.49 0 0 0
2017-03-03 08:47:45 11.14 100109 86.92 0 0 0
2017-03-03 08:41:59 11.23 100111 86.06 0 0 0
2017-03-03 08:36:13 11.28 100108 85.84 0 0 0
2017-03-03 08:30:27 11.27 100103 86.67 0 0 0
2017-03-03 08:24:41 11.01 100101 88.56 0 0 0
2017-03-03 08:18:55 10.64 100099 91.11 0 0 0
2017-03-03 08:13:10 10.39 100091 92.24 0 0 0
2017-03-03 08:07:24 10.12 100086 94.55 0 0 0
2017-03-03 08:01:38 9.88 100078 97.32 0 0 0
2017-03-03 07:55:52 9.75 100077 98.28 0 0 0
2017-03-03 07:50:06 9.65 100072 98.3 0 0 0
2017-03-03 07:44:20 9.52 100074 99.66 0 0 0
2017-03-03 07:38:35 9.44 100079 99.94 0 0 0
2017-03-03 07:32:49 9.25 100084 99.99 0 0 0
2017-03-03 07:27:03 9.15 100092 99.99 0 0 0
2017-03-03 07:21:17 9.1 100098 99.99 0 0 0
2017-03-03 07:15:31 9.02 100098 99.99 0 0 0
2017-03-03 07:09:46 8.98 100100 99.99 0 0 0
2017-03-03 07:04:00 9.07 100096 99.99 0 0 0
2017-03-03 06:58:14 9.17 100097 99.99 0 0 0
2017-03-03 06:52:28 9.26 100098 98.98 0 0 0
2017-03-03 06:46:42 9.31 100102 97.88 0 0 0
2017-03-03 06:40:56 9.32 100102 97.24 0 0 0
2017-03-03 06:35:11 9.25 100104 98.09 0 0 0
2017-03-03 06:29:25 9.22 100103 98.05 0 0 0
2017-03-03 06:23:39 9.24 100106 98.07 0 0 0
2017-03-03 06:17:53 9.33 100106 96.86 0 0 0
2017-03-03 06:12:07 9.35 100102 97.91 0 0 0
2017-03-03 06:06:22 9.33 100102 98.79 0 0 0
2017-03-03 06:00:36 9.15 100101 99.95 0 0 0
2017-03-03 05:54:50 9.05 100103 99.99 0 0 0
2017-03-03 05:49:04 8.87 100103 99.99 0 0 0
2017-03-03 05:43:18 8.62 100106 99.99 0 0 0
2017-03-03 05:37:32 8.19 100111 99.99 0 0 0
2017-03-03 05:31:46 7.95 100116 99.99 0 0 0
2017-03-03 05:26:01 7.82 100116 99.99 0 0 0
2017-03-03 05:20:15 7.59 100119 99.99 0 0 0
2017-03-03 05:14:29 7.52 100120 99.99 0 0 0
2017-03-03 05:08:43 7.46 100125 99.99 0 0 0
2017-03-03 05:02:57 7.58 100129 99.99 0 0 0
2017-03-03 04:57:12 7.67 100129 99.99 0 0 0
2017-03-03 04:51:26 7.49 100139 99.99 0 0 0
2017-03-03 04:45:40 7.38 100150 99.99 0 0 0
2017-03-03 04:39:54 7.46 100153 99.99 0 0 0
2017-03-03 04:34:08 7.4 100149 99.99 0 0 0
2017-03-03 04:28:23 7.48 100156 99.99 0 0 0
2017-03-03 04:22:37 7.51 100161 99.99 0 0 0
2017-03-03 04:16:51 7.69 100159 99.99 0 0 0
2017-03-03 04:11:05 7.75 100161 99.99 0 0 0
2017-03-03 04:05:19 7.76 100164 99.99 0 0 0
2017-03-03 03:59:34 7.89 100167 99.99 0 0 0
2017-03-03 03:53:48 8.03 100171 99.99 0 0 0
2017-03-03 03:48:02 7.84 100173 99.99 0 0 0
2017-03-03 03:42:16 7.64 100175 99.99 0 0 0
2017-03-03 03:36:30 7.61 100184 99.99 0 0 0
2017-03-03 03:30:45 7.66 100189 99.99 0 0 0
2017-03-03 03:24:58 7.67 100195 99.99 0 0 0
2017-03-03 03:19:13 7.57 100208 99.99 0 0 0
2017-03-03 03:13:27 7.52 100211 99.99 0 0 0
2017-03-03 03:07:41 7.39 100225 99.99 0 0 0
2017-03-03 03:01:55 7.39 100238 99.99 0 0 0
2017-03-03 02:56:09 7.37 100247 99.99 0 0 0
2017-03-03 02:50:24 7.33 100248 99.99 0 0 0
2017-03-03 02:44:38 7.37 100256 99.99 0 0 0
2017-03-03 02:38:52 7.54 100260 99.99 0 0 0
2017-03-03 02:33:06 7.61 100264 99.99 0 0 0
2017-03-03 02:27:20 7.78 100277 99.99 0 0 0
2017-03-03 02:21:34 7.89 100283 99.99 0 0 0
2017-03-03 02:15:49 7.82 100289 99.99 0 0 0
2017-03-03 02:10:03 7.74 100286 99.99 0 0 0
2017-03-03 02:04:17 7.74 100282 99.99 0 0 0
2017-03-03 01:58:31 7.72 100278 99.99 0 0 0
2017-03-03 01:52:45 7.63 100284 99.99 0 0 0
2017-03-03 01:47:00 7.6 100286 99.99 0 0 0
2017-03-03 01:41:14 7.72 100286 99.99 0 0 0
2017-03-03 01:35:28 7.8 100288 99.99 0 0 0
2017-03-03 01:29:42 7.84 100291 99.99 0 0 0
2017-03-03 01:23:56 7.85 100293 99.99 0 0 0
2017-03-03 01:18:10 7.84 100295 99.99 0 0 0
2017-03-03 01:12:25 7.68 100293 99.99 0 0 0
2017-03-03 01:06:39 7.66 100296 99.99 0 0 0
2017-03-03 01:00:53 7.81 100296 99.99 0 0 0
2017-03-03 00:55:07 7.94 100302 99.99 0 0 0
2017-03-03 00:49:21 8.01 100305 99.99 0 0 0
2017-03-03 00:43:36 8.1 100313 99.99 0 0 0
2017-03-03 00:37:50 8.23 100312 99.99 0 0 0
2017-03-03 00:32:04 8.28 100315 99.99 0 0 0
2017-03-03 00:26:18 8.31 100313 99.99 0 0 0
2017-03-03 00:20:32 8.31 100321 99.99 0 0 0
2017-03-03 00:14:46 8.4 100326 99.99 0 0 0
2017-03-03 00:09:01 8.5 100333 99.99 0 0 0
2017-03-03 00:03:15 8.51 100334 99.99 0 0 0
2017-03-02 23:57:29 8.49 100327 99.99 0 0 0
2017-03-02 23:51:43 8.54 100334 99.99 0 0 0
2017-03-02 23:45:57 8.57 100345 99.99 0 0 0
2017-03-02 23:40:12 8.61 100347 99.99 0 0 0
2017-03-02 23:34:26 8.61 100350 99.99 0 0 0
2017-03-02 23:28:40 8.64 100351 99.99 0 0 0
2017-03-02 23:22:54 8.72 100352 99.99 0 0 0
2017-03-02 23:17:08 8.76 100360 99.99 0 0 0
2017-03-02 23:11:23 8.82 100362 99.99 0 0 0
2017-03-02 23:05:37 8.93 100359 99.99 0 0 0
2017-03-02 22:59:51 8.99 100361 99.99 0 0 0
2017-03-02 22:54:05 9 100365 99.99 0 0 0
2017-03-02 22:48:19 9.05 100367 99.99 0 0 0
2017-03-02 22:42:33 9.12 100367 99.99 0 0 0
2017-03-02 22:36:48 9.15 100363 99.99 0 0 0
2017-03-02 22:31:02 9.15 100363 99.99 0 0 0
2017-03-02 22:25:16 9.15 100365 99.99 0 0 0
2017-03-02 22:19:30 9.2 100367 99.99 0 0 0
2017-03-02 22:13:44 9.23 100365 99.99 0 0 0
2017-03-02 22:07:59 9.32 100357 99.99 0 0 0
2017-03-02 22:02:13 9.47 100360 99.99 0 0 0
2017-03-02 21:56:27 9.56 100354 99.99 0 0 0
2017-03-02 21:50:41 9.58 100349 99.99 0 0 0
2017-03-02 21:44:55 9.71 100342 99.99 0 0 0
2017-03-02 21:39:09 9.81 100337 99.99 0 0 0
2017-03-02 21:33:23 9.86 100340 99.99 0 0 0
2017-03-02 21:27:37 9.85 100341 99.99 0 0 0
2017-03-02 21:21:51 10.13 100337 99.99 0 0 0
2017-03-02 21:16:05 10.34 100343 99.99 0 0 0
2017-03-02 21:10:20 10.29 100340 99.99 0 0 0
2017-03-02 21:04:34 10.3 100339 99.99 0 0 0
2017-03-02 20:58:48 10.45 100339 99.99 0 0 0
2017-03-02 20:53:02 10.57 100344 99.99 0 0 0
2017-03-02 20:47:16 10.6 100344 99.99 0 0 0
2017-03-02 20:41:30 10.72 100343 99.99 0 0 0
2017-03-02 20:35:44 10.8 100343 99.99 0 0 0
2017-03-02 20:29:58 11.03 100335 99.99 0 0 0
2017-03-02 20:24:12 11.42 100333 99.99 0 0 0
2017-03-02 20:18:26 11.42 100338 99.99 0 0 0
2017-03-02 20:12:41 11.47 100335 99.99 0 0 0
2017-03-02 20:06:55 11.66 100331 99.99 0 0 0
2017-03-02 20:01:09 11.86 100330 99.99 0 0 0
2017-03-02 19:55:23 12.09 100325 99.99 0 0 0
2017-03-02 19:49:37 12.22 100323 99.99 0 0 0
2017-03-02 19:43:51 12.34 100320 99.77 0 0 0
2017-03-02 19:38:05 12.5 100312 97.58 0 0 0
2017-03-02 19:32:19 12.7 100308 95.87 0 0 0
2017-03-02 19:26:33 12.82 100308 93.11 0 0 0
2017-03-02 19:20:47 13.05 100299 89.45 0 0 0
2017-03-02 19:15:01 13.21 100285 88.15 0 0 0
2017-03-02 19:09:15 13.26 100281 88.22 0 0 0
2017-03-02 19:03:29 13.34 100273 87.68 0 0 0
2017-03-02 18:57:43 13.43 100266 86.86 0 0 0
2017-03-02 18:51:57 13.48 100261 86.34 0 0 0
2017-03-02 18:46:11 13.56 100255 85.61 0 0 0
2017-03-02 18:40:25 13.67 100247 83.53 0 0 0
2017-03-02 18:34:39 13.83 100244 81.28 0 0 0
2017-03-02 18:28:53 13.95 100240 80.03 0 0 0
2017-03-02 18:23:07 14.09 100235 78.97 0 0 0
2017-03-02 18:17:21 14.23 100233 77.91 0 0 0
2017-03-02 18:11:35 14.51 100229 76.09 0 0 0
2017-03-02 18:05:49 14.67 100227 74.78 0 0 0
2017-03-02 18:00:11 14.84 100222 73.65 0 0 0
2017-03-02 17:54:17 14.81 100215 73.92 0 0 0
2017-03-02 17:48:31 14.81 100210 73.85 0 0 0
2017-03-02 17:42:45 14.75 100204 73.83 0 0 0
2017-03-02 17:36:59 14.74 100198 73.65 0 0 0
2017-03-02 17:31:13 14.8 100196 73.94 0 0 0
2017-03-02 17:25:27 14.69 100195 75.75 0 0 0
2017-03-02 17:19:41 14.61 100195 77.67 0 0 0
2017-03-02 17:13:55 14.45 100199 81.35 0 0 0
2017-03-02 17:08:09 14.32 100202 83.64 0 0 0
2017-03-02 17:02:23 14.36 100203 82.56 0 0 0
2017-03-02 16:56:37 14.69 100192 80.72 0 0 0
2017-03-02 16:50:51 14.62 100195 80.67 0 0 0
2017-03-02 16:45:05 14.86 100196 79.87 0 0 0
2017-03-02 16:39:19 15 100201 79.94 0 0 0
2017-03-02 16:33:33 14.78 100200 81.06 0 0 0
2017-03-02 16:27:47 14.93 100199 80.3 0 0 0
2017-03-02 16:22:01 15.1 100202 80.51 0 0 0
2017-03-02 16:16:15 14.9 100206 81.86 0 0 0
2017-03-02 16:10:29 15.13 100208 81 0 0 0
2017-03-02 16:04:44 15.03 100210 79.05 0 0 0
2017-03-02 15:58:58 15.21 100218 78.21 0 0 0
2017-03-02 15:53:12 14.9 100214 79.31 0 0 0
2017-03-02 15:47:26 15.14 100222 77.91 0 0 0
2017-03-02 15:41:40 15.45 100225 75.99 0 0 0
2017-03-02 15:35:54 15.5 100226 75.64 0 0 0
2017-03-02 15:30:08 15.23 100223 76.23 0 0 0
2017-03-02 15:24:22 15.62 100219 73.44 0 0 0
2017-03-02 15:18:36 15.77 100222 72.42 0 0 0
2017-03-02 15:12:51 15.86 100221 71.37 0 0 0
2017-03-02 15:07:04 16.41 100213 69.93 0 0 0
2017-03-02 15:01:19 17.08 100205 59.53 0 0 0
2017-03-02 14:55:33 17.12 100211 57.2 0 0 0
2017-03-02 14:49:29 17.16 100222 56.42 0 0 0
2017-03-02 14:43:43 17.3 100227 57.75 0 0 0
2017-03-02 14:37:57 17.12 100233 58.72 0 0 0
2017-03-02 14:32:11 16.7 100237 59.34 0 0 0
2017-03-02 14:26:26 16.76 100237 59.38 0 0 0
2017-03-02 14:20:40 16.67 100240 59.07 0 0 0
2017-03-02 14:14:54 16.48 100249 58.39 0 0 0
2017-03-02 14:09:08 16.43 100251 58.11 0 0 0
2017-03-02 14:03:22 16.6 100257 57.22 0 0 0
2017-03-02 13:57:36 16.2 100258 58.67 0 0 0
2017-03-02 13:51:50 16.27 100261 58.2 0 0 0
2017-03-02 13:46:04 16.36 100268 58.32 0 0 0
2017-03-02 13:40:18 16.44 100275 58.53 0 0 0
2017-03-02 13:34:32 16.25 100280 59.11 0 0 0
2017-03-02 13:28:46 16.29 100283 59.36 0 0 0
2017-03-02 13:23:01 16.15 100288 59.29 0 0 0
2017-03-02 13:17:15 16.18 100293 59.88 0 0 0
2017-03-02 13:11:29 15.87 100301 60.48 0 0 0
2017-03-02 13:05:43 15.81 100305 60.62 0 0 0
2017-03-02 12:59:57 15.72 100310 60.7 0 0 0
2017-03-02 12:54:11 15.77 100319 61.37 0 0 0
2017-03-02 12:48:25 15.73 100319 61.16 0 0 0
2017-03-02 12:42:39 15.63 100330 61.7 0 0 0
2017-03-02 12:36:54 15.59 100341 61.43 0 0 0
2017-03-02 12:31:08 15.44 100350 61.63 0 0 0
2017-03-02 12:25:22 15.68 100355 61.1 0 0 0
2017-03-02 12:19:36 15.66 100356 61.43 0 0 0
2017-03-02 12:13:50 15.18 100359 62.35 0 0 0
2017-03-02 12:08:04 15.42 100367 61.38 0 0 0
2017-03-02 12:02:18 15.43 100370 61.71 0 0 0
2017-03-02 11:56:32 15.25 100369 62.28 0 0 0
2017-03-02 11:50:46 15.04 100375 62.88 0 0 0
2017-03-02 11:45:00 14.99 100376 63.09 0 0 0
2017-03-02 11:39:14 14.93 100373 62.84 0 0 0
2017-03-02 11:33:28 14.96 100376 62.81 0 0 0
2017-03-02 11:27:42 14.98 100377 63.14 0 0 0
2017-03-02 11:21:57 14.68 100377 63.6 0 0 0
2017-03-02 11:16:11 15.05 100382 63.48 0 0 0
2017-03-02 11:10:25 14.87 100385 64.11 0 0 0
2017-03-02 11:04:39 14.82 100378 64.97 0 0 0
2017-03-02 10:58:53 14.66 100374 66.65 0 0 0
2017-03-02 10:53:07 14.62 100378 69.25 0 0 0
2017-03-02 10:47:21 14.4 100385 70.11 0 0 0
2017-03-02 10:41:35 14.34 100381 70.37 0 0 0
2017-03-02 10:35:49 14.01 100386 73.52 0 0 0
2017-03-02 10:30:03 13.74 100390 75.06 0 0 0
2017-03-02 10:24:17 13.45 100389 77.43 0 0 0
2017-03-02 10:18:31 13.4 100392 78.03 0 0 0
2017-03-02 10:12:45 13.23 100393 78.33 0 0 0
2017-03-02 10:07:00 13.06 100393 78.28 0 0 0
2017-03-02 10:01:14 13.04 100392 78.46 0 0 0
2017-03-02 09:55:28 12.81 100389 79.46 0 0 0
2017-03-02 09:49:42 12.72 100391 80.49 0 0 0
2017-03-02 09:43:56 12.56 100393 82.82 0 0 0
2017-03-02 09:38:10 12.3 100396 84.47 0 0 0
2017-03-02 09:32:24 12.04 100396 84.8 0 0 0
2017-03-02 09:26:38 11.81 100396 86.58 0 0 0
2017-03-02 09:20:52 11.67 100390 86.75 0 0 0
2017-03-02 09:15:06 11.19 100393 89.4 0 0 0
2017-03-02 09:09:21 10.6 100396 91.32 0 0 0
2017-03-02 09:03:35 10.18 100390 93.2 0 0 0
2017-03-02 08:57:49 9.79 100385 96.76 0 0 0
2017-03-02 08:52:03 9.47 100381 95.31 0 0 0
2017-03-02 08:46:17 9.29 100377 96.42 0 0 0
2017-03-02 08:40:31 9.36 100379 95.21 0 0 0
2017-03-02 08:34:46 9.08 100380 97.76 0 0 0
2017-03-02 08:29:00 8.66 100386 99.99 0 0 0
2017-03-02 08:23:14 8.38 100387 99.99 0 0 0
2017-03-02 08:17:28 7.98 100389 99.99 0 0 0
2017-03-02 08:11:42 7.68 100387 99.99 0 0 0
2017-03-02 08:05:56 7.43 100383 99.99 0 0 0
2017-03-02 08:00:11 7.01 100384 99.99 0 0 0
2017-03-02 07:54:24 6.64 100396 99.99 0 0 0
2017-03-02 07:48:38 6.5 100399 99.99 0 0 0
2017-03-02 07:42:52 6.37 100387 99.99 0 0 0
2017-03-02 07:37:07 6.39 100382 99.99 0 0 0
2017-03-02 07:31:21 6.32 100384 99.99 0 0 0
2017-03-02 07:25:35 6.24 100371 99.99 0 0 0
2017-03-02 07:19:49 6.18 100359 99.99 0 0 0
2017-03-02 07:14:03 6.17 100354 99.99 0 0 0
2017-03-02 07:08:18 6.2 100358 99.99 0 0 0
2017-03-02 07:02:32 6.11 100362 99.99 0 0 0
2017-03-02 06:56:46 6.1 100355 99.99 0 0 0
2017-03-02 06:51:00 6.08 100346 99.99 0 0 0
2017-03-02 06:45:14 6.09 100347 99.99 0 0 0
2017-03-02 06:39:28 6.29 100351 99.99 0 0 0
2017-03-02 06:33:43 6.42 100345 99.99 0 0 0
2017-03-02 06:27:57 6.44 100345 99.99 0 0 0
2017-03-02 06:22:11 6.36 100338 99.99 0 0 0
2017-03-02 06:16:25 6.35 100333 99.99 0 0 0
2017-03-02 06:10:39 6.4 100331 99.99 0 0 0
2017-03-02 06:04:54 6.47 100330 99.99 0 0 0
2017-03-02 05:59:08 6.5 100338 99.99 0 0 0
2017-03-02 05:53:22 6.57 100336 99.99 0 0 0
2017-03-02 05:47:36 6.5 100330 99.99 0 0 0
2017-03-02 05:41:50 6.58 100337 99.99 0 0 0
2017-03-02 05:36:05 6.54 100339 99.99 0 0 0
2017-03-02 05:30:19 6.58 100346 99.99 0 0 0
2017-03-02 05:24:33 6.46 100344 99.99 0 0 0
2017-03-02 05:18:47 6.56 100349 99.99 0 0 0
2017-03-02 05:13:01 6.59 100350 99.99 0 0 0
2017-03-02 05:07:15 6.67 100353 99.99 0 0 0
2017-03-02 05:01:29 6.79 100362 99.99 0 0 0
2017-03-02 04:55:43 6.94 100362 99.99 0 0 0
2017-03-02 04:49:57 7.04 100360 99.99 0 0 0
2017-03-02 04:44:12 7.19 100356 99.99 0 0 0
2017-03-02 04:38:26 7.27 100356 99.99 0 0 0
2017-03-02 04:32:40 7.29 100357 99.99 0 0 0
2017-03-02 04:26:54 7.31 100357 99.99 0 0 0
2017-03-02 04:21:08 7.28 100365 99.99 0 0 0
2017-03-02 04:15:22 7.41 100364 99.99 0 0 0
2017-03-02 04:09:36 7.42 100368 99.99 0 0 0
2017-03-02 04:03:50 7.49 100376 99.99 0 0 0
2017-03-02 03:58:05 7.68 100382 99.99 0 0 0
2017-03-02 03:52:19 7.77 100388 99.99 0 0 0
2017-03-02 03:46:33 7.87 100386 99.99 0 0 0
2017-03-02 03:40:47 7.97 100392 99.99 0 0 0
2017-03-02 03:35:01 8.1 100395 99.99 0 0 0
2017-03-02 03:29:15 8.07 100396 99.99 0 0 0
2017-03-02 03:23:29 8.15 100401 99.99 0 0 0
2017-03-02 03:17:43 8.31 100407 99.99 0 0 0
2017-03-02 03:11:57 8.38 100412 99.99 0 0 0
2017-03-02 03:06:11 8.49 100427 99.99 0 0 0
2017-03-02 03:00:25 8.42 100432 99.99 0 0 0
2017-03-02 02:54:39 8.46 100437 99.99 0 0 0
2017-03-02 02:48:53 8.64 100443 99.99 0 0 0
2017-03-02 02:43:07 8.85 100451 99.99 0 0 0
2017-03-02 02:37:21 9.06 100457 99.99 0 0 0
2017-03-02 02:31:35 9.08 100456 99.99 0 0 0
2017-03-02 02:25:49 9.18 100455 99.99 0 0 0
2017-03-02 02:20:03 9.38 100457 99.99 0 0 0
2017-03-02 02:14:18 9.54 100459 99.99 0 0 0
2017-03-02 02:08:32 9.68 100458 99.99 0 0 0
2017-03-02 02:02:46 9.83 100456 99.99 0 0 0
2017-03-02 01:57:00 9.94 100451 99.99 0 0 0
2017-03-02 01:51:14 10.09 100447 99.99 0 0 0
2017-03-02 01:45:28 10.23 100448 99.99 0 0 0
2017-03-02 01:39:42 10.38 100453 99.99 0 0 0
2017-03-02 01:33:56 10.5 100457 99.99 0 0 0
2017-03-02 01:28:10 10.64 100458 99.99 0 0 0
2017-03-02 01:22:24 10.76 100457 99.99 0 0 0
2017-03-02 01:16:38 10.83 100456 99.99 0 0 0
2017-03-02 01:10:53 10.89 100460 99.99 0 0 0
2017-03-02 01:05:07 10.96 100463 99.99 0 0 0
2017-03-02 00:59:21 11 100474 99.99 0 0 0
2017-03-02 00:53:35 11.05 100478 99.99 0 0 0
2017-03-02 00:47:49 11.14 100470 99.99 0 0 0
2017-03-02 00:42:03 11.27 100459 99.99 0 0 0
2017-03-02 00:36:17 11.36 100456 99.99 0 0 0
2017-03-02 00:30:31 11.38 100454 99.99 0 0 0
2017-03-02 00:24:46 11.41 100453 99.99 0 0 0
2017-03-02 00:19:00 11.39 100453 99.99 0 0 0
2017-03-02 00:13:14 11.43 100452 99.99 0 0 0
2017-03-02 00:07:28 11.48 100451 99.99 0 0 0
2017-03-02 00:01:42 11.47 100454 99.99 0 0 0
2017-03-01 23:55:56 11.48 100454 99.99 0 0 0
2017-03-01 23:50:10 11.45 100450 99.99 0 0 0
2017-03-01 23:44:24 11.4 100453 99.99 0 0 0
2017-03-01 23:38:38 11.37 100457 99.99 0 0 0
2017-03-01 23:32:52 11.35 100464 99.99 0 0 0
2017-03-01 23:27:06 11.37 100465 99.99 0 0 0
2017-03-01 23:21:20 11.41 100470 99.99 0 0 0
2017-03-01 23:15:34 11.44 100472 99.99 0 0 0
2017-03-01 23:09:48 11.45 100477 99.99 0 0 0
2017-03-01 23:04:02 11.48 100489 99.99 0 0 0
2017-03-01 22:58:16 11.49 100495 99.99 0 0 0
2017-03-01 22:52:30 11.48 100500 99.99 0 0 0
2017-03-01 22:46:44 11.48 100501 99.99 0 0 0
2017-03-01 22:40:58 11.51 100494 99.99 0 0 0
2017-03-01 22:35:12 11.56 100488 99.99 0 0 0
2017-03-01 22:29:26 11.56 100489 99.99 0 0 0
2017-03-01 22:23:41 11.55 100492 99.99 0 0 0
2017-03-01 22:17:55 11.51 100491 99.99 0 0 0
2017-03-01 22:12:09 11.49 100493 99.99 0 0 0
2017-03-01 22:06:23 11.49 100495 99.99 0 0 0
2017-03-01 22:00:37 11.49 100494 99.99 0 0 0
2017-03-01 21:54:51 11.48 100499 99.99 0 0 0
2017-03-01 21:49:05 11.45 100490 99.99 0 0 0
2017-03-01 21:43:19 11.4 100491 99.99 0 0 0
2017-03-01 21:37:33 11.16 100484 99.99 0 0 0
2017-03-01 21:31:47 10.48 100478 94.75 0 0 0
2017-03-01 21:26:02 10.23 100475 86.84 0 0 0
2017-03-01 21:20:16 10.21 100474 87.53 0 0 0
2017-03-01 21:14:30 10.1 100471 85.33 0 0 0
2017-03-01 21:08:44 10.04 100470 84.54 0 0 0
2017-03-01 21:02:58 10.09 100471 83.36 0 0 0
2017-03-01 20:57:12 10.08 100473 82.57 0 0 0
2017-03-01 20:51:26 10.06 100472 82.09 0 0 0
2017-03-01 20:45:40 10.02 100473 81.89 0 0 0
2017-03-01 20:39:55 9.98 100467 81.64 0 0 0
2017-03-01 20:34:09 9.98 100467 81.06 0 0 0
2017-03-01 20:28:23 10.02 100467 79.96 0 0 0
2017-03-01 20:22:37 10.17 100466 78.32 0 0 0
2017-03-01 20:16:51 10.44 100469 76.63 0 0 0
2017-03-01 20:11:05 10.62 100466 76.21 0 0 0
2017-03-01 20:05:19 10.66 100464 75.3 0 0 0
2017-03-01 19:59:33 10.71 100464 75.25 0 0 0
2017-03-01 19:53:47 10.84 100464 75.49 0 0 0
2017-03-01 19:48:02 10.94 100450 74.71 0 0 0
2017-03-01 19:42:16 10.96 100444 73.44 0 0 0
2017-03-01 19:36:30 10.98 100449 72.21 0 0 0
2017-03-01 19:30:44 11.01 100460 71.01 0 0 0
2017-03-01 19:24:58 11.09 100459 70.23 0 0 0
2017-03-01 19:19:12 11.13 100459 69.63 0 0 0
2017-03-01 19:13:26 11.17 100452 68.45 0 0 0
2017-03-01 19:07:40 11.19 100435 67.58 0 0 0
2017-03-01 19:01:55 11.2 100418 67.1 0 0 0
2017-03-01 18:56:09 11.22 100412 66.62 0 0 0
2017-03-01 18:50:23 11.25 100410 65.55 0 0 0
2017-03-01 18:44:37 11.25 100397 64.78 0 0 0
2017-03-01 18:38:51 11.26 100392 64.3 0 0 0
2017-03-01 18:33:05 11.28 100384 63.36 0 0 0
2017-03-01 18:27:19 11.29 100374 64.94 0 0 0
2017-03-01 18:21:33 11.31 100369 67.31 0 0 0
2017-03-01 18:15:47 11.37 100358 67.46 0 0 0
2017-03-01 18:10:02 11.51 100341 66.41 0 0 0
2017-03-01 18:04:16 11.49 100332 65.43 0 0 0
2017-03-01 17:58:30 11.46 100326 64.77 0 0 0
2017-03-01 17:52:44 11.54 100317 62.8 0 0 0
2017-03-01 17:46:58 11.63 100311 59.87 0 0 0
2017-03-01 17:41:12 11.64 100304 60.02 0 0 0
2017-03-01 17:35:26 11.68 100298 59.41 0 0 0
2017-03-01 17:29:40 11.85 100297 56.52 0 0 0
2017-03-01 17:23:55 11.97 100298 56.82 0 0 0
2017-03-01 17:18:09 11.93 100296 60.23 0 0 0
2017-03-01 17:12:23 11.85 100289 61.42 0 0 0
2017-03-01 17:06:37 12.06 100285 58.47 0 0 0
2017-03-01 17:00:51 12.18 100279 57.37 0 0 0
2017-03-01 16:55:05 12.01 100269 58.82 0 0 0
2017-03-01 16:49:19 12.13 100260 58.96 0 0 0
2017-03-01 16:43:33 12.28 100247 59.6 0 0 0
2017-03-01 16:37:47 12.38 100232 59.43 0 0 0
2017-03-01 16:32:01 12.32 100225 59.81 0 0 0
2017-03-01 16:26:15 12.23 100223 61.1 0 0 0
2017-03-01 16:20:30 12.17 100226 61.1 0 0 0
2017-03-01 16:14:44 12.21 100228 62.08 0 0 0
2017-03-01 16:08:58 12.12 100220 63.03 0 0 0
2017-03-01 16:03:11 12.22 100212 64.76 0 0 0
2017-03-01 15:57:25 12.2 100203 63.06 0 0 0
2017-03-01 15:51:39 12.19 100191 64.02 0 0 0
2017-03-01 15:45:53 12.39 100188 65.17 0 0 0
2017-03-01 15:40:08 12.77 100181 58.44 0 0 0
2017-03-01 15:34:22 13.17 100173 48.18 0 0 0
2017-03-01 15:28:36 13.23 100175 48.02 0 0 0
2017-03-01 15:22:50 13.23 100175 47.56 0 0 0
2017-03-01 15:17:04 12.93 100172 48.01 0 0 0
2017-03-01 15:11:18 13.11 100181 47.49 0 0 0
2017-03-01 15:05:32 12.96 100182 47.52 0 0 0
2017-03-01 14:59:46 12.77 100177 47.59 0 0 0
2017-03-01 14:54:00 12.67 100180 47.48 0 0 0
2017-03-01 14:48:14 12.77 100184 46.13 0 0 0
2017-03-01 14:42:28 12.64 100187 44.47 0 0 0
2017-03-01 14:36:42 12.73 100191 44.2 0 0 0
2017-03-01 14:30:56 12.85 100189 44.71 0 0 0
2017-03-01 14:25:11 12.42 100194 46.23 0 0 0
2017-03-01 14:19:25 12.6 100199 46.76 0 0 0
2017-03-01 14:13:39 12.75 100205 47.94 0 0 0
2017-03-01 14:07:53 12.23 100215 49.33 0 0 0
2017-03-01 14:02:07 11.98 100225 49.61 0 0 0
2017-03-01 13:56:21 11.76 100236 49.04 0 0 0
2017-03-01 13:50:35 11.86 100238 48.31 0 0 0
2017-03-01 13:44:49 11.9 100239 48.48 0 0 0
2017-03-01 13:39:03 12.19 100234 48.47 0 0 0
2017-03-01 13:33:18 12.14 100240 48.62 0 0 0
2017-03-01 13:27:32 11.93 100242 49 0 0 0
2017-03-01 13:21:46 11.75 100254 49.15 0 0 0
2017-03-01 13:16:00 11.97 100248 49.88 0 0 0
2017-03-01 13:10:14 11.93 100246 49.77 0 0 0
2017-03-01 13:04:28 12.17 100243 51.05 0 0 0
2017-03-01 12:58:42 11.84 100246 51.17 0 0 0
2017-03-01 12:52:56 11.56 100250 50.92 0 0 0
2017-03-01 12:47:10 11.9 100264 51.1 0 0 0
2017-03-01 12:41:24 11.84 100266 51.58 0 0 0
2017-03-01 12:35:38 11.76 100260 53.05 0 0 0
2017-03-01 12:29:52 11.45 100264 53.67 0 0 0
2017-03-01 12:24:06 11.23 100268 53.72 0 0 0
2017-03-01 12:18:20 11.6 100272 53.98 0 0 0
2017-03-01 12:12:35 11.36 100287 54.33 0 0 0
2017-03-01 12:06:49 11.38 100295 53.9 0 0 0
2017-03-01 12:01:03 11.37 100292 54.62 0 0 0
2017-03-01 11:55:17 11.25 100291 54.65 0 0 0
2017-03-01 11:49:31 11.1 100293 55.13 0 0 0
2017-03-01 11:43:45 10.73 100299 55.99 0 0 0
2017-03-01 11:37:59 10.46 100306 56.36 0 0 0
2017-03-01 11:32:14 10.25 100299 56.24 0 0 0
2017-03-01 11:26:27 10.04 100289 57.21 0 0 0
2017-03-01 11:20:42 9.85 100286 57.17 0 0 0
2017-03-01 11:14:56 9.82 100289 56.98 0 0 0
2017-03-01 11:09:10 9.76 100292 56.81 0 0 0
2017-03-01 11:03:24 9.9 100295 56.87 0 0 0
2017-03-01 10:57:38 9.76 100278 56.78 0 0 0
2017-03-01 10:51:52 9.69 100272 56.89 0 0 0
2017-03-01 10:46:07 9.43 100276 58.2 0 0 0
2017-03-01 10:40:21 9.18 100274 58.6 0 0 0
2017-03-01 10:34:35 9.01 100272 58.95 0 0 0
2017-03-01 10:28:49 8.99 100273 59.36 0 0 0
2017-03-01 10:23:03 8.93 100271 59.99 0 0 0
2017-03-01 10:17:17 8.86 100268 61.6 0 0 0
2017-03-01 10:11:32 8.79 100264 61.77 0 0 0
2017-03-01 10:05:46 8.82 100272 62.77 0 0 0
2017-03-01 10:00:00 8.52 100272 63.4 0 0 0
2017-03-01 09:54:14 8.36 100262 64.67 0 0 0
2017-03-01 09:48:28 8.22 100246 65.6 0 0 0
2017-03-01 09:42:42 8.17 100242 65.54 0 0 0
2017-03-01 09:36:57 7.93 100244 64.93 0 0 0
2017-03-01 09:31:11 7.83 100261 64.83 0 0 0
2017-03-01 09:25:25 7.76 100273 64.63 0 0 0
2017-03-01 09:19:39 7.72 100273 64.62 0 0 0
2017-03-01 09:13:53 7.54 100271 64.79 0 0 0
2017-03-01 09:08:08 7.41 100270 65.36 0 0 0
2017-03-01 09:02:22 7.31 100268 65.41 0 0 0
2017-03-01 08:56:36 7.24 100263 65.73 0 0 0
2017-03-01 08:50:50 7.15 100270 66.16 0 0 0
2017-03-01 08:45:04 7.02 100267 66.85 0 0 0
2017-03-01 08:39:18 6.86 100265 67.15 0 0 0
2017-03-01 08:33:33 6.64 100267 67.65 0 0 0
2017-03-01 08:27:47 6.36 100273 69.18 0 0 0
2017-03-01 08:22:01 6.22 100270 69.8 0 0 0
2017-03-01 08:16:15 6.02 100266 70.6 0 0 0
2017-03-01 08:10:29 5.79 100266 71.32 0 0 0
2017-03-01 08:04:43 5.41 100272 73.34 0 0 0
2017-03-01 07:58:58 4.9 100255 75.97 0 0 0
2017-03-01 07:53:12 4.3 100259 79.19 0 0 0
2017-03-01 07:47:26 3.7 100268 81.67 0 0 0
2017-03-01 07:41:40 3.56 100263 81.16 0 0 0
2017-03-01 07:35:54 3.46 100260 81.07 0 0 0
2017-03-01 07:30:09 3.43 100252 80.81 0 0 0
2017-03-01 07:24:23 3.24 100249 80.7 0 0 0
2017-03-01 07:18:37 3.14 100245 81.08 0 0 0
2017-03-01 07:12:51 3.01 100243 82.27 0 0 0
2017-03-01 07:07:05 2.74 100231 84.22 0 0 0
2017-03-01 07:01:20 2.6 100225 85.35 0 0 0
2017-03-01 06:55:34 2.53 100231 85.16 0.28 0 0
2017-03-01 06:49:48 2.67 100224 83.77 0 0 0
2017-03-01 06:44:02 2.95 100232 83.03 0 0 0
2017-03-01 06:38:16 3.06 100235 81.83 0 0 0
2017-03-01 06:32:31 2.99 100236 80.85 0 0 0
2017-03-01 06:26:45 2.93 100226 80.2 0 0 0
2017-03-01 06:20:59 2.93 100212 79.4 0 0 0
2017-03-01 06:15:13 2.86 100203 80.26 0 0 0
2017-03-01 06:09:27 2.82 100198 80.73 0 0 0
2017-03-01 06:03:42 2.76 100185 81.78 0 0 0
2017-03-01 05:57:56 2.83 100173 80.83 0 0 0
2017-03-01 05:52:10 3.17 100160 78.79 0 0 0
2017-03-01 05:46:24 3.38 100146 78.03 0 0 0
2017-03-01 05:40:38 3.53 100147 77.02 0 0 0
2017-03-01 05:34:53 3.53 100150 77.86 0 0 0
2017-03-01 05:29:07 3.31 100153 78.62 0 0 0
2017-03-01 05:23:21 3.25 100148 78.58 0 0 0
2017-03-01 05:17:35 3.39 100130 77.7 0 0 0
2017-03-01 05:11:49 3.54 100114 76.75 0 0 0
2017-03-01 05:06:04 3.57 100103 76.06 0 0 0
2017-03-01 05:00:18 3.7 100092 74.56 0 0 0
2017-03-01 04:54:32 4.26 100081 71.6 0 0 0
2017-03-01 04:48:46 4.28 100084 72.08 0 0 0
2017-03-01 04:43:00 4.32 100083 70.92 0 0 0
2017-03-01 04:37:15 4.56 100071 69.15 0 0 0
2017-03-01 04:31:29 4.64 100063 68.59 0 0 0
2017-03-01 04:25:43 4.76 100061 68.25 0 0 0
2017-03-01 04:19:57 4.97 100051 67.08 0 0 0
2017-03-01 04:14:11 5.27 100036 65.26 0 0 0
2017-03-01 04:08:25 5.48 100022 64.3 0 0 0
2017-03-01 04:02:40 5.54 100012 63.83 0 0 0
2017-03-01 03:56:54 5.63 100001 63.25 0 0 0
2017-03-01 03:51:08 5.64 99993.1 63.14 0 0 0
2017-03-01 03:45:22 5.63 99981.5 62.6 0 0 0
2017-03-01 03:39:37 5.53 99975.9 62.32 0 0 0
2017-03-01 03:33:51 5.33 99976.2 62.81 0 0 0
2017-03-01 03:28:05 5.28 99965.3 63.22 0 0 0
2017-03-01 03:22:19 5.51 99947.7 62.01 0 0 0
2017-03-01 03:16:34 5.51 99947.8 61.38 0 0 0
2017-03-01 03:10:48 5.62 99936.7 61.07 0 0 0
2017-03-01 03:05:02 5.8 99930.4 60.68 0 0 0
2017-03-01 02:59:16 5.95 99916.8 60.47 0 0 0
2017-03-01 02:53:30 6.02 99904.1 60.61 0 0 0
2017-03-01 02:47:45 6.06 99898.6 61.01 0 0 0
2017-03-01 02:41:59 6.16 99897.6 61.23 0 0 0
2017-03-01 02:36:13 6.24 99905.4 61.26 0 0 0
2017-03-01 02:30:28 6.26 99916.8 61.27 0 0 0
2017-03-01 02:24:42 6.21 99917.4 62.1 0 0 0
2017-03-01 02:18:56 6.25 99902.7 61.86 0 0 0
2017-03-01 02:13:10 6.32 99882.9 61.88 0 0 0
2017-03-01 02:07:25 6.42 99879.4 61.97 0 0 0
2017-03-01 02:01:39 6.46 99878 62.44 0 0 0
2017-03-01 01:55:53 6.53 99882.6 62.55 0 0 0
2017-03-01 01:50:07 6.61 99877.5 62.88 0 0 0
2017-03-01 01:44:22 6.66 99863.6 63.22 0 0 0
2017-03-01 01:38:36 6.73 99850.7 64.36 0 0 0
2017-03-01 01:32:50 6.74 99851.8 65.71 0 0 0
2017-03-01 01:27:05 6.82 99855.4 65.98 0 0 0
2017-03-01 01:21:19 6.77 99847.5 67.53 0 0 0
2017-03-01 01:15:33 6.82 99833.5 68.07 0 0 0
2017-03-01 01:09:47 6.78 99829 69.11 0 0 0
2017-03-01 01:04:02 6.84 99828.9 68.84 0 0 0
2017-03-01 00:58:16 6.98 99817.8 68.19 0 0 0
2017-03-01 00:52:30 7.04 99791.2 68.33 0 0 0
2017-03-01 00:46:44 7.13 99768.2 68.52 0 0 0
2017-03-01 00:40:59 7.1 99748.8 69.75 0 0 0
2017-03-01 00:35:13 7.15 99749.1 70.14 0 0 0
2017-03-01 00:29:27 7.19 99741.7 70.48 0 0 0
2017-03-01 00:23:41 7.29 99742.1 70.29 0 0 0
2017-03-01 00:17:56 7.38 99739.9 70.06 0 0 0
2017-03-01 00:12:10 7.4 99738.4 70.28 0 0 0
2017-03-01 00:06:24 7.46 99733.7 70.21 0 0 0
2017-03-01 00:00:38 7.45 99737.1 71.03 0 0 0
2017-02-28 23:54:52 7.5 99745.9 71.17 0 0 0
2017-02-28 23:49:07 7.46 99751.6 71.47 0 0 0
2017-02-28 23:43:21 7.53 99750.6 70.91 0 0 0
2017-02-28 23:37:35 7.67 99751 69.73 0 0 0
2017-02-28 23:31:49 7.78 99747.3 68.77 0 0 0
2017-02-28 23:26:04 7.81 99744 68.88 0 0 0
2017-02-28 23:20:18 7.71 99740.8 70.86 0 0 0
2017-02-28 23:14:32 7.67 99739.4 72.56 0 0 0
2017-02-28 23:08:46 7.75 99735.6 72.66 0 0 0
2017-02-28 23:03:00 7.88 99728.2 71.96 0 0 0
2017-02-28 22:57:15 7.95 99703.4 71.43 0 0 0
2017-02-28 22:51:29 7.95 99689.2 71.1 0 0 0
2017-02-28 22:45:43 7.9 99691.1 71.56 0 0 0
2017-02-28 22:39:57 7.82 99692.7 72.45 0 0 0
2017-02-28 22:34:12 7.77 99684.8 73 0 0 0
2017-02-28 22:28:26 7.85 99661.4 72.05 0 0 0
2017-02-28 22:22:40 7.83 99655.4 72.08 0 0 0
2017-02-28 22:16:55 7.86 99639.6 72.19 0 0 0
2017-02-28 22:11:09 7.91 99637.1 72.3 0 0 0
2017-02-28 22:05:23 8.02 99630 72.26 0 0 0
2017-02-28 21:59:37 8.1 99623.9 72.95 0 0 0
2017-02-28 21:53:52 8.19 99610 73.79 0 0 0
2017-02-28 21:48:06 8.27 99602.3 75.42 0 0 0
2017-02-28 21:42:20 8.22 99600.8 78.21 0 0 0
2017-02-28 21:36:34 8.19 99601.4 80.16 0 0 0
2017-02-28 21:30:48 8.27 99603.2 80.14 0 0 0
2017-02-28 21:25:03 8.34 99598.6 80.2 0 0 0
2017-02-28 21:19:17 8.37 99585.9 80.23 0 0 0
2017-02-28 21:13:31 8.4 99580.8 80.56 0 0 0
2017-02-28 21:07:45 8.51 99584.1 79.67 0 0 0
2017-02-28 21:02:00 8.56 99586 79.07 0 0 0
2017-02-28 20:56:14 8.59 99580.4 78.28 0 0 0
2017-02-28 20:50:28 8.6 99580.5 78.26 0 0 0
2017-02-28 20:44:42 8.67 99570.2 77.45 0 0 0
2017-02-28 20:38:57 8.73 99544 77.21 0 0 0
2017-02-28 20:33:11 8.71 99513.8 77.79 0 0 0
2017-02-28 20:27:25 8.78 99493.1 76.98 0 0 0
2017-02-28 20:21:39 8.9 99506.6 75.93 0 0 0
2017-02-28 20:15:54 9 99506.1 75.03 0 0 0
2017-02-28 20:10:08 9.13 99501.4 74.24 0 0 0
2017-02-28 20:04:22 9.19 99523.9 74.54 0 0 0
2017-02-28 19:58:36 9.25 99506.3 74.46 0 0 0
2017-02-28 19:52:50 9.34 99515.2 74.66 0 0 0
2017-02-28 19:47:05 9.4 99536.9 75.07 0 0 0
2017-02-28 19:41:19 9.33 99517.8 77.7 0 0 0
2017-02-28 19:35:33 9.36 99507.6 78.73 0 0 0
2017-02-28 19:29:47 9.4 99460.2 79.27 0 0 0
2017-02-28 19:24:02 9.51 99465.7 80.42 0 0 0
2017-02-28 19:18:16 9.61 99474.5 83.27 0 0 0
2017-02-28 19:12:30 9.64 99458 85.11 0 0 0
2017-02-28 19:06:44 9.51 99458.2 91.88 0 0 0
2017-02-28 19:00:59 9.47 99437.9 91.71 0 0 0
2017-02-28 18:55:13 9.44 99421.8 91.27 0 0 0
2017-02-28 18:49:27 9.34 99413 93.1 0 0 0
2017-02-28 18:43:41 9.31 99374 91.81 0 0 0
2017-02-28 18:37:55 9.37 99379.9 89.6 0 0 0
2017-02-28 18:32:09 9.41 99394.2 89.35 0.28 0 0
2017-02-28 18:26:24 9.46 99412.5 87.08 0 0 0
2017-02-28 18:20:38 9.48 99412.5 85.56 0 0 0
2017-02-28 18:14:52 9.46 99384.8 85.08 0 0 0
2017-02-28 18:09:06 9.4 99372.4 85.73 0 0 0
2017-02-28 18:03:21 9.42 99357.9 85.06 0 0 0
2017-02-28 17:57:35 9.39 99344.3 85.75 0 0 0
2017-02-28 17:51:49 9.35 99333.4 86.41 0 0 0
2017-02-28 17:46:03 9.24 99323.4 88.46 0 0 0
2017-02-28 17:40:18 9.11 99290.8 91.12 0 0 0
2017-02-28 17:34:32 8.93 99304.6 98.13 0 0 0
2017-02-28 17:28:46 9.04 99308.8 99.79 0 0 0
2017-02-28 17:23:00 9.5 99303.4 94.08 0 0 0
2017-02-28 17:17:15 11.09 99288.9 97.88 0.56 0 0
2017-02-28 17:11:29 11.85 99242.2 97.66 0 0 0
2017-02-28 17:05:43 11.9 99194 93.61 0 0 0
2017-02-28 16:59:57 11.99 99186.6 92.49 0 0 0
2017-02-28 16:54:11 12.03 99153.1 89.36 0 0 0
2017-02-28 16:48:25 12.07 99138.8 88.15 0 0 0
2017-02-28 16:42:40 12.26 99125.6 84.87 0 0 0
2017-02-28 16:36:54 12.3 99106.1 82.41 0 0 0
2017-02-28 16:31:08 12.39 99096 81.45 0 0 0
2017-02-28 16:25:22 12.33 99084.5 80.84 0 0 0
2017-02-28 16:19:36 12.41 99073.2 80.55 0 0 0
2017-02-28 16:13:50 12.33 99076.1 80.95 0 0 0
2017-02-28 16:08:04 12.23 99081.8 79.56 0 0 0
2017-02-28 16:02:17 12.23 99079.2 77.5 0 0 0
2017-02-28 15:56:31 12.19 99085.5 82.94 0 0 0
2017-02-28 15:50:44 12.24 99083.9 79.97 0 0 0
2017-02-28 15:44:58 12.4 99099.5 81.36 0 0 0
2017-02-28 15:39:12 12.41 99095.4 80.28 0 0 0
2017-02-28 15:33:26 12.34 99104.7 81.81 0 0 0
2017-02-28 15:27:40 12.27 99108.3 83.04 0 0 0
2017-02-28 15:21:54 12.22 99112.8 84.53 0 0 0
2017-02-28 15:16:09 12.22 99109.4 85.74 0 0 0
2017-02-28 15:10:23 12.18 99115.1 85.27 0 0 0
2017-02-28 15:04:37 12.12 99119.3 81.99 0 0 0
2017-02-28 14:58:51 12.1 99118 80.98 0 0 0
2017-02-28 14:53:05 12.03 99112.2 81.42 0 0 0
2017-02-28 14:47:19 12.2 99120.6 78.21 0 0 0
2017-02-28 14:41:33 12.32 99130.7 81.11 0 0 0
2017-02-28 14:35:47 12.29 99128.1 82.07 0 0 0
2017-02-28 14:30:02 12.26 99123.4 81.3 0 0 0
2017-02-28 14:24:16 12.25 99120.6 83.43 0 0 0
2017-02-28 14:18:30 12.28 99111.8 82.46 0 0 0
2017-02-28 14:12:44 12.34 99099.1 80.44 0 0 0
2017-02-28 14:06:58 12.43 99093.1 80.14 0 0 0
2017-02-28 14:01:13 12.46 99108.6 81.76 0 0 0
2017-02-28 13:55:27 12.38 99117 85.43 0 0 0
2017-02-28 13:49:41 12.31 99124.6 85.82 0 0 0
2017-02-28 13:43:55 12.33 99117.2 87.43 0 0 0
2017-02-28 13:38:09 12.31 99120.6 87 0 0 0
2017-02-28 13:32:23 12.48 99139.9 90.45 0 0 0
2017-02-28 13:26:37 12.52 99157 92.57 0 0 0
2017-02-28 13:20:52 12.61 99164.6 97.15 0 0 0
2017-02-28 13:15:06 12.53 99174.6 99.93 0 0 0
2017-02-28 13:09:20 12.56 99182.3 99.99 0 0 0
2017-02-28 13:03:34 12.72 99191.9 99.99 0 0 0
2017-02-28 12:57:48 12.69 99204.9 99.99 0 0 0
2017-02-28 12:52:02 12.65 99204 99.99 0 0 0
2017-02-28 12:46:17 12.5 99202.8 99.99 0 0 0
2017-02-28 12:40:31 12.7 99202.9 99.99 0 0 0
2017-02-28 12:34:45 12.7 99200 99.9 0 0 0
2017-02-28 12:28:59 12.64 99201.5 99.21 0 0 0
2017-02-28 12:23:13 12.69 99212 98.98 0 0 0
2017-02-28 12:17:27 12.57 99216.8 95.56 0 0 0
2017-02-28 12:11:41 12.57 99217.5 95.44 0 0 0
2017-02-28 12:05:56 12.6 99207.5 95.05 0 0 0
2017-02-28 11:54:24 12.62 99217.3 96.28 0 0 0
2017-02-28 11:48:38 12.57 99210.6 98.24 0 0 0
2017-02-28 11:42:52 12.49 99217.1 97.07 0 0 0
2017-02-28 11:37:07 12.42 99212.6 99.99 0 0 0
2017-02-28 11:31:21 12.27 99223.2 99.99 0 0 0
2017-02-28 11:25:35 12.14 99242.9 99.99 0 0 0
2017-02-28 11:19:49 12.02 99257.4 99.99 0 0 0
2017-02-28 11:14:03 11.92 99257.6 99.99 0 0 0
2017-02-28 11:08:17 11.87 99260 99.99 0 0 0
2017-02-28 11:02:32 11.84 99264.1 99.99 0 0 0
2017-02-28 10:56:46 11.78 99259.1 99.99 0 0 0
2017-02-28 10:51:00 11.76 99259.6 99.99 0 0 0
2017-02-28 10:45:14 11.72 99259.2 99.99 0 0 0
2017-02-28 10:39:28 11.66 99267.6 99.99 0 0 0
2017-02-28 10:33:43 11.64 99265.6 99.99 0 0 0
2017-02-28 10:27:57 11.61 99264.4 99.99 0 0 0
2017-02-28 10:22:11 11.57 99258.9 99.99 0 0 0
2017-02-28 10:16:25 11.58 99258.1 99.99 0 0 0
2017-02-28 10:10:39 11.6 99251.7 99.99 0 0 0
2017-02-28 10:04:53 11.61 99261.7 99.99 0 0 0
2017-02-28 09:59:07 11.52 99268.5 99.99 0 0 0
2017-02-28 09:53:22 11.44 99262 99.99 0 0 0
2017-02-28 09:47:36 11.38 99270.7 99.99 0 0 0
2017-02-28 09:41:50 11.33 99278.2 99.99 0 0 0
2017-02-28 09:36:04 11.27 99273.5 99.99 0 0 0
2017-02-28 09:30:18 11.22 99269 99.99 0 0 0
2017-02-28 09:24:32 11.18 99263 99.99 0 0 0
2017-02-28 09:18:46 11.15 99261.5 99.99 0 0 0
2017-02-28 09:13:00 11.12 99268.8 99.99 0 0 0
2017-02-28 09:07:15 11.05 99272.8 99.99 0 0 0
2017-02-28 09:01:29 10.93 99279.9 99.99 0 0 0
2017-02-28 08:55:43 10.8 99284.6 99.99 0 0 0
2017-02-28 08:49:57 10.72 99279.6 99.99 0 0 0
2017-02-28 08:44:11 10.59 99283.2 99.99 0 0 0
2017-02-28 08:38:25 10.51 99284.2 99.99 0 0 0
2017-02-28 08:32:40 10.55 99276.7 99.99 0 0 0
2017-02-28 08:26:54 10.43 99261.7 99.99 0 0 0
2017-02-28 08:21:08 10.31 99254.9 99.99 0 0 0
2017-02-28 08:15:22 10.27 99247.4 99.99 0 0 0
2017-02-28 08:09:36 10.24 99236 99.99 0 0 0
2017-02-28 08:03:50 10.13 99230.9 99.99 0 0 0
2017-02-28 07:58:05 10.01 99236.4 99.99 0 0 0
2017-02-28 07:52:19 9.89 99236.3 99.99 0 0 0
2017-02-28 07:46:33 9.85 99245.4 99.99 0 0 0
2017-02-28 07:40:47 9.88 99248.6 99.99 0 0 0
2017-02-28 07:35:01 9.94 99254.1 99.99 0 0 0
2017-02-28 07:29:16 10.03 99253.4 99.99 0 0 0
2017-02-28 07:23:30 10.2 99246.2 99.99 0 0 0
2017-02-28 07:17:44 10.35 99256.1 99.99 0 0 0
2017-02-28 07:11:58 10.38 99257.9 99.99 0 0 0
2017-02-28 07:06:12 10.46 99256.6 99.99 0 0 0
2017-02-28 06:54:40 10.53 99262.6 99.99 0 0 0
2017-02-28 06:48:55 10.58 99267.1 99.99 0 0 0
2017-02-28 06:43:09 10.66 99269 99.99 0 0 0
2017-02-28 06:37:23 10.77 99270.3 99.99 0 0 0
2017-02-28 06:31:37 10.8 99276.1 99.99 0 0 0
2017-02-28 06:25:51 10.88 99280.2 99.99 0 0 0
2017-02-28 06:20:05 11.01 99283.4 99.99 0 0 0
2017-02-28 06:14:19 11.09 99288.1 99.99 6.43 0 0
2017-02-28 06:08:33 11.1 99292 99.99 0.84 0 0
2017-02-28 06:02:47 11.11 99295.6 99.99 35.2 0 0
2017-02-28 05:57:01 11.11 99299.1 99.99 39.95 0 0
2017-02-28 05:51:16 11.11 99294.7 99.99 0 0 0
2017-02-28 05:45:30 11.12 99289.3 99.99 0 0 0
2017-02-28 05:39:44 11.14 99290.8 99.99 0 0 0
2017-02-28 05:33:58 11.19 99293.6 99.99 0 0 0
2017-02-28 05:28:12 11.24 99300 99.99 0 0 0
2017-02-28 05:22:27 11.26 99303.6 99.99 0 0 0
2017-02-28 05:16:41 11.33 99296.4 99.99 0 0 0
2017-02-28 05:10:55 11.38 99291.1 99.99 0 0 0
2017-02-28 05:05:09 11.5 99286.6 99.99 0 0 0
2017-02-28 04:59:23 11.67 99291.6 99.99 0 0 0
2017-02-28 04:53:37 11.84 99293.6 99.99 0.28 0 0
2017-02-28 04:47:52 12.01 99290.9 99.99 0.28 0 0
2017-02-28 04:42:06 12.19 99289 99.99 0.28 0 0
2017-02-28 04:36:20 12.28 99286.4 99.99 0.28 0 0
2017-02-28 04:30:34 12.34 99286.6 99.99 0 0 0
2017-02-28 04:24:48 12.37 99287.7 99.99 0 0 0
2017-02-28 04:19:03 12.35 99289.1 99.99 0 0 0
2017-02-28 04:13:17 12.31 99284.9 99.99 0 0 0
2017-02-28 04:07:31 12.3 99284.9 99.99 0 0 0
2017-02-28 04:01:45 12.25 99287.8 99.99 0 0 0
2017-02-28 03:55:59 12.22 99284.2 99.99 0 0 0
2017-02-28 03:50:13 12.22 99280.9 99.99 0 0 0
2017-02-28 03:44:28 12.28 99290.9 99.99 0 0 0
2017-02-28 03:38:42 12.31 99311.8 99.99 0 0 0
2017-02-28 03:32:56 12.35 99320.4 99.99 0 0 0
2017-02-28 03:27:10 12.38 99324.5 99.99 0 0 0
2017-02-28 03:21:24 12.39 99338.4 99.99 0 0 0
2017-02-28 03:15:38 12.43 99351.7 99.99 0 0 0
2017-02-28 03:09:53 12.45 99357.3 99.99 0 0 0
2017-02-28 03:04:07 12.49 99363.2 99.99 0 0 0
2017-02-28 02:58:21 12.52 99368.5 99.99 0 0 0
2017-02-28 02:52:35 12.64 99376.3 99.99 0 0 0
2017-02-28 02:46:49 12.68 99389.9 99.99 0 0 0
2017-02-28 02:41:03 12.66 99393 99.99 0 0 0
2017-02-28 02:35:18 12.64 99403.1 99.99 0 0 0
2017-02-28 02:29:32 12.63 99410.2 99.99 0 0 0
2017-02-28 02:23:46 12.64 99422.1 99.99 0 0 0
2017-02-28 02:18:00 12.69 99434.2 99.99 0 0 0
2017-02-28 02:12:14 12.74 99441.2 99.99 0 0 0
2017-02-28 02:06:29 12.77 99436.1 99.99 0 0 0
2017-02-28 02:00:43 12.79 99450.3 99.99 0 0 0
2017-02-28 01:54:57 12.81 99458 99.99 0 0 0
2017-02-28 01:49:11 12.8 99456.3 99.55 0 0 0
2017-02-28 01:43:25 12.83 99460.1 97.21 0 0 0
2017-02-28 01:37:40 12.81 99471.6 99.18 0 0 0
2017-02-28 01:31:54 12.83 99481.6 99.99 0 0 0
2017-02-28 01:26:08 12.71 99481.8 99.99 0 0 0
2017-02-28 01:20:22 12.66 99484.8 99.99 0 0 0
2017-02-28 01:14:36 12.68 99494.3 99.99 0 0 0
2017-02-28 01:08:50 12.63 99499.7 99.99 0 0 0
2017-02-28 01:03:04 12.67 99501.7 99.99 0 0 0
2017-02-28 00:57:19 12.69 99514.3 99.99 0 0 0
2017-02-28 00:51:33 12.64 99514.5 99.99 0 0 0
2017-02-28 00:45:47 12.58 99510 99.99 0 0 0
2017-02-28 00:40:01 12.51 99520.7 99.99 0 0 0
2017-02-28 00:34:15 12.45 99538.8 99.99 0 0 0
2017-02-28 00:28:30 12.45 99552.6 99.99 0 0 0
2017-02-28 00:22:44 12.4 99560 99.99 0 0 0
2017-02-28 00:16:58 12.31 99574.9 99.99 0 0 0
2017-02-28 00:11:12 12.31 99587.6 99.99 0 0 0
2017-02-28 00:05:26 12.27 99587.9 99.99 0 0 0
2017-02-27 23:59:40 12.28 99601 99.99 0 0 0
2017-02-27 23:53:54 12.32 99608.5 99.99 0 0 0
2017-02-27 23:48:09 12.24 99625.9 99.99 0 0 0
2017-02-27 23:42:23 12.22 99640.7 99.99 0 0 0
2017-02-27 23:36:37 12.27 99649.1 99.99 0 0 0
2017-02-27 23:30:51 12.35 99651.4 99.99 0 0 0
2017-02-27 23:25:05 12.38 99654.3 99.99 0 0 0
2017-02-27 23:19:19 12.45 99654.7 99.99 0 0 0
2017-02-27 23:13:34 12.44 99659.9 99.99 0 0 0
2017-02-27 23:07:48 12.39 99661.3 99.99 0 0 0
2017-02-27 23:02:02 12.27 99661.9 99.99 0 0 0
2017-02-27 22:56:16 12.3 99665.5 99.99 0 0 0
2017-02-27 22:50:30 12.3 99666.4 99.99 0 0 0
2017-02-27 22:44:44 12.34 99672 99.99 0 0 0
2017-02-27 22:38:58 12.28 99678.3 99.99 0 0 0
2017-02-27 22:33:13 12.28 99686.6 99.99 0 0 0
2017-02-27 22:27:27 12.27 99688.4 99.99 0 0 0
2017-02-27 22:21:41 12.3 99682.5 99.99 0.28 0 0
2017-02-27 22:15:55 12.12 99688.6 99.99 0 0 0
2017-02-27 22:10:09 12.05 99684 99.99 0 0 0
2017-02-27 22:04:23 12.08 99693.4 99.99 0 0 0
2017-02-27 21:58:38 12.06 99699.1 99.99 0 0 0
2017-02-27 21:52:52 12.06 99696.4 99.99 0 0 0
2017-02-27 21:47:06 12.11 99698.5 99.99 0 0 0
2017-02-27 21:41:20 12.11 99711.8 99.99 0 0 0
2017-02-27 21:35:34 12.12 99721.8 99.99 0.28 0 0
2017-02-27 21:29:49 12.05 99726.6 99.99 0 0 0
2017-02-27 21:24:03 12.01 99729.5 99.99 0 0 0
2017-02-27 21:18:17 12.07 99726.7 99.99 0 0 0
2017-02-27 21:12:31 12.06 99731.7 99.99 0 0 0
2017-02-27 21:06:45 12.02 99731 99.99 0 0 0
2017-02-27 21:00:59 12.02 99728.4 99.99 0 0 0
2017-02-27 20:55:14 12.04 99736.1 99.99 0 0 0
2017-02-27 20:49:28 11.98 99740 99.99 0 0 0
2017-02-27 20:43:42 11.99 99742.9 99.99 0 0 0
2017-02-27 20:37:56 11.95 99752.1 99.99 0.28 0 0
2017-02-27 20:32:10 11.89 99755 99.99 0 0 0
2017-02-27 20:26:24 11.91 99750.8 99.99 0 0 0
2017-02-27 20:20:39 11.93 99757.2 99.99 0 0 0
2017-02-27 20:14:53 11.9 99768.9 99.99 0 0 0
2017-02-27 20:09:07 11.91 99772.8 99.99 0 0 0
2017-02-27 20:03:21 11.9 99780.2 99.99 0 0 0
2017-02-27 19:57:35 11.8 99787 99.99 0 0 0
2017-02-27 19:51:49 11.76 99790.6 99.99 0 0 0
2017-02-27 19:46:04 11.69 99790.3 99.99 0 0 0
2017-02-27 19:40:18 11.68 99787.7 99.99 0.28 0 0
2017-02-27 19:34:32 11.77 99793.6 99.99 0 0 0
2017-02-27 19:28:46 11.62 99784.6 99.99 0 0 0
2017-02-27 19:23:00 11.45 99782.6 99.99 0 0 0
2017-02-27 19:17:14 11.43 99775.3 99.99 0 0 0
2017-02-27 19:11:29 11.37 99763.6 99.99 0 0 0
2017-02-27 19:05:43 11.34 99761.3 99.99 0 0 0
2017-02-27 18:59:57 11.37 99770.6 99.99 0 0 0
2017-02-27 18:54:11 11.35 99768.2 99.99 0 0 0
2017-02-27 18:48:25 11.36 99774.4 99.99 0 0 0
2017-02-27 18:42:39 11.39 99778.1 99.99 0.28 0 0
2017-02-27 18:36:54 11.36 99785 99.99 0 0 0
2017-02-27 18:31:08 11.32 99790.8 99.99 0 0 0
2017-02-27 18:25:22 11.27 99794.4 99.99 0 0 0
2017-02-27 18:19:36 11.25 99797.6 99.99 0 0 0
2017-02-27 18:13:50 11.23 99795.4 99.99 0 0 0
2017-02-27 18:08:04 11.22 99799.2 99.99 0 0 0
2017-02-27 18:02:19 11.17 99799.7 99.99 0 0 0
2017-02-27 17:56:33 11.11 99808.9 99.99 0 0 0
2017-02-27 17:50:47 11.07 99806.3 99.99 0 0 0
2017-02-27 17:45:01 11.07 99812.6 99.99 0 0 0
2017-02-27 17:39:15 11.11 99829.1 99.99 0 0 0
2017-02-27 17:33:30 11.26 99835.1 99.99 0.28 0 0
2017-02-27 17:27:44 11.47 99837.9 99.99 0 0 0
2017-02-27 17:21:58 11.71 99845.3 99.99 0 0 0
2017-02-27 17:16:12 11.82 99851.9 99.99 0 0 0
2017-02-27 17:10:26 11.86 99856.9 99.99 0 0 0
2017-02-27 17:04:41 11.94 99863.7 99.99 0 0 0
2017-02-27 16:58:55 12 99857.2 99.99 0 0 0
2017-02-27 16:53:09 12.08 99867.7 99 0 0 0
2017-02-27 16:47:23 12.18 99876.9 95.1 0 0 0
2017-02-27 16:41:37 12.3 99873.1 92.1 0 0 0
2017-02-27 16:35:51 12.43 99874.9 88.58 0 0 0
2017-02-27 16:30:06 12.45 99880.7 87.99 0 0 0
2017-02-27 16:24:20 12.49 99884.8 87.03 0 0 0
2017-02-27 16:18:34 12.52 99884 84.84 0 0 0
2017-02-27 16:12:48 12.56 99888.5 84.62 0 0 0
2017-02-27 16:07:02 12.58 99892 83.81 0 0 0
2017-02-27 16:01:16 12.6 99891.3 83.89 0 0 0
2017-02-27 15:55:30 12.62 99896.8 84.98 0 0 0
2017-02-27 15:49:44 12.63 99897.4 85.62 0 0 0
2017-02-27 15:43:58 12.63 99899.8 86.14 0 0 0
2017-02-27 15:38:13 12.64 99908.4 86.67 0 0 0
2017-02-27 15:32:26 12.63 99914.2 87.35 0 0 0
2017-02-27 15:26:41 12.59 99914.5 89.49 0 0 0
2017-02-27 15:20:55 12.54 99924.4 95.73 0 0 0
2017-02-27 15:15:09 12.51 99931.5 99.69 0 0 0
2017-02-27 15:09:23 12.54 99933.1 99.86 0 0 0
2017-02-27 15:03:37 12.52 99937.5 99.99 0 0 0
2017-02-27 14:57:51 12.51 99947.9 99.99 0 0 0
2017-02-27 14:48:22 12.39 99959 99.99 0 0 0
2017-02-27 14:42:36 12.28 99956 99.99 0 0 0
2017-02-27 14:36:50 12.01 99966.2 99.99 0 0 0
2017-02-27 14:31:04 11.81 99970.1 99.99 0 0 0
2017-02-27 14:25:19 11.74 99979.1 99.99 0 0 0
2017-02-27 14:19:33 11.83 99982.5 99.99 0 0 0
2017-02-27 14:13:47 11.95 99981.1 99.99 0 0 0
2017-02-27 14:08:01 12.02 99991.7 99.99 0 0 0
2017-02-27 14:02:15 12.18 99997.5 99.99 0 0 0
2017-02-27 13:56:30 12.29 99990.9 99.49 0 0 0
2017-02-27 13:50:44 12.29 100004 99.37 0 0 0
2017-02-27 13:44:58 12.28 100022 99.99 0 0 0
2017-02-27 13:39:12 12.27 100024 99.9 0 0 0
2017-02-27 13:33:26 12.3 100019 99.64 0 0 0
2017-02-27 13:27:40 12.33 100029 95.37 0 0 0
2017-02-27 13:21:54 12.49 100037 90.64 0 0 0
2017-02-27 13:16:08 12.63 100039 87.62 0 0 0
2017-02-27 13:10:22 12.66 100039 86.57 0 0 0
2017-02-27 13:04:37 12.71 100051 84.77 0 0 0
2017-02-27 12:58:51 12.86 100075 83.52 0 0 0
2017-02-27 12:53:05 12.87 100075 83.16 0 0 0
2017-02-27 12:47:19 12.85 100088 83.38 0 0 0
2017-02-27 12:41:33 12.78 100109 84.24 0 0 0
2017-02-27 12:35:47 12.76 100120 83.22 0 0 0
2017-02-27 12:30:01 12.81 100124 82.91 0 0 0
2017-02-27 12:24:15 12.85 100129 80.98 0 0 0
2017-02-27 12:18:29 12.94 100132 79.42 0 0 0
2017-02-27 12:12:44 12.92 100139 79.43 0 0 0
2017-02-27 12:06:58 12.81 100151 80.99 0 0 0
2017-02-27 12:01:12 12.76 100153 83.21 0 0 0
2017-02-27 11:55:26 12.68 100151 83.61 0 0 0
2017-02-27 11:49:40 12.53 100161 85.81 0 0 0
2017-02-27 11:43:54 12.47 100169 85.6 0 0 0
2017-02-27 11:38:08 12.4 100175 86.94 0 0 0
2017-02-27 11:32:23 12.34 100183 87.76 0 0 0
2017-02-27 11:26:37 12.32 100186 87.67 0 0 0
2017-02-27 11:20:51 12.32 100182 87.42 0 0 0
2017-02-27 11:15:05 12.42 100174 86.24 0 0 0
2017-02-27 11:09:19 12.48 100169 86.04 0 0 0
2017-02-27 11:03:33 12.58 100170 86.06 0 0 0
2017-02-27 10:57:47 12.52 100169 86.86 0 0 0
2017-02-27 10:52:01 12.37 100170 88.68 0 0 0
2017-02-27 10:46:15 12.22 100170 89.36 0 0 0
2017-02-27 10:40:29 12.19 100172 87.88 0 0 0
2017-02-27 10:34:44 12.16 100167 87.13 0 0 0
2017-02-27 10:28:58 12.04 100178 87.63 0 0 0
2017-02-27 10:23:12 11.95 100178 87.78 0 0 0
2017-02-27 10:17:26 11.88 100176 88.77 0 0 0
2017-02-27 10:11:40 11.81 100185 89.01 0 0 0
2017-02-27 10:05:54 11.76 100187 89.26 0 0 0
2017-02-27 09:54:22 11.66 100175 91.11 0 0 0
2017-02-27 09:48:37 11.61 100168 91.77 0 0 0
2017-02-27 09:42:51 11.53 100166 91.88 0 0 0
2017-02-27 09:37:05 11.5 100163 91.3 0 0 0
2017-02-27 09:31:19 11.49 100170 91.28 0 0 0
2017-02-27 09:25:33 11.45 100170 91.1 0 0 0
2017-02-27 09:19:47 11.39 100177 91.97 0 0 0
2017-02-27 09:14:01 11.38 100169 91.87 0 0 0
2017-02-27 09:08:16 11.38 100153 91.66 0 0 0
2017-02-27 09:02:30 11.29 100161 94.28 0 0 0
2017-02-27 08:56:44 11.2 100155 96.1 0 0 0
2017-02-27 08:50:58 11.07 100153 99.68 0 0 0
2017-02-27 08:45:12 10.98 100156 99.99 0 0 0
2017-02-27 08:39:26 10.89 100160 99.99 0 0 0
2017-02-27 08:33:40 10.78 100164 99.99 0 0 0
2017-02-27 08:27:54 10.61 100162 99.99 0 0 0
2017-02-27 08:22:08 10.44 100156 99.99 0 0 0
2017-02-27 08:16:22 10.34 100161 99.99 0 0 0
2017-02-27 08:10:36 10.22 100159 99.99 0 0 0
2017-02-27 08:04:50 10.19 100163 99.99 0 0 0
2017-02-27 07:59:05 10.18 100159 99.99 0 0 0
2017-02-27 07:53:19 10.15 100165 99.99 0 0 0
2017-02-27 07:47:33 10.19 100167 99.99 0 0 0
2017-02-27 07:41:47 10.2 100164 99.99 0 0 0
2017-02-27 07:36:01 10.08 100158 99.99 0 0 0
2017-02-27 07:30:15 9.95 100164 99.99 0 0 0
2017-02-27 07:24:29 9.93 100170 99.99 0 0 0
2017-02-27 07:18:44 9.79 100166 99.99 0 0 0
2017-02-27 07:12:58 9.63 100166 99.99 0 0 0
2017-02-27 07:07:12 9.49 100168 99.99 0 0 0
2017-02-27 07:01:26 9.36 100167 99.99 0 0 0
2017-02-27 06:55:40 9.08 100157 99.99 0 0 0
2017-02-27 06:49:54 8.64 100157 99.99 0 0 0
2017-02-27 06:44:09 8.57 100154 99.99 0 0 0
2017-02-27 06:38:23 8.64 100160 99.99 0 0 0
2017-02-27 06:32:37 8.69 100156 99.99 0 0 0
2017-02-27 06:26:51 8.37 100163 99.99 0 0 0
2017-02-27 06:21:05 7.95 100163 99.99 0 0 0
2017-02-27 06:15:20 7.9 100166 99.99 0 0 0
2017-02-27 06:09:34 7.59 100165 99.99 0 0 0
2017-02-27 06:03:48 7.37 100169 99.99 0 0 0
2017-02-27 05:58:02 7.28 100164 99.99 0 0 0
2017-02-27 05:52:16 7.21 100164 99.99 0 0 0
2017-02-27 05:46:31 7.02 100170 99.99 0 0 0
2017-02-27 05:40:45 6.96 100161 99.99 0 0 0
2017-02-27 05:34:59 6.96 100166 99.99 0 0 0
2017-02-27 05:29:13 6.91 100166 99.99 0 0 0
2017-02-27 05:23:27 6.88 100158 99.99 0 0 0
2017-02-27 05:17:41 6.85 100163 99.99 0 0 0
2017-02-27 05:11:56 6.81 100168 99.99 0 0 0
2017-02-27 05:06:10 6.91 100172 99.99 0 0 0
2017-02-27 04:54:38 7.1 100179 99.99 0 0 0
2017-02-27 04:48:53 7.03 100177 99.99 0 0 0
2017-02-27 04:43:07 6.91 100177 99.99 0 0 0
2017-02-27 04:37:21 6.98 100180 99.99 0 0 0
2017-02-27 04:31:35 7.04 100184 99.99 0 0 0
2017-02-27 04:25:49 6.9 100187 99.99 0 0 0
2017-02-27 04:20:03 6.82 100192 99.99 0 0 0
2017-02-27 04:14:18 6.81 100190 99.99 0 0 0
2017-02-27 04:08:32 6.73 100193 99.99 0 0 0
2017-02-27 04:02:46 6.64 100196 99.99 0 0 0
2017-02-27 03:57:00 6.57 100201 99.99 0 0 0
2017-02-27 03:51:14 6.51 100201 99.99 0 0 0
2017-02-27 03:45:29 6.43 100205 99.99 0 0 0
2017-02-27 03:39:43 6.34 100214 99.99 0 0 0
2017-02-27 03:33:57 6.28 100221 99.99 0 0 0
2017-02-27 03:28:11 6.29 100227 99.99 0 0 0
2017-02-27 03:22:25 6.26 100233 99.99 0 0 0
2017-02-27 03:16:40 6.26 100236 99.99 0 0 0
2017-02-27 03:10:54 6.22 100238 99.99 0 0 0
2017-02-27 03:05:08 6.19 100244 99.99 0 0 0
2017-02-27 02:59:22 6.21 100250 99.99 0 0 0
2017-02-27 02:53:36 6.28 100260 99.99 0 0 0
2017-02-27 02:47:50 6.37 100267 99.99 0 0 0
2017-02-27 02:42:05 6.44 100271 99.99 0 0 0
2017-02-27 02:36:19 6.54 100276 99.99 0 0 0
2017-02-27 02:30:33 6.61 100280 99.99 0 0 0
2017-02-27 02:24:47 6.68 100282 99.99 0 0 0
2017-02-27 02:19:01 6.78 100277 99.99 0 0 0
2017-02-27 02:13:15 6.86 100276 99.99 0 0 0
2017-02-27 02:07:30 6.95 100275 99.99 0 0 0
2017-02-27 02:01:44 7.1 100275 99.99 0 0 0
2017-02-27 01:55:58 7.11 100274 99.99 0 0 0
2017-02-27 01:50:12 7.02 100280 99.99 0 0 0
2017-02-27 01:44:27 6.97 100288 99.99 0 0 0
2017-02-27 01:38:41 7.09 100292 99.99 0 0 0
2017-02-27 01:32:55 7.05 100291 99.99 0 0 0
2017-02-27 01:27:09 7.07 100292 99.99 0 0 0
2017-02-27 01:21:23 7.06 100294 99.99 0 0 0
2017-02-27 01:15:37 7.05 100294 99.99 0 0 0
2017-02-27 01:09:52 7.09 100300 99.99 0 0 0
2017-02-27 01:04:06 7.14 100299 99.99 0 0 0
2017-02-27 00:58:20 7.16 100300 99.99 0 0 0
2017-02-27 00:52:34 7.16 100298 99.99 0 0 0
2017-02-27 00:46:48 7.16 100298 99.99 0 0 0
2017-02-27 00:41:03 7.09 100299 99.99 0 0 0
2017-02-27 00:35:17 7.04 100299 99.99 0 0 0
2017-02-27 00:29:31 6.93 100303 99.99 0 0 0
2017-02-27 00:23:45 6.88 100308 99.99 0 0 0
2017-02-27 00:17:59 6.8 100313 99.99 0 0 0
2017-02-27 00:12:13 6.77 100321 99.99 0 0 0
2017-02-27 00:06:28 6.82 100322 99.99 0 0 0
2017-02-27 00:00:42 6.86 100328 99.99 0 0 0
2017-02-26 23:54:56 6.83 100335 99.99 0 0 0
2017-02-26 23:49:10 6.79 100339 99.99 0 0 0
2017-02-26 23:43:24 6.76 100334 99.99 0 0 0
2017-02-26 23:37:39 6.76 100334 99.99 0 0 0
2017-02-26 23:31:53 6.75 100339 99.99 0 0 0
2017-02-26 23:26:07 6.71 100342 99.99 0 0 0
2017-02-26 23:20:21 6.72 100345 99.99 0 0 0
2017-02-26 23:14:35 6.71 100348 99.99 0 0 0
2017-02-26 23:08:50 6.68 100354 99.99 0 0 0
2017-02-26 23:03:04 6.59 100361 99.99 0 0 0
2017-02-26 22:57:18 6.55 100356 99.99 0 0 0
2017-02-26 22:51:32 6.63 100358 99.99 0 0 0
2017-02-26 22:45:46 6.81 100366 99.99 0 0 0
2017-02-26 22:40:01 6.84 100377 99.99 0 0 0
2017-02-26 22:34:15 6.83 100381 99.99 0 0 0
2017-02-26 22:28:29 6.85 100377 99.99 0 0 0
2017-02-26 22:22:43 6.88 100377 99.99 0 0 0
2017-02-26 22:16:57 6.96 100386 99.99 0 0 0
2017-02-26 22:11:11 6.95 100380 99.99 0 0 0
2017-02-26 22:05:25 6.91 100381 99.99 0 0 0
2017-02-26 21:59:40 6.9 100386 99.99 0 0 0
2017-02-26 21:53:54 6.95 100385 99.99 0 0 0
2017-02-26 21:48:08 7 100381 99.99 0 0 0
2017-02-26 21:42:22 7.1 100374 99.9 0 0 0
2017-02-26 21:36:36 7.34 100373 96.78 0 0 0
2017-02-26 21:30:51 7.45 100373 96.33 0 0 0
2017-02-26 21:25:05 7.43 100366 97.73 0 0 0
2017-02-26 21:19:19 7.42 100364 99.3 0 0 0
2017-02-26 21:13:33 7.44 100367 99.99 0 0 0
2017-02-26 21:07:47 7.53 100373 99.25 0 0 0
2017-02-26 21:02:01 7.71 100370 97.93 0 0 0
2017-02-26 20:56:15 7.77 100365 99.78 0 0 0
2017-02-26 20:50:30 7.72 100363 99.92 0 0 0
2017-02-26 20:44:44 7.72 100359 99.49 0 0 0
2017-02-26 20:38:58 7.79 100360 98.59 0 0 0
2017-02-26 20:33:12 7.86 100357 97.54 0 0 0
2017-02-26 20:27:27 8.04 100354 96.36 0 0 0
2017-02-26 20:21:41 8.25 100355 95.93 0 0 0
2017-02-26 20:15:55 8.29 100354 96.2 0 0 0
2017-02-26 20:10:09 8.37 100355 94.83 0 0 0
2017-02-26 20:04:23 8.57 100357 92.55 0 0 0
2017-02-26 19:58:37 8.82 100353 90.32 0 0 0
2017-02-26 19:52:52 9.07 100349 88.4 0 0 0
2017-02-26 19:47:06 9.17 100352 87.63 0 0 0
2017-02-26 19:41:20 9.12 100351 87.76 0 0 0
2017-02-26 19:35:34 9.22 100347 85.8 0 0 0
2017-02-26 19:29:48 9.57 100347 83.37 0 0 0
2017-02-26 19:24:02 9.85 100345 82.17 0 0 0
2017-02-26 19:18:17 10.14 100349 80.24 0 0 0
2017-02-26 19:12:31 10.57 100352 80.38 0 0 0
2017-02-26 19:06:45 10.77 100354 80.28 0 0 0
2017-02-26 19:00:59 11.02 100347 77.86 0 0 0
2017-02-26 18:55:13 11.14 100341 76.8 0 0 0
2017-02-26 18:49:27 11.23 100335 75.23 0 0 0
2017-02-26 18:43:41 11.35 100319 72.94 0 0 0
2017-02-26 18:37:56 11.51 100304 70.86 0 0 0
2017-02-26 18:32:10 11.63 100296 69.73 0 0 0
2017-02-26 18:26:24 11.73 100297 68.49 0 0 0
2017-02-26 18:20:38 11.82 100293 67.17 0 0 0
2017-02-26 18:14:52 12.01 100286 65.99 0 0 0
2017-02-26 18:09:06 12.25 100279 65.12 0 0 0
2017-02-26 18:03:20 12.51 100277 64.06 0 0 0
2017-02-26 17:57:34 12.7 100270 63.35 0 0 0
2017-02-26 17:51:49 12.63 100264 64.38 0 0 0
2017-02-26 17:46:03 12.6 100262 64.22 0 0 0
2017-02-26 17:40:17 12.77 100263 63.39 0 0 0
2017-02-26 17:34:31 13.13 100267 61.31 0 0 0
2017-02-26 17:28:45 13.24 100264 59.8 0 0 0
2017-02-26 17:22:59 13.11 100265 58.94 0 0 0
2017-02-26 17:17:13 13.16 100273 59.25 0 0 0
2017-02-26 17:11:27 13.17 100283 59.87 0 0 0
2017-02-26 17:05:41 13.22 100284 58.9 0 0 0
2017-02-26 16:59:56 13.09 100290 59.53 0 0 0
2017-02-26 16:54:10 13.27 100295 60.6 0 0 0
2017-02-26 16:48:24 13.56 100301 58.18 0 0 0
2017-02-26 16:42:38 13.41 100310 57.61 0 0 0
2017-02-26 16:36:52 13.39 100321 57.16 0 0 0
2017-02-26 16:31:06 13.12 100329 57.54 0 0 0
2017-02-26 16:25:20 13.25 100335 57.26 0 0 0
2017-02-26 16:19:34 13.45 100342 55.55 0 0 0
2017-02-26 16:13:48 13.36 100343 55.67 0 0 0
2017-02-26 16:08:02 13.27 100345 54.84 0 0 0
2017-02-26 16:02:16 13.25 100345 53.61 0 0 0
2017-02-26 15:56:31 13.41 100349 52.44 0 0 0
2017-02-26 15:50:45 13.42 100350 50.8 0 0 0
2017-02-26 15:44:59 13.66 100344 48.43 0 0 0
2017-02-26 15:39:13 13.51 100339 46.94 0 0 0
2017-02-26 15:33:27 13.97 100337 46.23 0 0 0
2017-02-26 15:27:41 13.82 100339 46.86 0 0 0
2017-02-26 15:21:55 13.73 100342 46.22 0 0 0
2017-02-26 15:16:09 14 100347 44.39 0 0 0
2017-02-26 15:10:23 13.87 100355 46.5 0 0 0
2017-02-26 15:04:38 13.65 100358 46.75 0 0 0
2017-02-26 14:58:52 13.82 100362 44.42 0 0 0
2017-02-26 14:53:06 13.79 100369 46.7 0 0 0
2017-02-26 14:47:20 13.6 100380 47.77 0 0 0
2017-02-26 14:41:34 13.52 100391 47.28 0 0 0
2017-02-26 14:35:48 13.24 100404 51.26 0 0 0
2017-02-26 14:30:02 13.39 100415 50.27 0 0 0
2017-02-26 14:24:16 13.36 100429 51.09 0 0 0
2017-02-26 14:18:30 13.13 100441 52.67 0 0 0
2017-02-26 14:12:44 13.06 100452 53.05 0 0 0
2017-02-26 14:06:59 13.22 100464 51.42 0 0 0
2017-02-26 14:01:13 13.14 100462 51.49 0 0 0
2017-02-26 13:55:27 12.99 100460 52.21 0 0 0
2017-02-26 13:49:41 13.75 100470 50.94 0 0 0
2017-02-26 13:43:55 13.6 100482 50.08 0 0 0
2017-02-26 13:38:09 13.57 100491 51 0 0 0
2017-02-26 13:32:23 13.16 100497 51.48 0 0 0
2017-02-26 13:26:37 13.36 100510 50.76 0 0 0
2017-02-26 13:20:51 13.18 100523 51.84 0 0 0
2017-02-26 13:15:06 13.3 100534 52.18 0 0 0
2017-02-26 13:09:20 13.05 100543 52.37 0 0 0
2017-02-26 13:03:34 13.08 100551 51.44 0 0 0
2017-02-26 12:57:48 13.19 100560 50.66 0 0 0
2017-02-26 12:52:02 12.84 100568 51.75 0 0 0
2017-02-26 12:46:16 12.91 100573 51.09 0 0 0
2017-02-26 12:40:30 13.13 100577 49.37 0 0 0
2017-02-26 12:34:44 13.11 100582 48.85 0 0 0
2017-02-26 12:28:58 12.88 100594 48.34 0 0 0
2017-02-26 12:23:12 13.24 100605 46.59 0 0 0
2017-02-26 12:17:26 13.25 100607 45.83 0 0 0
2017-02-26 12:11:41 12.95 100610 45.27 0 0 0
2017-02-26 12:05:55 13.22 100612 45.97 0 0 0
2017-02-26 11:54:23 12.91 100615 46.13 0 0 0
2017-02-26 11:48:37 12.96 100614 43.19 0 0 0
2017-02-26 11:42:51 13.32 100608 42.22 0 0 0
2017-02-26 11:37:05 12.99 100607 42.44 0 0 0
2017-02-26 11:31:19 12.93 100608 42.96 0 0 0
2017-02-26 11:25:34 12.64 100611 44.13 0 0 0
2017-02-26 11:19:48 12.65 100612 43.89 0 0 0
2017-02-26 11:14:02 12.58 100607 43.45 0 0 0
2017-02-26 11:08:16 12.91 100607 43.68 0 0 0
2017-02-26 11:02:30 12.43 100615 44.64 0 0 0
2017-02-26 10:56:44 12.39 100612 45.13 0 0 0
2017-02-26 10:50:58 12.47 100613 45.44 0 0 0
2017-02-26 10:45:12 12.24 100614 46.39 0 0 0
2017-02-26 10:39:26 12.11 100615 46.35 0 0 0
2017-02-26 10:33:40 11.93 100613 48.41 0 0 0
2017-02-26 10:27:55 11.74 100611 51.32 0 0 0
2017-02-26 10:22:09 11.6 100614 51.06 0 0 0
2017-02-26 10:16:23 11.66 100617 53.28 0 0 0
2017-02-26 10:10:37 11.7 100622 57.56 0 0 0
2017-02-26 10:04:51 11.56 100626 58.61 0 0 0
2017-02-26 09:59:05 11.25 100632 59.9 0 0 0
2017-02-26 09:53:19 10.9 100640 63.6 0 0 0
2017-02-26 09:47:33 10.63 100652 67.26 0 0 0
2017-02-26 09:41:48 10.22 100655 68.73 0 0 0
2017-02-26 09:36:02 9.86 100655 71.54 0 0 0
2017-02-26 09:30:16 9.64 100653 72.66 0 0 0
2017-02-26 09:24:30 9.61 100655 73.13 0 0 0
2017-02-26 09:18:44 9.37 100656 75.91 0 0 0
2017-02-26 09:12:58 8.83 100659 79.08 0 0 0
2017-02-26 09:07:13 8.31 100654 81.74 0 0 0
2017-02-26 09:01:27 7.95 100656 83.28 0 0 0
2017-02-26 08:55:41 7.65 100658 84.65 0 0 0
2017-02-26 08:49:55 7.34 100662 85.7 0 0 0
2017-02-26 08:44:09 6.94 100661 87.83 0 0 0
2017-02-26 08:38:23 6.49 100657 91.48 0 0 0
2017-02-26 08:32:37 6.08 100661 94.15 0 0 0
2017-02-26 08:26:52 5.87 100660 95.08 0 0 0
2017-02-26 08:21:06 5.56 100663 99.01 0 0 0
2017-02-26 08:15:20 5.27 100655 99.99 0 0 0
2017-02-26 08:09:34 4.87 100651 99.99 0 0 0
2017-02-26 08:03:48 4.43 100661 99.99 0 0 0
2017-02-26 07:58:02 4.2 100660 99.99 0 0 0
2017-02-26 07:52:17 4.15 100656 99.99 0 0 0
2017-02-26 07:46:31 4.03 100661 99.99 0 0 0
2017-02-26 07:40:45 3.84 100666 99.99 0 0 0
2017-02-26 07:34:59 3.79 100661 99.99 0 0 0
2017-02-26 07:29:14 3.79 100650 99.99 0 0 0
2017-02-26 07:23:28 3.75 100650 99.99 0 0 0
2017-02-26 07:17:42 3.89 100652 99.99 0 0 0
2017-02-26 07:11:56 3.94 100647 99.99 0 0 0
2017-02-26 07:06:10 3.8 100645 99.99 0 0 0
2017-02-26 07:00:24 3.86 100646 99.99 0 0 0
2017-02-26 06:54:39 3.84 100649 99.99 0 0 0
2017-02-26 06:48:53 3.67 100648 99.99 0 0 0
2017-02-26 06:43:07 3.68 100652 99.99 0 0 0
2017-02-26 06:37:21 3.8 100658 99.99 0 0 0
2017-02-26 06:31:35 3.9 100659 99.99 0 0 0
2017-02-26 06:25:50 3.91 100654 99.99 0 0 0
2017-02-26 06:20:04 3.9 100653 99.99 0 0 0
2017-02-26 06:14:18 4.04 100652 99.99 0 0 0
2017-02-26 06:08:32 3.88 100648 99.99 0 0 0
2017-02-26 06:02:46 3.71 100652 99.99 0 0 0
2017-02-26 05:57:01 3.75 100656 99.99 0 0 0
2017-02-26 05:51:15 3.77 100658 99.99 0 0 0
2017-02-26 05:45:29 3.73 100655 99.99 0 0 0
2017-02-26 05:39:43 3.85 100654 99.99 0 0 0
2017-02-26 05:33:57 3.97 100657 99.99 0 0 0
2017-02-26 05:28:12 3.98 100655 99.99 0 0 0
2017-02-26 05:22:26 3.93 100656 99.99 0 0 0
2017-02-26 05:16:40 4.13 100651 99.99 0 0 0
2017-02-26 05:10:54 4.42 100658 99.99 0 0 0
2017-02-26 05:05:08 4.49 100656 99.99 0 0 0
2017-02-26 04:59:23 4.55 100649 99.99 0 0 0
2017-02-26 04:53:37 4.43 100644 99.99 0 0 0
2017-02-26 04:47:51 4.49 100642 99.99 0 0 0
2017-02-26 04:42:05 4.57 100642 99.99 0 0 0
2017-02-26 04:36:19 4.66 100647 99.99 0 0 0
2017-02-26 04:30:34 4.58 100649 99.99 0 0 0
2017-02-26 04:24:48 4.61 100653 99.99 0 0 0
2017-02-26 04:19:02 4.63 100653 99.99 0 0 0
2017-02-26 04:13:16 4.59 100650 99.99 0 0 0
2017-02-26 04:07:30 4.5 100657 99.99 0 0 0
2017-02-26 04:01:45 4.39 100663 99.99 0 0 0
2017-02-26 03:55:59 4.33 100665 99.99 0 0 0
2017-02-26 03:50:13 4.43 100667 99.99 0 0 0
2017-02-26 03:44:27 4.54 100671 99.99 0 0 0
2017-02-26 03:38:41 4.65 100677 99.99 0 0 0
2017-02-26 03:32:56 4.78 100678 99.99 0 0 0
2017-02-26 03:27:10 4.72 100684 99.86 0 0 0
2017-02-26 03:21:24 4.74 100682 98.86 0 0 0
2017-02-26 03:15:38 4.84 100685 98.48 0 0 0
2017-02-26 03:09:52 4.77 100687 99.91 0 0 0
2017-02-26 03:04:06 4.69 100689 99.61 0 0 0
2017-02-26 02:58:21 4.73 100695 97.62 0 0 0
2017-02-26 02:52:35 4.84 100693 99.8 0 0 0
2017-02-26 02:46:49 4.66 100696 99.99 0 0 0
2017-02-26 02:41:03 4.69 100698 99.99 0 0 0
2017-02-26 02:35:17 4.87 100697 98.27 0 0 0
2017-02-26 02:29:32 5.09 100701 91.45 0 0 0
2017-02-26 02:23:46 5.17 100694 89.88 0 0 0
2017-02-26 02:18:00 5.19 100688 87.75 0 0 0
2017-02-26 02:12:14 5 100693 89.14 0 0 0
2017-02-26 02:06:28 4.9 100696 88.7 0 0 0
2017-02-26 02:00:43 4.85 100698 87.14 0 0 0
2017-02-26 01:54:57 4.84 100697 84.19 0 0 0
2017-02-26 01:49:11 5.04 100702 81.09 0 0 0
2017-02-26 01:43:25 5.05 100703 79.93 0 0 0
2017-02-26 01:37:39 5.08 100704 79.29 0 0 0
2017-02-26 01:31:54 5.22 100708 79.86 0 0 0
2017-02-26 01:26:08 5.35 100701 81.47 0 0 0
2017-02-26 01:20:22 5.36 100698 84.58 0 0 0
2017-02-26 01:14:36 5.4 100695 83.59 0 0 0
2017-02-26 01:08:50 5.37 100695 81.06 0 0 0
2017-02-26 01:03:04 5.43 100690 77.89 0 0 0
2017-02-26 00:57:19 5.37 100689 73.98 0 0 0
2017-02-26 00:51:33 5.49 100691 70.7 0 0 0
2017-02-26 00:45:47 5.6 100694 69.62 0 0 0
2017-02-26 00:40:01 5.53 100690 69.22 0 0 0
2017-02-26 00:34:15 5.39 100682 68.49 0 0 0
2017-02-26 00:28:29 5.34 100680 67.19 0 0 0
2017-02-26 00:22:44 5.47 100674 66.52 0 0 0
2017-02-26 00:16:58 5.61 100670 66.63 0 0 0
2017-02-26 00:11:12 5.79 100671 66.22 0 0 0
2017-02-26 00:05:26 5.88 100673 65.5 0 0 0
2017-02-25 23:59:40 5.79 100672 64.87 0 0 0
2017-02-25 23:53:55 5.71 100665 63.88 0 0 0
2017-02-25 23:48:09 5.67 100668 63.81 0 0 0
2017-02-25 23:42:23 5.54 100663 63.68 0 0 0
2017-02-25 23:36:37 5.51 100662 63.48 0 0 0
2017-02-25 23:30:51 5.52 100664 63.49 0 0 0
2017-02-25 23:25:06 5.44 100664 64.16 0 0 0
2017-02-25 23:19:20 5.43 100663 64.47 0 0 0
2017-02-25 23:13:34 5.52 100663 64.26 0 0 0
2017-02-25 23:07:48 5.62 100657 63.5 0 0 0
2017-02-25 23:02:02 5.64 100656 63.92 0 0 0
2017-02-25 22:56:16 5.78 100645 63.92 0 0 0
2017-02-25 22:50:30 5.77 100644 63.87 0 0 0
2017-02-25 22:44:45 5.64 100636 65.39 0 0 0
2017-02-25 22:38:59 5.71 100632 66.02 0 0 0
2017-02-25 22:33:13 5.89 100630 65.59 0 0 0
2017-02-25 22:27:27 6.04 100628 65.45 0 0 0
2017-02-25 22:21:41 6.06 100624 65.83 0 0 0
2017-02-25 22:15:56 6.06 100618 66.58 0 0 0
2017-02-25 22:10:10 6.11 100612 64.5 0 0 0
2017-02-25 22:04:24 6.32 100607 63.52 0 0 0
2017-02-25 21:58:38 6.48 100600 63.58 0 0 0
2017-02-25 21:52:52 6.48 100597 61.42 0 0 0
2017-02-25 21:47:07 6.38 100583 62.17 0 0 0
2017-02-25 21:41:21 6.56 100577 64.8 0 0 0
2017-02-25 21:35:35 6.75 100572 66.15 0 0 0
2017-02-25 21:29:49 6.84 100569 66.89 0 0 0
2017-02-25 21:24:03 6.93 100568 66.97 0 0 0
2017-02-25 21:18:18 7.06 100559 66.6 0 0 0
2017-02-25 21:12:32 7.1 100553 66.07 0 0 0
2017-02-25 21:06:46 7.16 100549 66.51 0 0 0
2017-02-25 21:01:00 7.12 100541 66.84 0 0 0
2017-02-25 20:55:15 7.19 100536 66.62 0 0 0
2017-02-25 20:49:29 7.21 100529 66.45 0 0 0
2017-02-25 20:43:43 7.28 100525 65.83 0 0 0
2017-02-25 20:37:57 7.43 100526 64.85 0 0 0
2017-02-25 20:32:11 7.56 100525 63.79 0 0 0
2017-02-25 20:26:25 7.71 100519 63.18 0 0 0
2017-02-25 20:20:40 7.73 100517 63.06 0 0 0
2017-02-25 20:14:54 7.76 100519 62.4 0 0 0
2017-02-25 20:09:08 7.75 100518 61.3 0 0 0
2017-02-25 20:03:22 7.83 100519 61.04 0 0 0
2017-02-25 19:57:36 7.96 100521 60.73 0 0 0
2017-02-25 19:51:51 8.2 100522 61.27 0 0 0
2017-02-25 19:46:05 8.36 100525 62.63 0 0 0
2017-02-25 19:40:19 8.46 100523 62.07 0 0 0
2017-02-25 19:34:33 8.57 100525 62.25 0 0 0
2017-02-25 19:28:47 8.82 100519 62.15 0 0 0
2017-02-25 19:23:02 8.95 100512 62.37 0 0 0
2017-02-25 19:17:16 9.18 100508 61.27 0 0 0
2017-02-25 19:11:30 9.55 100510 60.87 0 0 0
2017-02-25 19:05:44 9.84 100503 60.36 0 0 0
2017-02-25 18:59:58 10.48 100491 56.82 0 0 0
2017-02-25 18:54:12 11.01 100482 55.76 0 0 0
2017-02-25 18:48:27 11.45 100476 54.96 0 0 0
2017-02-25 18:42:41 11.85 100472 53.64 0 0 0
2017-02-25 18:36:55 11.97 100468 52.69 0 0 0
2017-02-25 18:31:09 12.08 100464 52.06 0 0 0
2017-02-25 18:25:23 12.21 100456 50.88 0 0 0
2017-02-25 18:19:37 12.4 100445 46.88 0 0 0
2017-02-25 18:13:51 12.6 100441 45.57 0 0 0
2017-02-25 18:08:05 12.7 100431 46.19 0 0 0
2017-02-25 18:02:20 12.84 100426 46.41 0 0 0
2017-02-25 17:56:34 12.9 100416 46.22 0 0 0
2017-02-25 17:50:48 12.94 100414 46.82 0 0 0
2017-02-25 17:45:02 13.02 100410 46.9 0 0 0
2017-02-25 17:39:16 13.09 100409 47.81 0 0 0
2017-02-25 17:33:30 13.05 100405 48.19 0 0 0
2017-02-25 17:27:44 13.17 100401 47.43 0 0 0
2017-02-25 17:21:59 13.23 100396 48.14 0 0 0
2017-02-25 17:16:13 13.3 100393 48.13 0 0 0
2017-02-25 17:10:27 13.17 100395 49.12 0 0 0
2017-02-25 17:04:41 13.06 100397 48.71 0 0 0
2017-02-25 16:58:55 13.07 100394 47.66 0 0 0
2017-02-25 16:53:09 13.22 100386 46.3 0 0 0
2017-02-25 16:47:23 13.47 100380 45.41 0 0 0
2017-02-25 16:41:37 13.61 100376 45.22 0 0 0
2017-02-25 16:35:51 13.74 100373 44.49 0 0 0
2017-02-25 16:30:05 13.82 100375 43.18 0 0 0
2017-02-25 16:24:20 14.02 100381 42.5 0 0 0
2017-02-25 16:18:34 14 100377 43.11 0 0 0
2017-02-25 16:12:48 14.04 100379 40.88 0 0 0
2017-02-25 16:07:02 14.37 100376 36.7 0 0 0
2017-02-25 16:01:16 14.41 100376 35.72 0 0 0
2017-02-25 15:55:30 14.52 100372 34.62 0 0 0
2017-02-25 15:49:44 15.04 100359 32.35 0 0 0
2017-02-25 15:43:58 15.01 100355 31.93 0 0 0
2017-02-25 15:38:13 14.92 100356 31.47 0 0 0
2017-02-25 15:32:27 14.79 100365 31.22 0 0 0
2017-02-25 15:26:41 14.69 100366 30.87 0 0 0
2017-02-25 15:20:55 15.06 100361 30.27 0 0 0
2017-02-25 15:15:09 14.75 100361 31.32 0 0 0
2017-02-25 15:09:23 14.76 100363 30.99 0 0 0
2017-02-25 15:03:37 14.9 100363 31.58 0 0 0
2017-02-25 14:57:51 14.77 100366 32.16 0 0 0
2017-02-25 14:52:05 14.73 100367 32.5 0 0 0
2017-02-25 14:46:19 14.74 100371 32.79 0 0 0
2017-02-25 14:40:34 14.82 100374 33.07 0 0 0
2017-02-25 14:34:47 14.7 100374 33.8 0 0 0
2017-02-25 14:29:01 14.58 100371 34.28 0 0 0
2017-02-25 14:23:16 14.44 100374 36.08 0 0 0
2017-02-25 14:17:30 14.07 100381 38.18 0 0 0
2017-02-25 14:11:44 14.21 100382 38.83 0 0 0
2017-02-25 14:05:58 14.3 100384 39.28 0 0 0
2017-02-25 13:54:26 14.59 100377 37.36 0 0 0
2017-02-25 13:48:40 14.54 100375 37.83 0 0 0
2017-02-25 13:42:54 14.41 100376 37.36 0 0 0
2017-02-25 13:37:09 14.68 100378 36.63 0 0 0
2017-02-25 13:31:23 14.64 100378 35.63 0 0 0
2017-02-25 13:25:37 14.55 100377 35.24 0 0 0
2017-02-25 13:19:51 14.59 100380 35.13 0 0 0
2017-02-25 13:14:05 14.36 100388 34.76 0 0 0
2017-02-25 13:08:19 14.31 100393 35.36 0 0 0
2017-02-25 13:02:33 14.29 100395 35.44 0 0 0
2017-02-25 12:56:47 14.41 100398 35.03 0 0 0
2017-02-25 12:51:01 14.11 100399 35.07 0 0 0
2017-02-25 12:45:16 14.25 100398 35.52 0 0 0
2017-02-25 12:39:30 13.79 100400 37.68 0 0 0
2017-02-25 12:33:44 13.27 100407 38.41 0 0 0
2017-02-25 12:27:58 13.12 100410 38.26 0 0 0
2017-02-25 12:22:12 12.74 100418 38.17 0 0 0
2017-02-25 12:16:26 12.75 100416 37.95 0 0 0
2017-02-25 12:10:40 12.33 100422 38.07 0 0 0
2017-02-25 12:04:54 11.99 100427 37.33 0 0 0
2017-02-25 11:59:09 11.94 100423 38.15 0 0 0
2017-02-25 11:53:23 11.8 100416 39.08 0 0 0
2017-02-25 11:47:37 11.69 100415 40.27 0 0 0
2017-02-25 11:41:51 11.66 100409 40.61 0 0 0
2017-02-25 11:36:05 11.65 100403 40.66 0 0 0
2017-02-25 11:30:19 11.5 100393 40.08 0 0 0
2017-02-25 11:24:33 11.35 100384 40.24 0 0 0
2017-02-25 11:18:47 11.22 100377 40.36 0 0 0
2017-02-25 11:13:01 11.35 100372 39.34 0 0 0
2017-02-25 11:07:16 11.5 100366 38.34 0 0 0
2017-02-25 11:01:30 11.46 100352 38.22 0 0 0
2017-02-25 10:55:44 11.41 100340 38.59 0 0 0
2017-02-25 10:49:58 11.23 100329 38.64 0 0 0
2017-02-25 10:44:12 11.26 100317 38.62 0 0 0
2017-02-25 10:38:26 11.15 100312 38.63 0 0 0
2017-02-25 10:32:40 11.2 100298 39.25 0 0 0
2017-02-25 10:26:54 10.8 100299 40.09 0 0 0
2017-02-25 10:21:08 10.75 100292 40.76 0 0 0
2017-02-25 10:15:22 10.5 100286 40.62 0 0 0
2017-02-25 10:09:36 10.32 100270 40.98 0 0 0
2017-02-25 10:03:51 10.15 100255 41.25 0 0 0
2017-02-25 09:58:05 10.12 100240 41.27 0 0 0
2017-02-25 09:52:19 10.19 100228 42.67 0 0 0
2017-02-25 09:46:33 9.94 100214 42.62 0 0 0
2017-02-25 09:40:47 9.68 100201 42.27 0 0 0
2017-02-25 09:35:01 9.29 100196 43.1 0 0 0
2017-02-25 09:29:15 9.13 100193 42.97 0 0 0
2017-02-25 09:23:29 8.84 100185 44.06 0 0 0
2017-02-25 09:17:44 8.72 100175 46.53 0 0 0
2017-02-25 09:11:58 8.76 100166 45.61 0 0 0
2017-02-25 09:06:12 8.74 100152 45.57 0 0 0
2017-02-25 08:54:40 9.08 100123 43.19 0 0 0
2017-02-25 08:48:55 9.18 100113 38.87 0 0 0
2017-02-25 08:43:09 8.9 100103 39.45 0 0 0
2017-02-25 08:37:23 8.47 100103 41.61 0 0 0
2017-02-25 08:31:37 7.74 100105 45.64 0 0 0
2017-02-25 08:25:51 7.32 100109 48.38 0 0 0
2017-02-25 08:20:08 7.26 100102 48.57 0 0 0
2017-02-25 08:14:19 7.03 100082 48.52 0 0 0
2017-02-25 08:08:33 7.2 100062 47.24 0 0 0
2017-02-25 08:02:47 7.23 100038 45.96 0 0 0
2017-02-25 07:57:01 7.14 100026 46.46 0 0 0
2017-02-25 07:51:16 6.93 100024 47.71 0 0 0
2017-02-25 07:45:30 6.78 100021 48.7 0 0 0
2017-02-25 07:39:44 6.54 100020 49.89 0 0 0
2017-02-25 07:33:58 6.45 100014 50.36 0 0 0
2017-02-25 07:28:12 6.31 100001 51.08 0 0 0
2017-02-25 07:22:27 6.33 100005 51.06 0 0 0
2017-02-25 07:16:41 6.24 99994.9 51.61 0 0 0
2017-02-25 07:10:55 5.99 99989.7 52.74 0 0 0
2017-02-25 07:05:09 5.75 99987.6 53.93 0 0 0
2017-02-25 06:59:24 5.38 99992.6 56.16 0 0 0
2017-02-25 06:53:38 4.98 99991.1 59.31 0 0 0
2017-02-25 06:47:52 4.06 99999.8 67.42 0 0 0
2017-02-25 06:42:06 3.64 100002 73.54 0 0 0
2017-02-25 06:36:20 3.75 99984.7 71.87 0 0 0
2017-02-25 06:30:35 3.71 99974.9 72.57 0 0 0
2017-02-25 06:24:49 3.76 99959.8 73.15 0 0 0
2017-02-25 06:19:03 3.67 99958.3 73.61 0 0 0
2017-02-25 06:13:17 3.65 99953.5 73.25 0 0 0
2017-02-25 06:07:32 3.77 99947.6 71.67 0 0 0
2017-02-25 06:01:46 4.01 99939.9 70.1 0 0 0
2017-02-25 05:56:00 4.33 99933.1 68.83 0 0 0
2017-02-25 05:50:15 4.41 99930.9 68.58 0 0 0
2017-02-25 05:44:29 4.6 99923.8 67.62 0 0 0
2017-02-25 05:38:43 4.76 99914.9 66.41 0 0 0
2017-02-25 05:32:57 4.81 99909.2 66.65 0 0 0
2017-02-25 05:27:12 4.84 99895.7 65.81 0 0 0
2017-02-25 05:21:26 4.89 99882.7 64.82 0 0 0
2017-02-25 05:15:40 4.92 99872.3 64.85 0 0 0
2017-02-25 05:09:54 5 99865.2 64.34 0 0 0
2017-02-25 05:04:09 5.07 99863.4 63.98 0 0 0
2017-02-25 04:58:23 5.2 99854.8 62.6 0 0 0
2017-02-25 04:52:37 5.4 99851.1 60.77 0 0 0
2017-02-25 04:46:52 5.41 99848.5 61.51 0 0 0
2017-02-25 04:41:06 5.52 99840.7 60.01 0 0 0
2017-02-25 04:35:20 5.47 99836.8 60.26 0 0 0
2017-02-25 04:29:34 5.48 99838.3 60.52 0 0 0
2017-02-25 04:23:49 5.75 99833.2 59.48 0 0 0
2017-02-25 04:18:03 6.16 99825.7 57.96 0 0 0
2017-02-25 04:12:17 6.26 99820.1 57.41 0 0 0
2017-02-25 04:06:31 6.28 99806.9 57.14 0 0 0
2017-02-25 04:00:46 6.28 99804.5 57.3 0 0 0
2017-02-25 03:55:00 6.29 99795.9 57.29 0 0 0
2017-02-25 03:49:14 6.26 99791.5 57.09 0 0 0
2017-02-25 03:43:29 6.28 99794.5 57.39 0 0 0
2017-02-25 03:37:43 6.39 99793.3 56.88 0 0 0
2017-02-25 03:31:57 6.56 99790.9 55.98 0 0 0
2017-02-25 03:26:11 6.63 99789.5 55.44 0 0 0
2017-02-25 03:20:26 6.58 99791.6 55.06 0 0 0
2017-02-25 03:14:40 6.59 99793.5 55.62 0 0 0
2017-02-25 03:08:54 6.62 99792.5 54.98 0 0 0
2017-02-25 03:03:08 6.6 99790.6 55.15 0 0 0
2017-02-25 02:57:23 6.53 99786 55.06 0 0 0
2017-02-25 02:51:37 6.63 99783.1 54.82 0 0 0
2017-02-25 02:45:51 6.65 99781.4 54.32 0 0 0
2017-02-25 02:40:05 6.77 99762.1 53.63 0 0 0
2017-02-25 02:34:20 7.21 99753.5 51.35 0 0 0
2017-02-25 02:28:34 7.46 99762.2 49.85 0 0 0
2017-02-25 02:22:48 7.22 99746.2 51.39 0 0 0
2017-02-25 02:17:02 6.97 99760.7 53.77 0 0 0
2017-02-25 02:11:17 7.04 99760 53.74 0 0 0
2017-02-25 02:05:31 6.99 99756.3 54.26 0 0 0
2017-02-25 01:59:45 7.05 99768.6 54.07 0 0 0
2017-02-25 01:54:00 7.08 99763.1 54.12 0 0 0
2017-02-25 01:48:14 7.18 99763.5 53.7 0 0 0
2017-02-25 01:42:28 7.18 99768.2 53.76 0 0 0
2017-02-25 01:36:42 7.18 99765.2 53.78 0 0 0
2017-02-25 01:30:57 7.32 99755.1 52.86 0 0 0
2017-02-25 01:25:11 7.32 99768.4 53.07 0 0 0
2017-02-25 01:19:25 7.22 99757.9 53.6 0 0 0
2017-02-25 01:13:39 7.23 99749.2 53.38 0 0 0
2017-02-25 01:07:54 7.33 99753.4 53.08 0 0 0
2017-02-25 01:02:08 7.27 99747.6 53.33 0 0 0
2017-02-25 00:56:22 7.33 99747.7 53.29 0 0 0
2017-02-25 00:50:36 7.34 99733.9 53.16 0 0 0
2017-02-25 00:44:51 7.43 99735 52.96 0 0 0
2017-02-25 00:39:05 7.39 99727.4 53.45 0 0 0
2017-02-25 00:33:19 7.36 99718.5 53.25 0 0 0
2017-02-25 00:27:34 7.54 99704.9 52.39 0 0 0
2017-02-25 00:21:48 7.61 99710.2 51.99 0 0 0
2017-02-25 00:16:02 7.62 99708.4 51.81 0 0 0
2017-02-25 00:10:16 7.57 99708.3 52.08 0 0 0
2017-02-25 00:04:31 7.62 99698.7 51.79 0 0 0
2017-02-24 23:58:45 7.65 99696.5 51.53 0 0 0
2017-02-24 23:52:59 7.68 99669.4 51.37 0 0 0
2017-02-24 23:47:13 7.72 99666.9 51.15 0 0 0
2017-02-24 23:41:28 7.75 99672.4 50.99 0 0 0
2017-02-24 23:35:42 7.77 99676 50.98 0 0 0
2017-02-24 23:29:56 7.77 99672.2 51.01 0 0 0
2017-02-24 23:24:10 7.89 99674.5 50.57 0 0 0
2017-02-24 23:18:24 7.96 99699.1 50.39 0 0 0
2017-02-24 23:12:39 8 99694.5 50.29 0 0 0
2017-02-24 23:06:53 7.97 99689.8 50.61 0 0 0
2017-02-24 23:01:07 7.97 99675.2 50.6 0 0 0
2017-02-24 22:55:21 8.09 99655.8 50.14 0 0 0
2017-02-24 22:49:36 8.11 99640.6 49.92 0 0 0
2017-02-24 22:43:50 8.17 99623.3 49.34 0 0 0
2017-02-24 22:38:04 8.26 99620.7 48.55 0 0 0
2017-02-24 22:32:18 8.34 99611.8 48.01 0 0 0
2017-02-24 22:26:33 8.33 99610 47.85 0 0 0
2017-02-24 22:20:47 8.4 99616.4 47.38 0 0 0
2017-02-24 22:15:01 8.42 99620.2 47.48 0 0 0
2017-02-24 22:09:15 8.39 99613.3 47.76 0 0 0
2017-02-24 22:03:30 8.37 99589.4 47.91 0 0 0
2017-02-24 21:57:44 8.47 99558.6 47.57 0.28 0 0
2017-02-24 21:51:58 8.47 99521.7 47.7 0 0 0
2017-02-24 21:46:12 8.44 99487.5 47.84 0 0 0
2017-02-24 21:40:27 8.46 99480.4 47.7 1.12 0 0
2017-02-24 21:34:41 8.51 99472 47.4 1.12 0 0
2017-02-24 21:28:55 8.56 99472.3 47.04 0.28 0 0
2017-02-24 21:23:09 8.63 99464 46.56 0.56 0 0
2017-02-24 21:17:24 8.7 99456.2 46.09 0.28 0 0
2017-02-24 21:11:38 8.68 99463.4 46.03 0 0 0
2017-02-24 21:05:52 8.73 99469.3 45.83 0 0 0
2017-02-24 21:00:11 8.74 99469.8 45.7 0.56 0 0
2017-02-24 20:54:20 8.79 99475.2 45.38 0 0 0
2017-02-24 20:48:34 8.86 99475.9 45.12 0 0 0
2017-02-24 20:42:48 8.96 99499.5 44.61 0.28 0 0
2017-02-24 20:37:02 9.07 99483.6 43.99 0.56 0 0
2017-02-24 20:31:17 9.14 99481.5 43.6 0 0 0
2017-02-24 20:25:31 9.21 99483.8 43.12 0.28 0 0
2017-02-24 20:19:45 9.27 99520.1 42.69 0 0 0
2017-02-24 20:13:59 9.38 99516.3 42.19 0.56 0 0
2017-02-24 20:08:14 9.42 99520.2 42.04 0 0 0
2017-02-24 20:02:28 9.48 99512.3 41.92 0 0 0
2017-02-24 19:56:42 9.49 99501.4 42.27 0 0 0
2017-02-24 19:50:56 9.52 99497.1 42.5 0.28 0 0
2017-02-24 19:45:10 9.57 99502 42.34 0 0 0
2017-02-24 19:39:24 9.58 99499.7 41.99 0 0 0
2017-02-24 19:33:39 9.65 99485.9 41.13 0 0 0
2017-02-24 19:27:53 9.77 99477.9 40.17 0 0 0
2017-02-24 19:22:07 9.78 99470 39.62 0 0 0
2017-02-24 19:16:21 9.9 99468.7 38.87 0 0 0
2017-02-24 19:10:35 9.95 99457 38.48 0 0 0
2017-02-24 19:04:49 10.01 99449.7 38.19 0 0 0
2017-02-24 18:59:03 10.03 99466.9 38.54 0.84 0 0
2017-02-24 18:53:18 10.09 99485.4 38.5 0 0 0
2017-02-24 18:47:32 10.15 99490.8 37.93 0 0 0
2017-02-24 18:41:46 10.23 99498.8 37.45 0 0 0
2017-02-24 18:36:00 10.29 99495.8 37.74 0 0 0
2017-02-24 18:30:14 10.37 99480.2 38.51 0 0 0
2017-02-24 18:24:28 10.5 99469.3 38.16 0 0 0
2017-02-24 18:18:42 10.59 99461.5 37.94 0 0 0
2017-02-24 18:12:56 10.69 99449.2 37.78 0 0 0
2017-02-24 18:07:10 10.82 99438.9 37.61 0 0 0
2017-02-24 18:01:25 10.96 99447.8 37.67 0 0 0
2017-02-24 17:55:39 11.06 99461 37.55 0 0 0
2017-02-24 17:49:52 11.17 99451.9 37.32 0 0 0
2017-02-24 17:44:06 11.34 99426.5 36.13 0 0 0
2017-02-24 17:38:20 11.44 99410.1 36.06 0 0 0
2017-02-24 17:32:35 11.62 99431.5 36.46 0.28 0 0
2017-02-24 17:26:49 11.67 99425.4 36.23 0.28 0 0
2017-02-24 17:21:03 11.83 99422.7 36.76 0.28 0 0
2017-02-24 17:15:17 11.93 99412.9 36.32 0.28 0 0
2017-02-24 17:09:31 12.2 99419.3 36 0 0 0
2017-02-24 17:03:46 12.16 99426.6 35.8 0 0 0
2017-02-24 16:58:00 12.12 99432.6 35.53 0 0 0
2017-02-24 16:52:14 12.06 99414.7 35.86 0.84 0 0
2017-02-24 16:46:28 12.18 99386.2 35.87 3.63 0 0
2017-02-24 16:40:42 12.47 99385.2 36 0.84 0 0
2017-02-24 16:34:56 12.64 99363 35.12 0.56 0 0
2017-02-24 16:29:10 12.69 99358.6 34.98 0 0 0
2017-02-24 16:23:25 12.85 99353.1 35.82 0.28 0 0
2017-02-24 16:17:39 12.93 99367.3 36.49 0 0 0
2017-02-24 16:11:53 12.96 99376.8 36.06 1.4 0 0
2017-02-24 16:06:07 12.94 99388.3 36.33 0.28 0 0
2017-02-24 15:54:35 13.19 99389.1 37.66 0 0 0
2017-02-24 15:48:50 12.97 99377.3 38.16 0.28 0 0
2017-02-24 15:43:04 13.09 99390.9 38.04 0 0 0
2017-02-24 15:37:18 13.13 99398.3 38.17 0 0 0
2017-02-24 15:31:32 13.03 99400.2 40 0 0 0
2017-02-24 15:25:46 12.76 99409.3 41.2 0 0 0
2017-02-24 15:20:00 13.06 99405.9 41.79 0 0 0
2017-02-24 15:14:15 13.35 99405.5 42.34 0 0 0
2017-02-24 15:08:29 13.2 99398.1 42.62 0 0 0
2017-02-24 15:02:43 13.09 99394.8 43.15 0 0 0
2017-02-24 14:56:57 13.07 99390.9 43.95 0 0 0
2017-02-24 14:51:11 13.06 99398.5 44.59 0 0 0
2017-02-24 14:45:25 12.73 99413 46.26 0 0 0
2017-02-24 14:39:39 12.54 99416.8 46.21 0 0 0
2017-02-24 14:33:54 12.46 99428.4 47.3 0 0 0
2017-02-24 14:28:08 12.3 99434.7 48 0 0 0
2017-02-24 14:22:22 12.27 99440.1 47.9 0 0 0
2017-02-24 14:16:36 12.26 99440.8 48.15 0 0 0
2017-02-24 14:10:50 12.21 99442.3 49.08 0 0 0
2017-02-24 14:05:04 12.18 99459.4 49.85 0 0 0
2017-02-24 13:59:19 12.08 99459.2 50.06 0 0 0
2017-02-24 13:53:33 12.22 99472.6 50.39 0 0 0
2017-02-24 13:47:47 12.16 99471.9 50.28 0 0 0
2017-02-24 13:42:01 12.3 99473.1 49.85 0 0 0
2017-02-24 13:36:15 12.58 99471 49.22 0 0 0
2017-02-24 13:30:30 12.59 99459.6 49.17 0 0 0
2017-02-24 13:24:44 12.73 99458.4 49.05 0 0 0
2017-02-24 13:18:58 12.65 99480.3 49.91 0 0 0
2017-02-24 13:13:12 12.54 99489.3 49.83 0 0 0
2017-02-24 13:07:26 12.62 99501.9 50.19 0 0 0
2017-02-24 13:01:40 12.75 99503 50.51 0 0 0
2017-02-24 12:55:55 13.12 99509.5 51.57 0 0 0
2017-02-24 12:50:09 13.13 99519.3 51.72 0 0 0
2017-02-24 12:44:23 13.18 99527.1 52.41 0 0 0
2017-02-24 12:38:37 13.18 99530.9 53.19 0 0 0
2017-02-24 12:32:51 13.36 99547.6 54.99 0 0 0
2017-02-24 12:27:05 13.38 99559.9 56.52 0 0 0
2017-02-24 12:21:20 13.25 99555.1 56.69 0 0 0
2017-02-24 12:15:34 13.12 99570.9 59.95 0 0 0
2017-02-24 12:09:48 12.9 99583.3 62.23 0 0 0
2017-02-24 12:04:02 12.7 99583.3 64.15 0.28 0 0
2017-02-24 11:58:16 12.62 99583.6 65.8 0 0 0
2017-02-24 11:52:30 12.66 99587.4 67.8 0 0 0
2017-02-24 11:46:44 12.58 99585 68.23 0 0 0
2017-02-24 11:40:59 12.55 99583.4 69.15 0 0 0
2017-02-24 11:35:13 12.51 99586.8 71.01 0 0 0
2017-02-24 11:29:27 12.53 99586.9 72.53 0 0 0
2017-02-24 11:23:41 12.55 99580 73.55 0 0 0
2017-02-24 11:17:55 12.62 99591.1 74.41 0 0 0
2017-02-24 11:12:10 12.45 99603.2 77.17 0 0 0
2017-02-24 11:06:24 12.26 99618 80.1 0 0 0
2017-02-24 11:00:38 12.17 99630.8 81.94 0 0 0
2017-02-24 10:54:52 12 99637 84.24 0 0 0
2017-02-24 10:49:06 11.85 99644.9 84.78 0 0 0
2017-02-24 10:43:20 11.92 99655.1 83.99 0 0 0
2017-02-24 10:37:34 11.95 99662.6 83.86 0 0 0
2017-02-24 10:31:49 12.04 99663.4 80.94 0 0 0
2017-02-24 10:26:03 12.21 99652.5 77.85 0 0 0
2017-02-24 10:20:17 12.35 99640.4 77.74 0 0 0
2017-02-24 10:14:31 12.3 99631.2 79.41 0 0 0
2017-02-24 10:08:45 12.29 99621.3 76.9 0 0 0
2017-02-24 10:02:59 12.34 99605.3 76.21 0 0 0
2017-02-24 09:57:14 11.92 99604 82.81 0 0 0
2017-02-24 09:51:28 11.75 99601.1 85.73 0 0 0
2017-02-24 09:45:42 11.66 99601.1 88.13 0 0 0
2017-02-24 09:39:56 11.55 99608.4 91.73 0 0 0
2017-02-24 09:34:10 11.57 99613.2 91.45 0 0 0
2017-02-24 09:28:25 11.51 99611 92.15 0 0 0
2017-02-24 09:22:39 11.39 99609.8 97.83 0 0 0
2017-02-24 09:16:53 11.36 99613.7 98.96 0 0 0
2017-02-24 09:11:07 11.27 99611.4 99.99 0 0 0
2017-02-24 09:05:21 11.2 99609.4 99.99 0 0 0
2017-02-24 08:59:35 11.14 99610.9 99.99 0 0 0
2017-02-24 08:53:50 11.04 99607.3 99.99 0 0 0
2017-02-24 08:48:04 11.02 99601.1 99.99 0 0 0
2017-02-24 08:42:18 11.06 99601 99.99 0 0 0
2017-02-24 08:36:32 11.08 99605.4 99.99 0 0 0
2017-02-24 08:30:46 10.97 99606.3 99.99 0 0 0
2017-02-24 08:25:01 10.91 99601.9 99.99 0 0 0
2017-02-24 08:19:15 10.85 99597.7 99.99 0 0 0
2017-02-24 08:13:29 10.87 99607.9 99.99 0 0 0
2017-02-24 08:07:43 10.87 99616.5 99.99 0 0 0
2017-02-24 08:01:57 10.89 99615.2 99.99 0 0 0
2017-02-24 07:56:11 10.91 99617.2 99.99 0 0 0
2017-02-24 07:50:25 10.89 99618.5 99.99 0 0 0
2017-02-24 07:44:40 10.9 99617.9 99.99 0 0 0
2017-02-24 07:38:54 10.92 99618.4 99.99 0 0 0
2017-02-24 07:33:08 10.9 99615.4 99.99 0 0 0
2017-02-24 07:27:22 10.93 99621 99.99 0 0 0
2017-02-24 07:21:36 10.97 99624.3 99.99 0 0 0
2017-02-24 07:15:51 11 99628.1 99.99 0 0 0
2017-02-24 07:10:05 11.01 99638.5 99.99 0 0 0
2017-02-24 07:04:19 11 99650.1 99.99 0 0 0
2017-02-24 06:58:33 10.99 99655.9 99.99 0 0 0
2017-02-24 06:52:47 10.97 99667.2 99.99 0 0 0
2017-02-24 06:47:01 10.92 99677.2 99.99 0 0 0
2017-02-24 06:41:16 10.91 99660.2 99.99 0 0 0
2017-02-24 06:35:30 10.86 99647.3 99.99 0 0 0
2017-02-24 06:29:44 10.76 99652 99.99 0 0 0
2017-02-24 06:23:58 10.73 99658.2 99.99 0 0 0
2017-02-24 06:18:12 10.71 99665.3 99.99 0 0 0
2017-02-24 06:12:27 10.69 99655.3 99.99 0 0 0
2017-02-24 06:06:41 10.66 99656.4 99.99 0 0 0
2017-02-24 06:00:55 10.69 99666.5 99.99 0 0 0
2017-02-24 05:55:09 10.67 99680.3 99.99 0 0 0
2017-02-24 05:49:23 10.6 99684.1 99.99 0 0 0
2017-02-24 05:43:38 10.59 99684.3 99.99 0 0 0
2017-02-24 05:37:52 10.63 99695.5 99.99 0 0 0
2017-02-24 05:32:06 10.66 99712.3 99.99 0 0 0
2017-02-24 05:26:20 10.67 99717 99.99 0 0 0
2017-02-24 05:20:34 10.67 99715.9 99.99 0 0 0
2017-02-24 05:14:48 10.65 99714.8 99.99 0 0 0
2017-02-24 05:09:03 10.64 99711.3 99.99 0 0 0
2017-02-24 05:03:17 10.48 99704.5 99.99 0 0 0
2017-02-24 04:57:31 10.28 99709.5 99.99 0 0 0
2017-02-24 04:51:45 10.2 99710.6 99.99 0 0 0
2017-02-24 04:45:59 10.17 99704.5 99.99 0 0 0
2017-02-24 04:40:14 10.18 99709.6 99.99 0 0 0
2017-02-24 04:34:28 10.18 99708.6 99.99 0 0 0
2017-02-24 04:28:42 10.14 99705.9 99.99 0 0 0
2017-02-24 04:22:56 10.1 99706 99.99 0 0 0
2017-02-24 04:17:10 10.08 99701.1 99.99 0 0 0
2017-02-24 04:11:24 10.04 99703.4 99.99 0 0 0
2017-02-24 04:05:38 10.03 99706.1 99.99 0 0 0
2017-02-24 03:59:52 10.06 99713.5 99.99 0 0 0
2017-02-24 03:54:07 10.08 99712.1 99.99 0 0 0
2017-02-24 03:48:21 10.02 99704.9 99.99 0 0 0
2017-02-24 03:42:35 9.89 99717.9 99.99 0 0 0
2017-02-24 03:36:49 9.8 99717.6 99.99 0 0 0
2017-02-24 03:31:03 9.94 99715.9 99.99 0 0 0
2017-02-24 03:25:18 10.16 99720.9 99.99 0 0 0
2017-02-24 03:19:32 9.87 99736.3 99.99 0 0 0
2017-02-24 03:13:46 9.74 99733.3 99.99 0 0 0
2017-02-24 03:08:00 9.65 99734.2 99.99 0 0 0
2017-02-24 03:02:15 9.63 99734.6 99.99 0 0 0
2017-02-24 02:56:29 9.46 99740.3 99.99 0 0 0
2017-02-24 02:50:43 9.42 99738.3 99.99 0 0 0
2017-02-24 02:44:57 9.46 99750.3 99.99 0 0 0
2017-02-24 02:39:12 9.61 99766.7 99.99 0 0 0
2017-02-24 02:33:26 9.62 99774.4 99.99 0 0 0
2017-02-24 02:27:40 9.58 99769.4 99.99 0 0 0
2017-02-24 02:21:54 9.77 99772.8 99.99 0 0 0
2017-02-24 02:16:09 9.76 99774.2 99.99 0 0 0
2017-02-24 02:10:23 9.64 99778.1 99.99 0 0 0
2017-02-24 02:04:37 9.61 99784 99.99 0 0 0
2017-02-24 01:58:51 9.61 99792 99.99 0 0 0
2017-02-24 01:53:06 9.6 99804.9 99.99 0 0 0
2017-02-24 01:47:20 9.6 99813.4 99.99 0 0 0
2017-02-24 01:41:34 9.82 99819.7 99.99 0 0 0
2017-02-24 01:35:48 9.86 99829.8 99.99 0 0 0
2017-02-24 01:30:03 9.81 99836.1 99.99 0 0 0
2017-02-24 01:24:17 9.79 99844.4 99.99 0 0 0
2017-02-24 01:18:31 9.78 99848.2 99.99 0 0 0
2017-02-24 01:12:45 9.7 99840.8 99.99 0 0 0
2017-02-24 01:06:59 9.67 99831.5 99.99 0 0 0
2017-02-24 01:01:14 9.75 99834.3 99.99 0 0 0
2017-02-24 00:55:28 9.89 99830.4 99.99 0 0 0
2017-02-24 00:49:42 9.95 99826.9 99.99 0 0 0
2017-02-24 00:43:56 10.11 99821.1 99.99 0 0 0
2017-02-24 00:38:11 10.15 99832.8 99.99 0 0 0
2017-02-24 00:32:25 10.21 99854.4 99.88 0 0 0
2017-02-24 00:26:39 10.2 99853.1 99.99 0 0 0
2017-02-24 00:20:53 10.23 99844.9 99.05 0 0 0
2017-02-24 00:15:07 10.18 99843.9 98.25 0 0 0
2017-02-24 00:09:22 10.17 99850.7 97.22 0 0 0
2017-02-24 00:03:36 10.2 99848.7 98.88 0 0 0
2017-02-23 23:57:50 10.11 99841.9 99.99 0 0 0
2017-02-23 23:52:04 10.06 99841.2 99.99 0 0 0
2017-02-23 23:46:18 10.05 99844.6 99.23 0 0 0
2017-02-23 23:40:33 10.15 99860.6 94.88 0 0 0
2017-02-23 23:34:47 10.2 99871.1 93.89 0 0 0
2017-02-23 23:29:01 10.29 99876.3 93.47 0 0 0
2017-02-23 23:23:15 10.39 99890.5 93.94 0 0 0
2017-02-23 23:17:31 10.43 99896.4 93.44 0 0 0
2017-02-23 23:11:43 10.5 99891.4 92.97 0 0 0
2017-02-23 23:05:57 10.48 99894.2 91.82 0 0 0
2017-02-23 22:54:25 10.61 99901 90.7 0 0 0
2017-02-23 22:48:40 10.81 99912.8 88.52 0 0 0
2017-02-23 22:42:54 11.07 99908 86.43 0 0 0
2017-02-23 22:37:08 11.34 99898.6 84.99 0 0 0
2017-02-23 22:31:22 11.68 99896.3 82.89 0 0 0
2017-02-23 22:25:36 11.86 99895.9 82.02 0 0 0
2017-02-23 22:19:51 12.09 99900 81.46 0 0 0
2017-02-23 22:14:05 12.16 99911.8 81.4 0 0 0
2017-02-23 22:08:19 12.2 99914 81.03 0 0 0
2017-02-23 22:02:33 12.25 99902.8 80.77 0 0 0
2017-02-23 21:56:47 12.22 99901.2 81.08 0 0 0
2017-02-23 21:51:01 12.3 99906 79.82 0 0 0
2017-02-23 21:45:16 12.44 99925.2 79.13 0 0 0
2017-02-23 21:39:30 12.42 99926.7 78.26 0 0 0
2017-02-23 21:33:44 12.47 99923.3 77.1 0 0 0
2017-02-23 21:27:58 12.46 99909.6 77 0 0 0
2017-02-23 21:22:12 12.39 99890.7 77.88 0 0 0
2017-02-23 21:16:26 12.33 99888.5 78.6 0 0 0
2017-02-23 21:10:41 12.37 99896.2 78.82 0 0 0
2017-02-23 21:04:55 12.42 99897.3 79.08 0 0 0
2017-02-23 20:59:09 12.44 99909.3 79.08 0 0 0
2017-02-23 20:53:23 12.37 99913.9 78.97 0 0 0
2017-02-23 20:47:37 12.33 99905.9 78.84 0 0 0
2017-02-23 20:41:51 12.31 99899.1 79.62 0 0 0
2017-02-23 20:36:06 12.31 99904.9 80.59 0 0 0
2017-02-23 20:30:20 12.3 99903.4 82.09 0 0 0
2017-02-23 20:24:34 12.37 99906.9 82.82 0 0 0
2017-02-23 20:18:48 12.42 99905.3 82.64 0 0 0
2017-02-23 20:13:02 12.46 99901.7 82.39 0 0 0
2017-02-23 20:07:17 12.48 99900.4 82.24 0 0 0
2017-02-23 20:01:31 12.55 99900.8 82.39 0 0 0
2017-02-23 19:55:45 12.61 99903.1 82.87 0 0 0
2017-02-23 19:49:59 12.58 99896.4 84.91 0 0 0
2017-02-23 19:44:13 12.47 99896.5 88.82 0 0 0
2017-02-23 19:38:27 12.43 99910.2 91.36 0 0 0
2017-02-23 19:32:41 12.43 99913.9 91.96 0 0 0
2017-02-23 19:26:56 12.44 99914.8 92.04 0 0 0
2017-02-23 19:21:10 12.45 99913.5 92.19 0 0 0
2017-02-23 19:15:24 12.47 99900.6 91.98 0 0 0
2017-02-23 19:09:38 12.52 99902.1 90.58 0 0 0
2017-02-23 19:03:52 12.6 99896.1 88.73 0 0 0
2017-02-23 18:58:06 12.64 99891.8 88.11 0 0 0
2017-02-23 18:52:21 12.73 99895.9 86.37 0 0 0
2017-02-23 18:46:35 12.79 99897.4 85.32 0 0 0
2017-02-23 18:40:49 12.84 99893.9 84.38 0 0 0
2017-02-23 18:35:03 12.92 99888.2 83.13 0 0 0
2017-02-23 18:29:17 13 99884.6 81.85 0 0 0
2017-02-23 18:23:31 13.12 99883.9 80.28 0 0 0
2017-02-23 18:17:46 13.21 99893.2 79.24 0 0 0
2017-02-23 18:12:00 13.32 99892.2 78.35 0 0 0
2017-02-23 18:06:14 13.39 99879.1 77.93 0 0 0
2017-02-23 18:00:28 13.52 99878.8 76.99 0 0 0
2017-02-23 17:54:42 13.59 99875.9 76.21 0 0 0
2017-02-23 17:48:57 13.67 99874.3 75.44 0 0 0
2017-02-23 17:43:11 13.75 99870.5 74.61 0 0 0
2017-02-23 17:37:25 13.8 99871.1 74.02 0 0 0
2017-02-23 17:31:39 13.89 99881.5 72.88 0 0 0
2017-02-23 17:25:53 13.96 99892.6 72.6 0 0 0
2017-02-23 17:20:08 14.01 99892.4 72.62 0 0 0
2017-02-23 17:14:22 14.11 99892.9 72.89 0 0 0
2017-02-23 17:08:36 14.2 99895.4 72.95 0 0 0
2017-02-23 17:02:50 14.18 99893.5 72.64 0 0 0
2017-02-23 16:57:04 14.26 99892.8 71.75 0 0 0
2017-02-23 16:51:18 14.38 99891.6 70.4 0 0 0
2017-02-23 16:45:33 14.52 99890.7 69.53 0 0 0
2017-02-23 16:39:47 14.66 99897.1 68.17 0 0 0
2017-02-23 16:34:01 14.8 99902.2 67.39 0 0 0
2017-02-23 16:28:15 15.01 99909.5 65.92 0 0 0
2017-02-23 16:22:29 15.36 99914.1 64.08 0 0 0
2017-02-23 16:16:43 15.67 99915.6 62.28 0 0 0
2017-02-23 16:10:58 16 99921.4 60.11 0 0 0
2017-02-23 16:05:12 16.1 99922.8 58.61 0 0 0
2017-02-23 15:59:26 16.35 99918.6 58.42 0 0 0
2017-02-23 15:53:40 16.24 99912.7 58.02 0 0 0
2017-02-23 15:47:54 16.48 99912.5 57.27 0 0 0
2017-02-23 15:42:08 16.8 99915.2 56.74 0 0 0
2017-02-23 15:36:23 17.09 99912.8 56.69 0 0 0
2017-02-23 15:30:37 16.99 99911.5 55.7 0 0 0
2017-02-23 15:24:51 17.01 99917.2 55.66 0 0 0
2017-02-23 15:19:05 16.9 99921.4 55.85 0 0 0
2017-02-23 15:13:19 17.16 99932 55.72 0 0 0
2017-02-23 15:07:33 17.04 99948.4 56.01 0 0 0
2017-02-23 15:01:47 16.94 99956.4 56.07 0 0 0
2017-02-23 14:56:02 16.97 99948.6 56.68 0 0 0
2017-02-23 14:50:16 16.86 99949 56.49 0 0 0
2017-02-23 14:44:30 17.01 99965.1 56.02 0 0 0
2017-02-23 14:38:44 16.66 99980.2 57.26 0 0 0
2017-02-23 14:32:58 16.42 99995.1 57.76 0 0 0
2017-02-23 14:27:12 16.76 99998.5 56.47 0 0 0
2017-02-23 14:21:27 16.58 99999.8 57.24 0 0 0
2017-02-23 14:15:41 16.33 100017 57.54 0 0 0
2017-02-23 14:09:55 16.31 100027 57.1 0 0 0
2017-02-23 14:04:09 16.26 100025 57.13 0 0 0
2017-02-23 13:58:23 16.49 100021 56.34 0 0 0
2017-02-23 13:52:37 16.5 100030 56.77 0 0 0
2017-02-23 13:46:51 16.53 100039 55.17 0 0 0
2017-02-23 13:41:05 16.95 100050 53.6 0 0 0
2017-02-23 13:35:19 17.14 100064 53.66 0 0 0
2017-02-23 13:29:33 16.84 100078 54.07 0 0 0
2017-02-23 13:23:47 17.21 100081 52.72 0 0 0
2017-02-23 13:18:02 17.04 100094 53.45 0 0 0
2017-02-23 13:12:16 16.64 100103 54.86 0 0 0
2017-02-23 13:06:30 16.34 100108 54.96 0 0 0
2017-02-23 13:00:44 16.36 100113 54.55 0 0 0
2017-02-23 12:54:58 16.42 100119 53.8 0 0 0
2017-02-23 12:49:12 16.47 100134 53.71 0 0 0
2017-02-23 12:43:26 16.31 100145 53.62 0 0 0
2017-02-23 12:37:40 16.2 100153 53.04 0 0 0
2017-02-23 12:31:54 16.75 100153 52.05 0 0 0
2017-02-23 12:26:08 17.13 100151 51.77 0 0 0
2017-02-23 12:20:22 17.11 100149 51.54 0 0 0
2017-02-23 12:14:37 17.11 100155 52.34 0 0 0
2017-02-23 12:08:51 16.92 100158 53.44 0 0 0
2017-02-23 12:03:05 17.03 100151 53.5 0 0 0
2017-02-23 11:57:19 17.2 100158 56.47 0 0 0
2017-02-23 11:51:33 16.91 100154 56.4 0 0 0
2017-02-23 11:45:47 16.74 100146 56.14 0 0 0
2017-02-23 11:40:01 16.96 100148 55.98 0 0 0
2017-02-23 11:34:15 16.7 100150 57.85 0 0 0
2017-02-23 11:28:29 16.5 100160 60.22 0 0 0
2017-02-23 11:22:43 16.19 100162 61.74 0 0 0
2017-02-23 11:16:57 15.96 100164 62.77 0 0 0
2017-02-23 11:11:12 15.63 100165 64.6 0 0 0
2017-02-23 11:05:26 15.36 100163 64.56 0 0 0
2017-02-23 10:59:40 15.24 100171 67.11 0 0 0
2017-02-23 10:53:54 14.9 100169 68.85 0 0 0
2017-02-23 10:48:08 14.82 100172 70.09 0 0 0
2017-02-23 10:42:22 14.88 100180 70.62 0 0 0
2017-02-23 10:36:36 15.1 100188 68.92 0 0 0
2017-02-23 10:30:50 15.14 100194 69.15 0 0 0
2017-02-23 10:25:04 14.79 100202 71.38 0 0 0
2017-02-23 10:19:18 14.6 100206 72.23 0 0 0
2017-02-23 10:13:33 14.29 100207 73.31 0 0 0
2017-02-23 10:07:47 14.08 100203 74.15 0 0 0
2017-02-23 10:02:01 13.92 100202 73.94 0.28 0 0
2017-02-23 09:56:15 13.97 100198 73.42 0 0 0
2017-02-23 09:50:29 14.06 100205 71.87 0 0 0
2017-02-23 09:44:43 13.65 100206 72.75 0 0 0
2017-02-23 09:38:57 13.19 100202 74.59 0 0 0
2017-02-23 09:33:11 12.62 100202 75.95 0 0 0
2017-02-23 09:27:25 12.08 100202 78.3 0 0 0
2017-02-23 09:21:40 11.67 100205 79.13 0 0 0
2017-02-23 09:15:54 11.37 100209 80.31 0 0 0
2017-02-23 09:10:08 10.92 100214 82.59 0 0 0
2017-02-23 09:04:22 10.35 100208 84.01 0 0 0
2017-02-23 08:58:36 9.82 100212 85.76 0 0 0
2017-02-23 08:52:50 9.14 100217 88.48 0 0 0
2017-02-23 08:47:04 8.78 100220 91.03 0 0 0
2017-02-23 08:41:19 8.28 100218 95.44 0 0 0
2017-02-23 08:35:33 7.88 100221 99.22 0 0 0
2017-02-23 08:29:47 7.34 100234 99.99 0 0 0
2017-02-23 08:24:01 6.7 100242 99.99 0 0 0
2017-02-23 08:18:16 6.13 100248 99.99 0 0 0
2017-02-23 08:12:30 6.05 100259 99.99 0 0 0
2017-02-23 08:06:44 6.42 100258 99.99 0 0 0
2017-02-23 08:00:58 6.51 100261 99.99 0 0 0
2017-02-23 07:55:12 6.45 100249 99.99 0 0 0
2017-02-23 07:49:27 6.16 100246 99.99 0 0 0
2017-02-23 07:43:41 5.9 100247 99.99 0 0 0
2017-02-23 07:37:55 5.84 100253 99.99 0 0 0
2017-02-23 07:32:09 5.81 100251 99.99 0 0 0
2017-02-23 07:26:23 5.94 100243 99.99 0 0 0
2017-02-23 07:20:37 6.08 100235 99.99 0 0 0
2017-02-23 07:14:52 6.11 100224 99.99 0 0 0
2017-02-23 07:09:06 6.27 100224 99.99 0 0 0
2017-02-23 07:03:20 6.58 100220 99.99 0 0 0
2017-02-23 06:57:34 6.6 100213 99.99 0 0 0
2017-02-23 06:51:48 6.66 100210 99.99 0 0 0
2017-02-23 06:46:03 6.79 100207 99.99 0 0 0
2017-02-23 06:40:17 6.71 100209 99.99 0 0 0
2017-02-23 06:34:31 6.54 100214 99.99 0 0 0
2017-02-23 06:28:45 6.41 100217 99.99 0 0 0
2017-02-23 06:22:59 6.64 100221 99.99 0 0 0
2017-02-23 06:17:14 6.88 100228 99.99 0 0 0
2017-02-23 06:11:28 6.96 100233 99.99 0 0 0
2017-02-23 06:05:42 6.94 100240 99.99 0 0 0
2017-02-23 05:59:56 6.75 100240 99.99 0 0 0
2017-02-23 05:54:10 6.47 100236 99.99 0 0 0
2017-02-23 05:48:24 6.35 100243 99.99 0 0 0
2017-02-23 05:42:39 6.07 100248 99.99 0 0 0
2017-02-23 05:36:53 6.13 100247 99.99 0 0 0
2017-02-23 05:31:07 6.16 100255 99.99 0 0 0
2017-02-23 05:25:21 6.15 100258 99.99 0 0 0
2017-02-23 05:19:36 6.28 100265 99.99 0 0 0
2017-02-23 05:13:50 6.52 100266 99.99 0 0 0
2017-02-23 05:08:04 6.41 100263 99.99 0 0 0
2017-02-23 05:02:18 6.29 100259 99.99 0 0 0
2017-02-23 04:56:32 6.46 100257 99.99 0 0 0
2017-02-23 04:50:47 6.58 100264 99.99 0 0 0
2017-02-23 04:45:01 6.34 100268 99.99 0 0 0
2017-02-23 04:39:15 6.15 100274 99.99 0 0 0
2017-02-23 04:33:29 6.13 100270 99.99 0 0 0
2017-02-23 04:27:43 6.16 100265 99.99 0 0 0
2017-02-23 04:21:58 6.22 100269 99.99 0 0 0
2017-02-23 04:16:12 6.21 100276 99.99 0 0 0
2017-02-23 04:10:26 6.21 100274 99.99 0 0 0
2017-02-23 04:04:40 6.25 100283 99.99 0 0 0
2017-02-23 03:58:54 6.32 100283 99.99 0 0 0
2017-02-23 03:53:09 6.32 100286 99.99 0 0 0
2017-02-23 03:47:23 6.39 100292 99.99 0 0 0
2017-02-23 03:41:37 6.63 100292 99.99 0 0 0
2017-02-23 03:35:51 6.8 100300 99.99 0 0 0
2017-02-23 03:30:05 6.89 100300 99.99 0 0 0
2017-02-23 03:24:19 6.92 100306 99.99 0 0 0
2017-02-23 03:18:33 7.06 100307 99.99 0 0 0
2017-02-23 03:12:47 6.81 100313 99.99 0 0 0
2017-02-23 03:07:02 6.86 100315 99.99 0 0 0
2017-02-23 03:01:16 7.01 100318 99.99 0 0 0
2017-02-23 02:55:30 6.9 100330 99.99 0 0 0
2017-02-23 02:49:44 6.73 100340 99.99 0 0 0
2017-02-23 02:43:58 6.83 100343 99.99 0 0 0
2017-02-23 02:38:12 6.81 100349 99.99 0 0 0
2017-02-23 02:32:26 6.8 100355 99.99 0 0 0
2017-02-23 02:26:40 6.69 100361 99.99 0 0 0
2017-02-23 02:20:55 6.61 100372 99.99 0 0 0
2017-02-23 02:15:09 6.57 100377 99.99 0 0 0
2017-02-23 02:09:23 6.66 100387 99.99 0 0 0
2017-02-23 02:03:37 6.82 100392 99.99 0 0 0
2017-02-23 01:57:51 6.84 100398 99.99 0 0 0
2017-02-23 01:52:05 6.81 100397 99.99 0 0 0
2017-02-23 01:46:19 6.9 100394 99.99 0 0 0
2017-02-23 01:40:33 6.91 100389 99.99 0 0 0
2017-02-23 01:34:47 6.76 100393 99.99 0 0 0
2017-02-23 01:29:02 6.72 100388 99.99 0 0 0
2017-02-23 01:23:16 7 100394 99.99 0 0 0
2017-02-23 01:17:30 7.22 100397 99.99 0 0 0
2017-02-23 01:11:44 7.54 100395 99.99 0 0 0
2017-02-23 01:05:58 7.55 100392 99.99 0 0 0
2017-02-23 00:54:27 7.35 100399 99.99 0 0 0
2017-02-23 00:48:41 7.31 100393 99.99 0 0 0
2017-02-23 00:42:55 7.26 100392 99.99 0 0 0
2017-02-23 00:37:09 7.2 100396 99.99 0 0 0
2017-02-23 00:31:24 7.22 100402 99.99 0 0 0
2017-02-23 00:25:38 7.35 100416 99.99 0 0 0
2017-02-23 00:19:52 7.4 100424 99.99 0 0 0
2017-02-23 00:14:06 7.54 100421 99.99 0 0 0
2017-02-23 00:08:20 7.78 100421 99.99 0 0 0
2017-02-23 00:02:34 7.67 100428 99.99 0 0 0
2017-02-22 23:56:48 7.58 100431 99.99 0 0 0
2017-02-22 23:51:02 7.5 100437 99.99 0 0 0
2017-02-22 23:45:17 7.44 100438 99.99 0 0 0
2017-02-22 23:39:31 7.43 100435 99.99 0 0 0
2017-02-22 23:33:45 7.41 100440 99.99 0 0 0
2017-02-22 23:27:59 7.4 100444 99.99 0 0 0
2017-02-22 23:22:13 7.47 100452 99.99 0 0 0
2017-02-22 23:16:27 7.66 100460 99.99 0 0 0
2017-02-22 23:10:41 7.77 100463 99.99 0 0 0
2017-02-22 23:04:55 7.77 100461 99.99 0 0 0
2017-02-22 22:59:09 7.8 100460 99.99 0 0 0
2017-02-22 22:53:23 7.9 100453 99.99 0 0 0
2017-02-22 22:47:37 7.98 100448 99.99 0 0 0
2017-02-22 22:41:51 8.11 100450 99.99 0 0 0
2017-02-22 22:36:05 8.17 100444 99.99 0 0 0
2017-02-22 22:30:20 8.26 100444 99.99 0 0 0
2017-02-22 22:24:34 8.3 100452 99.99 0 0 0
2017-02-22 22:18:48 8.29 100463 99.99 0 0 0
2017-02-22 22:13:02 8.36 100457 99.99 0 0 0
2017-02-22 22:07:16 8.5 100457 99.99 0 0 0
2017-02-22 22:01:30 8.67 100457 99.99 0 0 0
2017-02-22 21:55:45 8.74 100458 99.99 0 0 0
2017-02-22 21:49:59 8.76 100459 99.99 0 0 0
2017-02-22 21:44:13 8.82 100459 99.99 0 0 0
2017-02-22 21:38:27 8.86 100459 99.99 0 0 0
2017-02-22 21:32:41 8.83 100453 99.99 0 0 0
2017-02-22 21:26:56 8.92 100452 99.99 0 0 0
2017-02-22 21:21:10 9.02 100454 99.99 0 0 0
2017-02-22 21:15:24 9.31 100449 99.81 0 0 0
2017-02-22 21:09:38 9.57 100446 97.69 0 0 0
2017-02-22 21:03:52 9.57 100451 98.21 0 0 0
2017-02-22 20:58:06 9.64 100449 97.37 0 0 0
2017-02-22 20:52:21 9.67 100443 97.34 0 0 0
2017-02-22 20:46:35 9.89 100442 93.9 0 0 0
2017-02-22 20:40:49 10.16 100446 91.3 0 0 0
2017-02-22 20:35:03 10.15 100448 92.55 0 0 0
2017-02-22 20:29:17 10.17 100444 91.11 0 0 0
2017-02-22 20:23:31 10.29 100443 88.58 0 0 0
2017-02-22 20:17:45 10.49 100436 87.74 0 0 0
2017-02-22 20:12:00 10.41 100431 89.05 0 0 0
2017-02-22 20:06:14 10.44 100429 87.98 0.28 0 0
2017-02-22 20:00:28 10.71 100432 85.22 0 0 0
2017-02-22 19:54:42 10.89 100431 84.95 0 0 0
2017-02-22 19:48:56 10.8 100435 85.03 0 0 0
2017-02-22 19:43:10 10.82 100437 84.33 0 0 0
2017-02-22 19:37:24 11.01 100431 83.98 0 0 0
2017-02-22 19:31:38 11.36 100422 81.47 0 0 0
2017-02-22 19:25:53 11.94 100418 78.74 0 0 0
2017-02-22 19:20:07 12.23 100419 77.51 0 0 0
2017-02-22 19:14:21 12.57 100415 76.7 0 0 0
2017-02-22 19:08:35 12.81 100413 76.52 0 0 0
2017-02-22 19:02:49 13.1 100405 79.3 0 0 0
2017-02-22 18:57:03 13.19 100400 78.47 0 0 0
2017-02-22 18:51:17 13.35 100401 76.43 0 0 0
2017-02-22 18:45:31 13.46 100399 75.01 0 0 0
2017-02-22 18:39:45 13.62 100392 72.31 0 0 0
2017-02-22 18:34:00 13.77 100386 70.16 0 0 0
2017-02-22 18:28:14 14 100383 67.43 0 0 0
2017-02-22 18:22:28 14.24 100373 64.04 0 0 0
2017-02-22 18:16:42 14.28 100363 63.75 0 0 0
2017-02-22 18:10:56 14.38 100355 63.14 0 0 0
2017-02-22 18:05:10 14.48 100343 62.49 0 0 0
2017-02-22 17:59:24 14.56 100335 61.91 0 0 0
2017-02-22 17:53:38 14.71 100332 61.54 0 0 0
2017-02-22 17:47:52 14.91 100328 61.49 0 0 0
2017-02-22 17:42:06 15.22 100322 60.36 0 0 0
2017-02-22 17:36:20 15.45 100319 59 0 0 0
2017-02-22 17:30:35 15.59 100317 58.71 0 0 0
2017-02-22 17:24:49 15.51 100318 59.41 0 0 0
2017-02-22 17:19:03 15.31 100322 59.96 0 0 0
2017-02-22 17:13:17 15.3 100329 60.53 0 0 0
2017-02-22 17:07:31 15.28 100339 61.75 0 0 0
2017-02-22 17:01:45 15.44 100339 61.49 0 0 0
2017-02-22 16:55:59 15.54 100339 61.62 0 0 0
2017-02-22 16:50:13 15.84 100335 60.51 0 0 0
2017-02-22 16:44:27 16.1 100327 59.26 0 0 0
2017-02-22 16:38:41 16.33 100331 57.53 0 0 0
2017-02-22 16:32:55 17.16 100325 54.9 0 0 0
2017-02-22 16:27:10 17.72 100319 52.09 0 0 0
2017-02-22 16:21:24 17.82 100319 50.36 0 0 0
2017-02-22 16:15:38 17.74 100319 49.99 0 0 0
2017-02-22 16:09:52 18.12 100321 46.28 0 0 0
2017-02-22 16:04:06 18.36 100317 42.3 0 0 0
2017-02-22 15:58:20 18.32 100314 42.31 0 0 0
2017-02-22 15:52:34 18.34 100309 41.74 0 0 0
2017-02-22 15:46:48 18.36 100307 41.51 0 0 0
2017-02-22 15:41:02 18.46 100305 41.46 0 0 0
2017-02-22 15:35:16 18.56 100307 41.43 0 0 0
2017-02-22 15:29:30 18.48 100311 41.41 0 0 0
2017-02-22 15:23:44 18.55 100319 42.46 0 0 0
2017-02-22 15:17:58 18.28 100323 43.6 0 0 0
2017-02-22 15:12:12 18.24 100324 47.19 0 0 0
2017-02-22 15:06:26 18.1 100326 47.85 0 0 0
2017-02-22 15:00:40 17.88 100334 48.25 0 0 0
2017-02-22 14:54:54 17.97 100334 47.58 0 0 0
2017-02-22 14:49:08 18.34 100338 47.11 0 0 0
2017-02-22 14:43:22 17.89 100345 48.13 0 0 0
2017-02-22 14:37:36 17.91 100350 48.39 0 0 0
2017-02-22 14:31:51 17.78 100357 48.62 0 0 0
2017-02-22 14:26:05 18.13 100357 47.84 0 0 0
2017-02-22 14:20:19 17.98 100363 48.21 0 0 0
2017-02-22 14:14:33 18.08 100366 46.89 0 0 0
2017-02-22 14:08:47 17.72 100374 48.26 0 0 0
2017-02-22 14:03:01 17.38 100387 49.48 0 0 0
2017-02-22 13:57:15 17.35 100397 50.27 0 0 0
2017-02-22 13:51:29 17.36 100408 51.52 0 0 0
2017-02-22 13:45:43 17.1 100416 51.77 0 0 0
2017-02-22 13:39:57 17.17 100415 51.94 0 0 0
2017-02-22 13:34:11 16.92 100417 53.08 0 0 0
2017-02-22 13:28:25 16.82 100413 53.73 0 0 0
2017-02-22 13:22:39 16.88 100427 56.25 0 0 0
2017-02-22 13:16:53 16.32 100439 58.4 0 0 0
2017-02-22 13:11:07 16.31 100445 56.8 0 0 0
2017-02-22 13:05:22 16.32 100455 56.5 0 0 0
2017-02-22 12:59:36 16.13 100467 57.52 0 0 0
2017-02-22 12:53:50 15.88 100468 59.04 0 0 0
2017-02-22 12:48:04 15.56 100471 59.42 0 0 0
2017-02-22 12:42:18 15.5 100480 60.57 0 0 0
2017-02-22 12:36:32 15.16 100484 62.04 0 0 0
2017-02-22 12:30:46 14.53 100495 63.64 0 0 0
2017-02-22 12:25:00 14.43 100500 64.08 0 0 0
2017-02-22 12:19:15 14.42 100509 64.5 0 0 0
2017-02-22 12:13:29 14.39 100516 64.47 0 0 0
2017-02-22 12:07:43 14.21 100522 64.89 0 0 0
2017-02-22 12:01:57 14.18 100528 64.25 0 0 0
2017-02-22 11:56:11 14.07 100523 63.93 0 0 0
2017-02-22 11:50:25 14.16 100521 63.21 0 0 0
2017-02-22 11:44:39 14.09 100515 63.89 0 0 0
2017-02-22 11:38:53 13.89 100505 64.7 0 0 0
2017-02-22 11:33:07 13.51 100493 66.99 0 0 0
2017-02-22 11:27:21 13.3 100490 68.84 0 0 0
2017-02-22 11:21:35 12.99 100496 70.85 0 0 0
2017-02-22 11:15:50 13 100494 70.33 0 0 0
2017-02-22 11:10:04 13.15 100492 69.82 0 0 0
2017-02-22 11:04:18 13.17 100492 70.95 0 0 0
2017-02-22 10:58:32 13.37 100488 69.79 0 0 0
2017-02-22 10:52:46 13.34 100484 70.33 0 0 0
2017-02-22 10:47:00 12.8 100490 73.27 0 0 0
2017-02-22 10:41:14 12.59 100494 73.77 0 0 0
2017-02-22 10:35:28 12.39 100493 75.37 0 0 0
2017-02-22 10:29:42 12.07 100500 77.27 0 0 0
2017-02-22 10:23:56 11.8 100499 79.38 0 0 0
2017-02-22 10:18:11 11.92 100504 78.71 0 0 0
2017-02-22 10:12:25 11.93 100503 78.28 0 0 0
2017-02-22 10:06:39 11.6 100506 80.25 0 0 0
2017-02-22 10:00:53 11.21 100514 81.03 0 0 0
2017-02-22 09:55:07 11.28 100511 81.36 0 0 0
2017-02-22 09:49:21 10.97 100504 83.1 0 0 0
2017-02-22 09:43:35 10.74 100497 84.39 0 0 0
2017-02-22 09:37:49 10.45 100502 84.77 0 0 0
2017-02-22 09:32:03 10.38 100509 84.48 0 0 0
2017-02-22 09:26:17 9.99 100517 86.8 0 0 0
2017-02-22 09:20:31 9.58 100525 88.95 0 0 0
2017-02-22 09:14:46 9.28 100528 90.68 0 0 0
2017-02-22 09:09:00 8.91 100536 92.8 0 0 0
2017-02-22 09:03:14 8.51 100539 94.45 0 0 0
2017-02-22 08:57:28 8.16 100540 96.9 0 0 0
2017-02-22 08:51:42 7.83 100540 99.95 0 0 0
2017-02-22 08:45:57 7.37 100543 99.99 0 0 0
2017-02-22 08:40:11 6.92 100543 99.99 0 0 0
2017-02-22 08:34:25 6.48 100538 99.99 0 0 0
2017-02-22 08:28:39 6.09 100539 99.99 0 0 0
2017-02-22 08:22:54 5.96 100542 99.99 0 0 0
2017-02-22 08:17:08 5.91 100542 99.99 0 0 0
2017-02-22 08:11:22 5.61 100539 99.99 0 0 0
2017-02-22 08:05:36 5.32 100538 99.99 0 0 0
2017-02-22 07:59:50 5.02 100541 99.99 0 0 0
2017-02-22 07:54:05 4.91 100538 99.99 0 0 0
2017-02-22 07:48:19 4.77 100536 99.99 0 0 0
2017-02-22 07:42:33 4.74 100537 99.99 0 0 0
2017-02-22 07:36:47 4.88 100540 99.99 0 0 0
2017-02-22 07:31:01 4.89 100538 99.99 0 0 0
2017-02-22 07:25:15 4.83 100534 99.99 0 0 0
2017-02-22 07:19:29 4.89 100532 99.99 0 0 0
2017-02-22 07:13:44 4.86 100532 99.99 0 0 0
2017-02-22 07:07:58 4.92 100527 99.99 0 0 0
2017-02-22 07:02:12 4.95 100532 99.99 0.56 0 0
2017-02-22 06:56:26 4.94 100529 99.99 0 0 0
2017-02-22 06:50:41 4.98 100524 99.99 0 0 0
2017-02-22 06:44:55 4.95 100526 99.99 0 0 0
2017-02-22 06:39:09 4.86 100521 99.99 0 0 0
2017-02-22 06:33:23 4.96 100519 99.99 0 0 0
2017-02-22 06:27:37 5.1 100511 99.99 0 0 0
2017-02-22 06:21:52 5.3 100516 99.99 0 0 0
2017-02-22 06:16:05 5.43 100522 99.99 0 0 0
2017-02-22 06:10:19 5.59 100520 99.99 0 0 0
2017-02-22 06:04:33 5.51 100523 99.99 0 0 0
2017-02-22 05:58:48 5.53 100529 99.99 0 0 0
2017-02-22 05:53:02 5.64 100528 99.99 0 0 0
2017-02-22 05:47:16 5.68 100529 99.99 0 0 0
2017-02-22 05:41:30 5.7 100530 99.99 0 0 0
2017-02-22 05:35:45 5.91 100521 99.99 0 0 0
2017-02-22 05:29:59 6.02 100515 99.99 0 0 0
2017-02-22 05:24:13 5.93 100514 99.99 0 0 0
2017-02-22 05:18:27 5.87 100509 99.99 0 0 0
2017-02-22 05:12:41 6.01 100505 99.99 0 0 0
2017-02-22 05:06:56 6.12 100507 99.99 0 0 0
2017-02-22 05:01:10 6 100507 99.99 0 0 0
2017-02-22 04:55:24 6.02 100509 99.99 0 0 0
2017-02-22 04:49:38 6.02 100503 99.99 0 0 0
2017-02-22 04:43:52 6.04 100508 99.99 0 0 0
2017-02-22 04:38:07 6.17 100503 99.99 0 0 0
2017-02-22 04:32:21 6.34 100500 99.99 0 0 0
2017-02-22 04:26:35 6.43 100495 99.99 0 0 0
2017-02-22 04:20:49 6.3 100496 99.99 0 0 0
2017-02-22 04:15:03 6.17 100500 99.99 0 0 0
2017-02-22 04:09:18 6.23 100500 99.99 0 0 0
2017-02-22 04:03:32 6.28 100496 99.99 0 0 0
2017-02-22 03:57:46 6.5 100496 99.99 0 0 0
2017-02-22 03:52:00 6.47 100504 99.99 0 0 0
2017-02-22 03:46:14 6.39 100511 99.99 0 0 0
2017-02-22 03:40:29 6.45 100514 99.99 0 0 0
2017-02-22 03:34:43 6.66 100526 99.99 0 0 0
2017-02-22 03:28:57 6.7 100524 99.99 0 0 0
2017-02-22 03:23:11 6.73 100526 99.99 0 0 0
2017-02-22 03:17:26 6.81 100528 99.99 0 0 0
2017-02-22 03:11:40 6.71 100533 99.99 0 0 0
2017-02-22 03:05:54 6.74 100540 99.99 0 0 0
2017-02-22 02:54:22 6.95 100554 99.99 0 0 0
2017-02-22 02:48:37 7.05 100557 99.99 0 0 0
2017-02-22 02:42:51 7.13 100555 99.99 0 0 0
2017-02-22 02:37:05 7.2 100556 99.99 0 0 0
2017-02-22 02:31:19 7.31 100556 99.99 0 0 0
2017-02-22 02:25:33 7.23 100552 99.99 0 0 0
2017-02-22 02:19:47 7.19 100559 99.99 0 0 0
2017-02-22 02:14:02 7.38 100558 99.99 0 0 0
2017-02-22 02:08:16 7.53 100564 99.99 0 0 0
2017-02-22 02:02:30 7.53 100565 99.99 0 0 0
2017-02-22 01:56:44 7.7 100561 99.99 0 0 0
2017-02-22 01:50:58 7.83 100556 99.99 0 0 0
2017-02-22 01:45:13 7.86 100550 99.99 0 0 0
2017-02-22 01:39:27 7.89 100547 99.99 0 0 0
2017-02-22 01:33:41 7.97 100547 99.99 0 0 0
2017-02-22 01:27:55 8.05 100548 99.99 0 0 0
2017-02-22 01:22:09 8.02 100547 99.99 0 0 0
2017-02-22 01:16:24 8 100547 99.99 0 0 0
2017-02-22 01:10:38 8.12 100547 99.99 0 0 0
2017-02-22 01:04:52 8.17 100549 99.99 0 0 0
2017-02-22 00:59:06 8.1 100544 99.99 0 0 0
2017-02-22 00:53:20 8.09 100540 99.74 0 0 0
2017-02-22 00:47:35 8.3 100543 96.3 0 0 0
2017-02-22 00:41:49 8.55 100537 93.45 0 0 0
2017-02-22 00:36:03 8.83 100537 92.01 0 0 0
2017-02-22 00:30:17 8.99 100537 91.17 0 0 0
2017-02-22 00:24:31 9.17 100532 89.34 0 0 0
2017-02-22 00:18:45 9.52 100527 87.66 0 0 0
2017-02-22 00:13:00 9.77 100519 86.54 0 0 0
2017-02-22 00:07:14 9.82 100516 86.39 0 0 0
2017-02-22 00:01:28 9.88 100515 85.7 0 0 0
2017-02-21 23:55:42 9.99 100505 84.94 0 0 0
2017-02-21 23:49:56 10.1 100504 83.55 0 0 0
2017-02-21 23:44:11 10.24 100501 81.97 0 0 0
2017-02-21 23:38:25 10.37 100496 79.13 0 0 0
2017-02-21 23:32:39 10.67 100487 77.75 0 0 0
2017-02-21 23:26:53 10.93 100487 75.57 0 0 0
2017-02-21 23:21:07 11.39 100475 73.75 0 0 0
2017-02-21 23:15:21 11.54 100473 72.83 0 0 0
2017-02-21 23:09:35 11.71 100470 71.18 0 0 0
2017-02-21 23:03:49 12.22 100464 68.66 0 0 0
2017-02-21 22:58:03 12.78 100452 66.39 0 0 0
2017-02-21 22:52:18 12.83 100452 66.59 0 0 0
2017-02-21 22:46:32 12.87 100457 66.16 0 0 0
2017-02-21 22:40:46 13.03 100454 65.33 0 0 0
2017-02-21 22:35:00 13.26 100450 64.35 0 0 0
2017-02-21 22:29:14 13.34 100456 64.05 0 0 0
2017-02-21 22:23:28 13.54 100451 63.33 0 0 0
2017-02-21 22:17:42 13.72 100444 62.65 0 0 0
2017-02-21 22:11:56 13.74 100437 62.58 0 0 0
2017-02-21 22:06:10 13.88 100438 62.29 0 0 0
2017-02-21 21:54:39 14.13 100438 61.24 0 0 0
2017-02-21 21:48:53 14.21 100433 60.99 0 0 0
2017-02-21 21:43:07 14.45 100422 60.01 0 0 0
2017-02-21 21:37:21 14.41 100417 60.32 0 0 0
2017-02-21 21:31:35 14.45 100421 60.21 0 0 0
2017-02-21 21:25:49 14.56 100424 59.92 0 0 0
2017-02-21 21:20:03 14.56 100427 60.05 0 0 0
2017-02-21 21:14:17 14.71 100420 59.42 0 0 0
2017-02-21 21:08:32 14.67 100420 59.94 0 0 0
2017-02-21 21:02:46 14.74 100419 59.79 0 0 0
2017-02-21 20:57:00 14.71 100418 60.03 0 0 0
2017-02-21 20:51:14 14.62 100424 60.45 0 0 0
2017-02-21 20:45:28 14.52 100427 60.83 0 0 0
2017-02-21 20:39:42 14.75 100422 59.92 0 0 0
2017-02-21 20:33:56 14.67 100425 60.23 0 0 0
2017-02-21 20:28:10 14.77 100420 59.83 0 0 0
2017-02-21 20:22:24 14.91 100421 59.3 0 0 0
2017-02-21 20:16:38 15.03 100416 58.73 0 0 0
2017-02-21 20:10:53 15.11 100416 58.37 0 0 0
2017-02-21 20:05:07 15.11 100412 58.39 0 0 0
2017-02-21 19:59:21 15.2 100410 58.09 0 0 0
2017-02-21 19:53:35 15.4 100404 57.29 0 0 0
2017-02-21 19:47:49 15.36 100397 57.7 0 0 0
2017-02-21 19:42:03 15.35 100395 57.73 0 0 0
2017-02-21 19:36:17 15.47 100391 57.3 0 0 0
2017-02-21 19:30:32 15.56 100390 57.14 0 0 0
2017-02-21 19:24:45 15.59 100387 57.11 0 0 0
2017-02-21 19:18:59 15.53 100390 57.47 0 0 0
2017-02-21 19:13:14 15.64 100384 57.1 0 0 0
2017-02-21 19:07:28 15.71 100385 56.88 0 0 0
2017-02-21 19:01:42 15.84 100385 56.44 0 0 0
2017-02-21 18:55:56 15.87 100383 56.34 0 0 0
2017-02-21 18:50:10 16.01 100382 55.78 0 0 0
2017-02-21 18:44:24 16.15 100375 55.17 0 0 0
2017-02-21 18:38:38 16.25 100375 54.75 0 0 0
2017-02-21 18:32:52 16.31 100375 54.55 0 0 0
2017-02-21 18:27:06 16.42 100369 54.16 0 0 0
2017-02-21 18:21:21 16.53 100359 53.79 0 0 0
2017-02-21 18:15:35 16.65 100351 53.37 0 0 0
2017-02-21 18:09:49 16.85 100349 52.65 0 0 0
2017-02-21 18:04:03 17.02 100349 52.05 0 0 0
2017-02-21 17:58:17 17.09 100347 51.92 0 0 0
2017-02-21 17:52:31 17.25 100342 51.6 0 0 0
2017-02-21 17:46:45 17.52 100338 51.03 0 0 0
2017-02-21 17:40:59 17.73 100333 50.47 0 0 0
2017-02-21 17:35:13 17.84 100333 50.53 0 0 0
2017-02-21 17:29:27 17.8 100333 50.86 0 0 0
2017-02-21 17:23:41 17.89 100333 50.56 0 0 0
2017-02-21 17:17:55 17.97 100337 50.37 0 0 0
2017-02-21 17:12:09 18.05 100327 50.25 0 0 0
2017-02-21 17:06:23 18.09 100332 50.3 0 0 0
2017-02-21 17:00:38 18.25 100333 50.32 0 0 0
2017-02-21 16:54:52 18.53 100328 50.03 0 0 0
2017-02-21 16:49:06 18.47 100321 50.38 0 0 0
2017-02-21 16:43:20 18.37 100316 50.18 0 0 0
2017-02-21 16:37:34 18.55 100311 49.58 0 0 0
2017-02-21 16:31:48 18.8 100308 48.53 0 0 0
2017-02-21 16:26:02 18.82 100307 48.1 0 0 0
2017-02-21 16:20:16 18.73 100302 48.23 0 0 0
2017-02-21 16:14:30 18.75 100294 48 0 0 0
2017-02-21 16:08:45 18.86 100303 47.88 0 0 0
2017-02-21 16:02:59 18.93 100316 47.92 0 0 0
2017-02-21 15:57:13 18.84 100320 48.18 0 0 0
2017-02-21 15:51:27 18.84 100323 48.01 0 0 0
2017-02-21 15:45:41 18.9 100321 47.63 0 0 0
2017-02-21 15:39:55 19.05 100331 47.41 0 0 0
2017-02-21 15:34:09 19.06 100336 47.19 0 0 0
2017-02-21 15:28:23 18.94 100338 47.41 0 0 0
2017-02-21 15:22:37 19.03 100341 47.08 0 0 0
2017-02-21 15:16:51 19.29 100341 47.31 0 0 0
2017-02-21 15:11:05 19.23 100344 47.46 0 0 0
2017-02-21 15:05:19 19.02 100348 47.08 0 0 0
2017-02-21 14:59:33 19.21 100354 48.02 0 0 0
2017-02-21 14:53:47 18.74 100351 48.8 0 0 0
2017-02-21 14:48:01 18.9 100364 48.98 0 0 0
2017-02-21 14:42:16 18.58 100363 49.17 0 0 0
2017-02-21 14:36:30 18.69 100369 49.26 0 0 0
2017-02-21 14:30:44 18.44 100365 49.86 0 0 0
2017-02-21 14:24:58 18.33 100374 50.51 0 0 0
2017-02-21 14:19:12 18.56 100385 50.6 0 0 0
2017-02-21 14:13:26 18.44 100395 51.35 0 0 0
2017-02-21 14:07:40 17.93 100407 52.7 0 0 0
2017-02-21 14:01:54 17.69 100429 53.75 0 0 0
2017-02-21 13:56:08 17.23 100445 54.49 0 0 0
2017-02-21 13:50:22 17.28 100455 53.84 0 0 0
2017-02-21 13:44:36 16.98 100467 53.59 0 0 0
2017-02-21 13:38:50 16.64 100479 54.28 0 0 0
2017-02-21 13:33:04 16.35 100492 54.69 0 0 0
2017-02-21 13:27:19 16.16 100497 54.31 0 0 0
2017-02-21 13:21:33 15.98 100505 53.49 0 0 0
2017-02-21 13:15:47 15.99 100517 53.08 0 0 0
2017-02-21 13:10:01 15.79 100538 52.77 0 0 0
2017-02-21 13:04:15 15.54 100547 53.71 0 0 0
2017-02-21 12:58:29 15.25 100557 53.91 0 0 0
2017-02-21 12:52:43 15.18 100564 54.27 0 0 0
2017-02-21 12:46:57 14.83 100578 54.79 0 0 0
2017-02-21 12:41:11 14.72 100593 54.3 0 0 0
2017-02-21 12:35:25 14.69 100592 53.73 0 0 0
2017-02-21 12:29:39 14.73 100595 52.45 0 0 0
2017-02-21 12:23:54 14.4 100600 51.82 0 0 0
2017-02-21 12:18:08 14.75 100600 50.61 0 0 0
2017-02-21 12:12:22 15.01 100608 50.72 0 0 0
2017-02-21 12:06:36 15.02 100611 51.55 0 0 0
2017-02-21 12:00:50 14.96 100605 52.08 0 0 0
2017-02-21 11:55:04 14.45 100615 53.49 0 0 0
2017-02-21 11:49:18 13.87 100629 54.68 0 0 0
2017-02-21 11:43:32 13.75 100634 55.2 0 0 0
2017-02-21 11:37:46 13.72 100638 55.5 0 0 0
2017-02-21 11:32:00 13.59 100646 56.43 0 0 0
2017-02-21 11:26:14 13.27 100647 57.21 0 0 0
2017-02-21 11:20:28 13.06 100646 58 0 0 0
2017-02-21 11:14:43 12.86 100654 58.95 0 0 0
2017-02-21 11:08:57 12.74 100654 59.51 0 0 0
2017-02-21 11:03:11 12.64 100656 60.1 0 0 0
2017-02-21 10:57:25 12.47 100658 60.53 0 0 0
2017-02-21 10:51:39 12.26 100669 61.31 0 0 0
2017-02-21 10:45:53 12.25 100663 61.61 0 0 0
2017-02-21 10:40:07 11.81 100658 62.76 0 0 0
2017-02-21 10:34:21 11.4 100670 64.51 0 0 0
2017-02-21 10:23:21 11.11 100675 66.14 0 0 0
2017-02-21 10:17:35 10.75 100684 68 0 0 0
2017-02-21 10:11:49 10.52 100684 70.33 0 0 0
2017-02-21 10:06:03 10.38 100690 72.1 0 0 0
2017-02-21 09:54:32 10.07 100685 74.66 0 0 0
2017-02-21 09:48:46 9.97 100691 75.28 0 0 0
2017-02-20 16:47:19 17.2 100649 27.5 0 0 0
2017-02-20 16:41:33 17.19 100653 26.63 0 0 0
2017-02-20 16:35:47 17.31 100660 26.49 0 0 0
2017-02-20 16:30:01 17.14 100669 27.13 0 0 0
2017-02-20 16:24:15 16.78 100671 27.34 0 0 0
2017-02-20 16:18:29 16.8 100673 27.54 0 0 0
2017-02-20 16:12:43 17.13 100672 26.74 0 0 0
2017-02-20 16:06:57 17.16 100670 27.04 0 0 0
2017-02-20 16:01:12 16.7 100671 27.8 0 0 0
2017-02-20 15:55:26 16.96 100674 27.53 0 0 0
2017-02-20 15:49:40 16.99 100675 27.21 0 0 0
2017-02-20 15:43:54 16.75 100668 27.97 0 0 0
2017-02-20 15:38:08 16.78 100664 27.63 0 0 0
2017-02-20 15:32:22 16.68 100668 27.53 0 0 0
2017-02-20 15:26:36 16.24 100672 27.71 0 0 0
2017-02-20 15:20:50 16.53 100670 26.94 0 0 0
2017-02-20 15:15:04 16.33 100666 27.15 0 0 0
2017-02-20 15:09:18 16.21 100664 27.16 0 0 0
2017-02-20 15:03:32 16.09 100666 26.95 0 0 0
2017-02-20 14:57:46 16.12 100668 27.31 0 0 0
2017-02-20 14:52:00 16 100672 26.55 0 0 0
2017-02-20 14:46:14 15.81 100674 26.09 0 0 0
2017-02-20 14:40:28 15.86 100669 25.99 0 0 0
2017-02-20 14:34:42 15.88 100668 26.55 0 0 0
2017-02-20 14:28:57 16.17 100663 25.52 0 0 0
2017-02-20 14:23:11 16.24 100669 25.47 0 0 0
2017-02-20 14:17:25 15.91 100676 25.77 0.28 0 0
2017-02-20 14:11:39 16.91 100678 25.17 0 0 0
2017-02-20 14:05:53 16.64 100684 25.18 0 0 0
2017-02-20 13:54:21 16.17 100699 25.87 0 0 0
2017-02-20 13:48:35 16.09 100706 26.17 0 0 0
2017-02-20 13:42:49 15.67 100713 27.01 0 0 0
2017-02-20 13:37:03 15.71 100723 26.95 0 0 0
2017-02-20 13:31:17 15.76 100730 26.56 0 0 0
2017-02-20 13:25:31 15.62 100739 26.97 0 0 0
2017-02-20 13:19:46 15.51 100738 27.18 0 0 0
2017-02-20 13:14:00 15.65 100739 26.94 0 0 0
2017-02-20 13:08:14 15.34 100739 26.45 0 0 0
2017-02-20 13:02:28 15.08 100740 26.91 0 0 0
2017-02-20 12:56:42 15.21 100745 30.06 0 0 0
2017-02-20 12:50:56 14.95 100746 29.97 0 0 0
2017-02-20 12:45:10 14.59 100750 29.65 0 0 0
2017-02-20 12:39:24 14.53 100757 30.57 0 0 0
2017-02-20 12:33:38 14.17 100770 32.34 0 0 0
2017-02-20 12:27:52 13.79 100782 34.52 0 0 0
2017-02-20 12:22:06 13.77 100785 35.19 0 0 0
2017-02-20 12:16:20 13.68 100796 35.75 0 0 0
2017-02-20 12:10:34 13.72 100797 35.63 0 0 0
2017-02-20 12:04:49 13.86 100801 36.1 0 0 0
2017-02-20 11:59:03 13.48 100803 37.06 0 0 0
2017-02-20 11:53:17 13.31 100807 38.01 0 0 0
2017-02-20 11:47:31 13.03 100804 38.55 0 0 0
2017-02-20 11:41:45 13.3 100802 38.1 0 0 0
2017-02-20 11:35:59 13.29 100806 37.61 0 0 0
2017-02-20 11:30:13 13.1 100811 37.04 0 0 0
2017-02-20 11:24:27 13 100815 36.56 0 0 0
2017-02-20 11:18:41 12.96 100818 36.7 0 0 0
2017-02-20 11:12:55 13.02 100818 36.87 0 0 0
2017-02-20 11:07:09 13.28 100817 35.97 0 0 0
2017-02-20 11:01:23 13.35 100821 36.17 0 0 0
2017-02-20 10:55:37 12.99 100822 37.93 0 0 0
2017-02-20 10:49:51 12.5 100821 39.53 0 0 0
2017-02-20 10:44:05 12.15 100815 39.7 0 0 0
2017-02-20 10:38:19 12.24 100810 39.42 0 0 0
2017-02-20 10:32:33 12.23 100807 40.32 0 0 0
2017-02-20 10:26:47 11.69 100802 42.61 0 0 0
2017-02-20 10:21:01 11.72 100801 42.46 0 0 0
2017-02-20 10:15:15 11.47 100800 43.68 0 0 0
2017-02-20 10:09:30 11.23 100802 44.46 0 0 0
2017-02-20 10:03:44 10.86 100797 45.64 0 0 0
2017-02-20 09:57:58 10.64 100796 46.55 0 0 0
2017-02-20 09:52:12 10.33 100792 47.86 0 0 0
2017-02-20 09:46:26 10.24 100795 48.35 0 0 0
2017-02-20 09:40:40 9.76 100790 51.07 0 0 0
2017-02-20 09:34:54 9.18 100797 51.81 0 0 0
2017-02-20 09:29:08 8.92 100788 51.89 0 0 0
2017-02-20 09:23:22 8.76 100791 52.47 0 0 0
2017-02-20 09:17:36 8.5 100789 53.48 0 0 0
2017-02-20 09:11:51 8.15 100779 55.28 0 0 0
2017-02-20 09:06:05 8.1 100777 55.58 0 0 0
2017-02-20 08:54:33 7.07 100775 59.33 0 0 0
2017-02-20 08:48:47 6.62 100761 61.14 0 0 0
2017-02-20 08:43:02 6.19 100761 62.16 0 0 0
2017-02-20 08:37:16 5.73 100759 64.74 0 0 0
2017-02-20 08:31:30 5.24 100769 66.66 0 0 0
2017-02-20 08:25:44 4.87 100758 67.97 0 0 0
2017-02-20 08:19:58 4.88 100751 67.7 0 0 0
2017-02-20 08:14:12 4.87 100751 68.29 0 0 0
2017-02-20 08:08:26 4.4 100758 69.42 0 0 0
2017-02-20 08:02:40 4.37 100759 69.1 0 0 0
2017-02-20 07:56:55 4.42 100758 68.31 0 0 0
2017-02-20 07:51:09 4.02 100757 69.69 0 0 0
2017-02-20 07:45:23 3.65 100764 72.17 0 0 0
2017-02-20 07:39:37 3.91 100755 70.04 0 0 0
2017-02-20 07:33:51 3.97 100740 69.46 0 0 0
2017-02-20 07:28:06 4.09 100741 69.1 0 0 0
2017-02-20 07:22:20 4.31 100741 67.22 0 0 0
2017-02-20 07:16:34 4.72 100742 66.73 0 0 0
2017-02-20 07:10:48 4.73 100735 66.67 0 0 0
2017-02-20 07:05:02 4.65 100736 68.07 0 0 0
2017-02-20 06:59:17 4.56 100734 68.86 0 0 0
2017-02-20 06:53:31 4.63 100727 68.22 0 0 0
2017-02-20 06:47:45 4.75 100723 66.75 0 0 0
2017-02-20 06:41:59 4.82 100720 66.69 0 0 0
2017-02-20 06:36:13 4.88 100709 65.99 0 0 0
2017-02-20 06:30:27 5.23 100699 64.35 0 0 0
2017-02-20 06:24:42 5.39 100686 63.75 0 0 0
2017-02-20 06:18:56 5.57 100682 63.25 0 0 0
2017-02-20 06:13:10 5.78 100681 62.14 0 0 0
2017-02-20 06:07:24 5.87 100681 61.77 0 0 0
2017-02-20 06:01:38 6 100675 61.29 0 0 0
2017-02-20 05:55:53 6.43 100669 59.32 0 0 0
2017-02-20 05:50:07 6.8 100665 57.28 0 0 0
2017-02-20 05:44:21 7.07 100661 55.55 0 0 0
2017-02-20 05:38:35 7.7 100657 53.21 0 0 0
2017-02-20 05:32:49 7.67 100660 53.15 0 0 0
2017-02-20 05:27:04 7.86 100663 51.81 0 0 0
2017-02-20 05:21:18 8.09 100654 50.66 0 0 0
2017-02-20 05:15:32 8.24 100647 49.82 0 0 0
2017-02-20 05:09:46 8.34 100633 49.04 0 0 0
2017-02-20 05:04:00 8.54 100631 47.74 0 0 0
2017-02-20 04:58:15 8.55 100629 47.7 0 0 0
2017-02-20 04:52:29 8.62 100637 47.4 0 0 0
2017-02-20 04:46:43 8.77 100636 46.75 0 0 0
2017-02-20 04:40:57 8.86 100649 46.83 0 0 0
2017-02-20 04:35:11 8.96 100646 45.93 0 0 0
2017-02-20 04:29:25 9.15 100644 46.18 0 0 0
2017-02-20 04:23:40 9.06 100646 46.26 0 0 0
2017-02-20 04:17:54 9.08 100644 46.05 0 0 0
2017-02-20 04:12:08 9.31 100644 46.04 0 0 0
2017-02-20 04:06:22 9.13 100652 49.13 0 0 0
2017-02-20 04:00:36 9.1 100650 51.23 0 0 0
2017-02-20 03:54:51 9.2 100651 53.18 0 0 0
2017-02-20 03:49:05 9.4 100661 53.05 0 0 0
2017-02-20 03:43:19 9.39 100666 52.86 0 0 0
2017-02-20 03:37:33 9.4 100660 54.26 0 0 0
2017-02-20 03:31:48 9.31 100667 57.93 0 0 0
2017-02-20 03:26:02 9.28 100669 61.6 0 0 0
2017-02-20 03:20:16 9.24 100666 62.44 0 0 0
2017-02-20 03:14:30 9.23 100660 63.12 0 0 0
2017-02-20 03:08:44 9.17 100666 64.67 0 0 0
2017-02-20 03:02:58 8.95 100677 67.17 0 0 0
2017-02-20 02:57:12 8.8 100687 68.79 0 0 0
2017-02-20 02:51:26 9.1 100688 68.2 0 0 0
2017-02-20 02:45:41 9.43 100688 65.23 0 0 0
2017-02-20 02:39:55 9.2 100697 66.27 0 0 0
2017-02-20 02:34:09 8.98 100705 68.09 0 0 0
2017-02-20 02:28:23 9.04 100711 67.74 0 0 0
2017-02-20 02:22:37 9.13 100713 67.21 0 0 0
2017-02-20 02:16:52 9.11 100721 67.25 0 0 0
2017-02-20 02:11:06 9.09 100728 67.8 0 0 0
2017-02-20 02:05:20 9.02 100732 68.59 0 0 0
2017-02-20 01:59:34 8.97 100736 71.05 0 0 0
2017-02-20 01:53:48 9.01 100737 72.55 0 0 0
2017-02-20 01:48:03 9.07 100734 74.57 0 0 0
2017-02-20 01:42:17 9.01 100741 78.26 0 0 0
2017-02-20 01:36:31 8.9 100749 89.31 0 0 0
2017-02-20 01:30:45 8.57 100756 92.05 0 0 0
2017-02-20 01:24:59 7.95 100758 99.99 0 0 0
2017-02-20 01:19:14 7.7 100764 99.99 0 0 0
2017-02-20 01:13:28 7.66 100768 99.99 0 0 0
2017-02-20 01:07:42 7.57 100778 99.99 0 0 0
2017-02-20 01:01:56 7.51 100780 99.99 0 0 0
2017-02-20 00:56:10 7.9 100780 99.99 0 0 0
2017-02-20 00:50:24 8.51 100782 99.99 0 0 0
2017-02-20 00:44:39 8.52 100778 99.99 0 0 0
2017-02-20 00:38:53 8.57 100777 99.99 0 0 0
2017-02-20 00:33:07 8.8 100774 99.99 0 0 0
2017-02-20 00:27:21 8.98 100777 99.99 0 0 0
2017-02-20 00:21:35 9.03 100778 99.99 0 0 0
2017-02-20 00:15:50 9.06 100776 99.99 0 0 0
2017-02-20 00:10:04 9.11 100776 99.99 0 0 0
2017-02-20 00:04:18 9.18 100780 99.99 0 0 0
2017-02-19 23:58:32 9.11 100787 99.99 0 0 0
2017-02-19 23:52:46 8.72 100786 99.99 0 0 0
2017-02-19 23:47:01 8.63 100789 99.99 0 0 0
2017-02-19 23:41:15 8.83 100791 99.99 0 0 0
2017-02-19 23:35:29 8.8 100792 99.99 0 0 0
2017-02-19 23:29:43 8.59 100790 99.99 0 0 0
2017-02-19 23:23:57 8.54 100796 99.99 0 0 0
2017-02-19 23:18:12 8.43 100801 99.99 0 0 0
2017-02-19 23:12:26 8.37 100809 99.99 0 0 0
2017-02-19 23:06:40 8.18 100815 99.99 0 0 0
2017-02-19 23:00:54 7.83 100820 99.99 0 0 0
2017-02-19 22:55:08 7.81 100823 99.99 0 0 0
2017-02-19 22:49:23 7.93 100826 99.99 0 0 0
2017-02-19 22:43:37 8.05 100830 99.99 0 0 0
2017-02-19 22:37:51 8.15 100838 99.99 0 0 0
2017-02-19 22:32:05 8.15 100847 99.99 0 0 0
2017-02-19 22:26:19 8.1 100846 99.99 0 0 0
2017-02-19 22:20:34 8.01 100847 99.99 0 0 0
2017-02-19 22:14:48 7.98 100845 99.99 0 0 0
2017-02-19 22:09:02 7.96 100850 99.99 0 0 0
2017-02-19 22:03:16 7.92 100857 99.99 0 0 0
2017-02-19 21:57:30 7.97 100860 99.99 0 0 0
2017-02-19 21:51:45 8.13 100859 99.99 0 0 0
2017-02-19 21:45:59 8.16 100859 99.99 0 0 0
2017-02-19 21:40:13 8.22 100857 99.99 0 0 0
2017-02-19 21:34:27 8.25 100858 99.99 0 0 0
2017-02-19 21:28:41 8.22 100870 99.99 0 0 0
2017-02-19 21:22:56 8.17 100880 99.99 0 0 0
2017-02-19 21:17:10 8.22 100880 99.48 0 0 0
2017-02-19 21:11:24 8.41 100879 94.55 0 0 0
2017-02-19 21:05:38 8.63 100878 89.71 0 0 0
2017-02-19 20:59:52 8.65 100884 88.36 0 0 0
2017-02-19 20:54:07 8.78 100882 87.56 0 0 0
2017-02-19 20:48:21 8.95 100881 84.81 0 0 0
2017-02-19 20:42:35 9.01 100882 82.34 0 0 0
2017-02-19 20:36:49 8.92 100881 81.78 0 0 0
2017-02-19 20:31:03 9.02 100881 81.75 0 0 0
2017-02-19 20:25:17 9.12 100881 81.99 0 0 0
2017-02-19 20:19:32 9.24 100883 82.3 0 0 0
2017-02-19 20:13:46 9.29 100886 81.53 0 0 0
2017-02-19 20:08:00 9.24 100891 83.04 0 0 0
2017-02-19 20:02:14 9.13 100899 84.62 0 0 0
2017-02-19 19:56:28 9.15 100902 87.12 0 0 0
2017-02-19 19:50:43 9.21 100902 87.66 0 0 0
2017-02-19 19:44:57 9.49 100902 86.88 0 0 0
2017-02-19 19:39:11 9.88 100901 87.05 0 0 0
2017-02-19 19:33:25 10.24 100904 87.96 0 0 0
2017-02-19 19:27:39 10.61 100901 88.39 0 0 0
2017-02-19 19:21:53 10.81 100899 90.2 0 0 0
2017-02-19 19:16:08 10.94 100894 89.28 0 0 0
2017-02-19 19:10:22 11.07 100889 87.53 0 0 0
2017-02-19 19:04:36 11.25 100881 85.34 0 0 0
2017-02-19 18:58:50 11.41 100876 83 0 0 0
2017-02-19 18:53:04 11.61 100868 81.4 0 0 0
2017-02-19 18:47:18 11.75 100870 80.13 0 0 0
2017-02-19 18:41:32 11.88 100870 78.58 0 0 0
2017-02-19 18:35:46 12 100868 76.64 0 0 0
2017-02-19 18:30:00 12.08 100869 75.35 0 0 0
2017-02-19 18:24:14 12.14 100864 75.29 0 0 0
2017-02-19 18:18:29 12.19 100859 75.99 0 0 0
2017-02-19 18:12:43 12.26 100848 74.89 0 0 0
2017-02-19 18:06:57 12.39 100844 73.44 0 0 0
2017-02-19 18:01:11 12.53 100836 72.08 0 0 0
2017-02-19 17:55:25 12.73 100827 71 0 0 0
2017-02-19 17:49:39 12.92 100826 69.34 0 0 0
2017-02-19 17:43:53 13.01 100824 68.75 0 0 0
2017-02-19 17:38:07 13.08 100820 67.44 0 0 0
2017-02-19 17:32:21 13.23 100825 66.43 0 0 0
2017-02-19 17:26:36 13.19 100827 66.51 0 0 0
2017-02-19 17:20:50 13.11 100837 66.21 0 0 0
2017-02-19 17:15:04 13.04 100843 64.96 0 0 0
2017-02-19 17:09:18 13.18 100850 62.67 0 0 0
2017-02-19 17:03:32 13.12 100851 58.92 0 0 0
2017-02-19 16:57:46 13.28 100850 55.27 0 0 0
2017-02-19 16:52:00 13.76 100852 51.65 0 0 0
2017-02-19 16:46:14 13.89 100852 49.95 0 0 0
2017-02-19 16:40:29 13.69 100855 49.22 0 0 0
2017-02-19 16:34:45 13.88 100846 47.75 0 0 0
2017-02-19 16:28:56 13.89 100846 46.82 0 0 0
2017-02-19 16:23:10 14.08 100847 47.28 0 0 0
2017-02-19 16:17:24 13.99 100859 47.25 0 0 0
2017-02-19 16:11:38 13.77 100865 48.86 0 0 0
2017-02-19 16:05:52 13.59 100872 50.41 0 0 0
2017-02-19 15:54:21 13.73 100874 49.29 0 0 0
2017-02-19 15:48:35 14.04 100873 47.96 0 0 0
2017-02-19 15:42:49 14.43 100876 42.44 0 0 0
2017-02-19 15:37:03 14.29 100885 39.61 0 0 0
2017-02-19 15:31:17 14.38 100892 40.21 0 0 0
2017-02-19 15:25:31 14.11 100901 40.02 0 0 0
2017-02-19 15:19:45 14.04 100906 40.81 0 0 0
2017-02-19 15:14:00 14.17 100913 42.86 0 0 0
2017-02-19 15:08:14 13.97 100922 44.5 0 0 0
2017-02-19 15:02:28 14.11 100925 43.97 0 0 0
2017-02-19 14:56:42 14.49 100928 43.81 0 0 0
2017-02-19 14:50:56 14.49 100929 42.4 0 0 0
2017-02-19 14:45:10 14.45 100935 42.78 0 0 0
2017-02-19 14:39:24 14.47 100940 43.05 0 0 0
2017-02-19 14:33:38 14.69 100944 42.74 0 0 0
2017-02-19 14:27:52 14.42 100948 43.19 0 0 0
2017-02-19 14:22:06 14.74 100955 41.95 0 0 0
2017-02-19 14:16:21 14.45 100961 40.76 0 0 0
2017-02-19 14:10:35 14.62 100962 40.93 0 0 0
2017-02-19 14:04:49 14.31 100968 42.76 0 0 0
2017-02-19 13:59:03 14.41 100973 41.2 0 0 0
2017-02-19 13:53:17 14.47 100983 42.37 0 0 0
2017-02-19 13:47:31 14.42 100995 45.03 0 0 0
2017-02-19 13:41:45 14.29 101002 45.7 0 0 0
2017-02-19 13:35:59 14.19 101009 45.05 0 0 0
2017-02-19 13:30:13 14.2 101017 45.43 0 0 0
2017-02-19 13:24:27 14.25 101025 45.47 0 0 0
2017-02-19 13:18:41 14.27 101031 43.65 0 0 0
2017-02-19 13:12:56 14.38 101040 42.36 0 0 0
2017-02-19 13:07:10 14.14 101050 42.51 0 0 0
2017-02-19 13:01:24 13.81 101058 44.67 0 0 0
2017-02-19 12:55:38 13.88 101070 44.67 0 0 0
2017-02-19 12:49:52 13.83 101078 44.65 0 0 0
2017-02-19 12:44:06 13.92 101086 45.13 0 0 0
2017-02-19 12:38:20 13.97 101091 43.13 0 0 0
2017-02-19 12:32:34 14.09 101102 42.54 0 0 0
2017-02-19 12:26:48 13.9 101108 43.61 0 0 0
2017-02-19 12:21:02 13.98 101114 42.68 0 0 0
2017-02-19 12:15:17 13.93 101116 43.31 0 0 0
2017-02-19 12:09:31 13.97 101116 43.05 0 0 0
2017-02-19 12:03:45 13.82 101119 42.4 0 0 0
2017-02-19 11:57:59 13.74 101124 41 0 0 0
2017-02-19 11:52:13 14.04 101119 39.8 0 0 0
2017-02-19 11:46:27 13.92 101120 39.97 0 0 0
2017-02-19 11:40:41 13.89 101126 40.26 0 0 0
2017-02-19 11:34:55 13.77 101127 40.31 0 0 0
2017-02-19 11:29:09 13.83 101127 40.84 0 0 0
2017-02-19 11:23:24 13.79 101127 41.5 0 0 0
2017-02-19 11:17:38 13.73 101126 41.54 0 0 0
2017-02-19 11:11:52 13.79 101129 41.45 0 0 0
2017-02-19 11:06:06 13.75 101131 41.47 0 0 0
2017-02-19 10:54:34 13.4 101135 42.78 0 0 0
2017-02-19 10:48:48 13.39 101137 43.53 0 0 0
2017-02-19 10:43:02 13.42 101137 44.14 0 0 0
2017-02-19 10:37:16 13.42 101136 44.2 0 0 0
2017-02-19 10:31:31 13.41 101140 45.76 0 0 0
2017-02-19 10:25:45 13.28 101142 46.54 0 0 0
2017-02-19 10:19:59 12.82 101142 49.33 0 0 0
2017-02-19 10:14:13 12.45 101143 50.19 0 0 0
2017-02-19 10:08:27 12.19 101143 52.9 0 0 0
2017-02-19 10:02:41 11.87 101139 54.38 0 0 0
2017-02-19 09:56:55 11.46 101137 55.54 0 0 0
2017-02-19 09:51:09 11.22 101136 58.32 0 0 0
2017-02-19 09:45:23 10.68 101137 59.8 0 0 0
2017-02-19 09:39:37 9.97 101138 60.75 0 0 0
2017-02-19 09:33:51 9.86 101137 61.28 0 0 0
2017-02-19 09:28:06 9.66 101137 61.72 0 0 0
2017-02-19 09:22:20 9.45 101138 62.75 0 0 0
2017-02-19 09:16:34 9.09 101139 64.79 0 0 0
2017-02-19 09:10:48 8.67 101141 66.42 0 0 0
2017-02-19 09:05:02 8.55 101135 67.75 0 0 0
2017-02-19 08:59:17 8.38 101126 68.66 0 0 0
2017-02-19 08:53:31 7.96 101123 71.82 0 0 0
2017-02-19 08:47:45 7.39 101122 73.61 0 0 0
2017-02-19 08:41:59 6.89 101127 76.3 0 0 0
2017-02-19 08:36:13 6.63 101124 79.2 0 0 0
2017-02-19 08:30:28 6.69 101121 78.68 0 0 0
2017-02-19 08:24:42 6.81 101112 77.17 0 0 0
2017-02-19 08:18:56 6.45 101101 79.68 0 0 0
2017-02-19 08:13:10 6.09 101103 82.7 0 0 0
2017-02-19 08:07:24 5.96 101100 83.2 0 0 0
2017-02-19 08:01:38 5.92 101091 83.57 0 0 0
2017-02-19 07:55:53 5.98 101083 86.32 0 0 0
2017-02-19 07:50:07 6.03 101077 87.33 0 0 0
2017-02-19 07:44:21 6.1 101074 87.23 0 0 0
2017-02-19 07:38:35 6.25 101064 85.42 0 0 0
2017-02-19 07:32:50 6.38 101058 83.48 0 0 0
2017-02-19 07:27:04 6.52 101050 81.18 0 0 0
2017-02-19 07:21:18 6.68 101045 80.33 0 0 0
2017-02-19 07:15:32 6.8 101039 79.44 0 0 0
2017-02-19 07:09:46 6.8 101034 79.33 0 0 0
2017-02-19 07:04:01 6.66 101037 81.95 0 0 0
2017-02-19 06:58:15 6.69 101033 86.63 0 0 0
2017-02-19 06:52:29 6.8 101028 86.97 0 0 0
2017-02-19 06:46:43 6.95 101021 83.1 0 0 0
2017-02-19 06:40:57 6.95 101019 81.6 0 0 0
2017-02-19 06:35:12 6.95 101019 82.94 0 0 0
2017-02-19 06:29:26 6.84 101018 82.66 0 0 0
2017-02-19 06:23:40 6.55 101021 89.01 0 0 0
2017-02-19 06:17:54 6.48 101021 91.08 0 0 0
2017-02-19 06:12:08 6.67 101022 87.16 0 0 0
2017-02-19 06:06:23 6.83 101021 84.44 0 0 0
2017-02-19 06:00:37 6.98 101017 85.28 0 0 0
2017-02-19 05:54:51 6.97 101013 84.26 0 0 0
2017-02-19 05:49:05 6.92 101008 81.47 0 0 0
2017-02-19 05:43:19 6.81 101007 82.6 0 0 0
2017-02-19 05:37:34 6.78 101006 81.82 0 0 0
2017-02-19 05:31:48 6.69 101006 82.68 0 0 0
2017-02-19 05:26:02 6.67 101003 84.01 0 0 0
2017-02-19 05:20:16 6.61 101001 84.82 0 0 0
2017-02-19 05:14:30 6.62 100996 84.85 0 0 0
2017-02-19 05:08:44 6.69 100989 83.18 0 0 0
2017-02-19 05:02:58 6.81 100987 82.56 0 0 0
2017-02-19 04:57:13 6.9 100985 82.91 0 0 0
2017-02-19 04:51:27 6.98 100980 82.62 0 0 0
2017-02-19 04:45:41 7.33 100975 80.73 0 0 0
2017-02-19 04:39:55 7.53 100966 79.8 0 0 0
2017-02-19 04:34:09 7.46 100962 81.05 0 0 0
2017-02-19 04:28:24 7.37 100966 83.08 0 0 0
2017-02-19 04:22:38 7.38 100965 83.54 0 0 0
2017-02-19 04:16:52 7.44 100966 83.93 0 0 0
2017-02-19 04:11:06 7.47 100964 84.52 0 0 0
2017-02-19 04:05:20 7.46 100966 85.37 0 0 0
2017-02-19 03:59:35 7.55 100965 85.72 0 0 0
2017-02-19 03:53:49 7.62 100968 85.74 0 0 0
2017-02-19 03:48:03 7.75 100965 85.01 0 0 0
2017-02-19 03:42:17 7.95 100961 84.02 0 0 0
2017-02-19 03:36:31 8.03 100957 83.99 0 0 0
2017-02-19 03:30:46 8.04 100961 85.49 0 0 0
2017-02-19 03:25:00 7.99 100961 87.21 0 0 0
2017-02-19 03:19:14 8.12 100962 86.4 0 0 0
2017-02-19 03:13:28 8.2 100965 87.28 0 0 0
2017-02-19 03:07:42 8.18 100968 90.05 0 0 0
2017-02-19 03:01:56 8.1 100969 93.27 0 0 0
2017-02-19 02:56:10 8.11 100971 93.31 0 0 0
2017-02-19 02:50:24 8.08 100970 91.43 0 0 0
2017-02-19 02:44:39 8.13 100971 88.08 0 0 0
2017-02-19 02:38:53 8.28 100973 90.26 0 0 0
2017-02-19 02:33:07 8.42 100975 92.6 0 0 0
2017-02-19 02:27:21 8.43 100975 94.04 0 0 0
2017-02-19 02:21:35 8.32 100975 95.61 0 0 0
2017-02-19 02:15:49 8.2 100975 98.88 0 0 0
2017-02-19 02:10:04 8.06 100972 99.18 0 0 0
2017-02-19 02:04:18 8.08 100968 96.21 0 0 0
2017-02-19 01:58:32 8.49 100965 90.74 0 0 0
2017-02-19 01:52:46 8.75 100955 90.21 0 0 0
2017-02-19 01:47:00 8.72 100949 89.5 0 0 0
2017-02-19 01:41:15 8.66 100944 91.15 0 0 0
2017-02-19 01:35:29 8.57 100941 93.11 0 0 0
2017-02-19 01:29:43 8.45 100936 94.85 0 0 0
2017-02-19 01:23:57 8.51 100936 93.19 0 0 0
2017-02-19 01:18:11 8.54 100932 90.89 0 0 0
2017-02-19 01:12:26 8.56 100929 89.01 0 0 0
2017-02-19 01:06:40 8.58 100928 88.11 0 0 0
2017-02-19 01:00:54 8.52 100934 88.12 0 0 0
2017-02-19 00:55:08 8.48 100935 89.49 0 0 0
2017-02-19 00:49:22 8.64 100933 86.96 0 0 0
2017-02-19 00:43:37 8.97 100927 83.02 0 0 0
2017-02-19 00:37:51 9.16 100924 79.04 0 0 0
2017-02-19 00:32:05 9.11 100924 80.11 0 0 0
2017-02-19 00:26:19 9.21 100921 78.71 0 0 0
2017-02-19 00:20:33 9.46 100914 76.01 0 0 0
2017-02-19 00:14:48 9.5 100912 76.73 0 0 0
2017-02-19 00:09:02 9.6 100906 76.88 0 0 0
2017-02-19 00:03:16 9.56 100902 78.55 0 0 0
2017-02-18 23:57:30 9.37 100905 80.97 0 0 0
2017-02-18 23:51:44 9.28 100905 82.21 0 0 0
2017-02-18 23:45:59 9.15 100905 81.56 0 0 0
2017-02-18 23:40:13 9.14 100905 82.1 0 0 0
2017-02-18 23:34:27 9.16 100906 81.13 0 0 0
2017-02-18 23:28:41 9.3 100905 80.61 0 0 0
2017-02-18 23:22:55 9.44 100901 81.85 0 0 0
2017-02-18 23:17:09 9.58 100899 82.64 0 0 0
2017-02-18 23:11:23 9.63 100894 84.52 0 0 0
2017-02-18 23:05:38 9.54 100898 86.2 0 0 0
2017-02-18 22:59:52 9.46 100899 87.03 0 0 0
2017-02-18 22:54:06 9.53 100893 86.03 0 0 0
2017-02-18 22:48:20 9.84 100889 83.83 0 0 0
2017-02-18 22:42:34 9.93 100882 83.51 0 0 0
2017-02-18 22:36:49 9.98 100880 82.95 0 0 0
2017-02-18 22:31:03 10.05 100878 81.83 0 0 0
2017-02-18 22:25:17 10.15 100873 80.88 0 0 0
2017-02-18 22:19:31 10.15 100865 80.39 0 0 0
2017-02-18 22:13:45 10.13 100865 79.96 0 0 0
2017-02-18 22:07:59 10.1 100863 79.26 0 0 0
2017-02-18 22:02:13 10.17 100861 78.1 0 0 0
2017-02-18 21:56:28 10.12 100859 77.69 0 0 0
2017-02-18 21:50:42 10.04 100862 77.27 0 0 0
2017-02-18 21:44:56 10.07 100860 76.32 0 0 0
2017-02-18 21:39:10 10.13 100858 75.73 0 0 0
2017-02-18 21:33:24 10.23 100858 75.15 0 0 0
2017-02-18 21:27:38 10.37 100855 74.65 0 0 0
2017-02-18 21:21:52 10.44 100856 74.59 0 0 0
2017-02-18 21:16:07 10.51 100850 74.6 0 0 0
2017-02-18 21:10:21 10.46 100848 75.2 0 0 0
2017-02-18 21:04:35 10.38 100845 75.67 0 0 0
2017-02-18 20:58:49 10.37 100836 76.26 0 0 0
2017-02-18 20:53:03 10.26 100833 77.11 0 0 0
2017-02-18 20:47:17 10.35 100827 76.39 0 0 0
2017-02-18 20:41:31 10.57 100820 74.81 0 0 0
2017-02-18 20:35:45 10.8 100810 72.49 0 0 0
2017-02-18 20:29:59 10.9 100799 71.41 0 0 0
2017-02-18 20:24:14 10.96 100793 71.05 0 0 0
2017-02-18 20:18:28 11.18 100788 69.81 0 0 0
2017-02-18 20:12:42 11.41 100776 68.02 0 0 0
2017-02-18 20:06:56 11.37 100774 68.27 0 0 0
2017-02-18 20:01:10 11.4 100771 67.81 0 0 0
2017-02-18 19:55:24 11.28 100773 69.31 0 0 0
2017-02-18 19:49:38 11.24 100772 70.66 0 0 0
2017-02-18 19:43:52 11.29 100763 73.95 0 0 0
2017-02-18 19:38:07 11.32 100761 75.11 0 0 0
2017-02-18 19:32:21 11.4 100753 76.55 0 0 0
2017-02-18 19:26:35 11.61 100745 75.49 0 0 0
2017-02-18 19:20:49 11.8 100742 73.46 0 0 0
2017-02-18 19:15:03 12.07 100735 72.11 0 0 0
2017-02-18 19:09:17 12.31 100733 71.93 0 0 0
2017-02-18 19:03:31 12.46 100731 72.39 0 0 0
2017-02-18 18:57:45 12.5 100730 73.94 0 0 0
2017-02-18 18:52:00 12.78 100729 74.05 0 0 0
2017-02-18 18:46:14 12.95 100724 74.07 0 0 0
2017-02-18 18:40:28 12.89 100720 76.86 0 0 0
2017-02-18 18:34:42 13.05 100721 77.23 0 0 0
2017-02-18 18:28:56 13.21 100716 76.32 0 0 0
2017-02-18 18:23:10 13.39 100707 76.19 0 0 0
2017-02-18 18:17:24 13.55 100702 74.06 0 0 0
2017-02-18 18:11:38 13.74 100696 74.91 0 0 0
2017-02-18 18:05:52 13.99 100686 73.65 0 0 0
2017-02-18 18:00:07 14.13 100678 73.02 0 0 0
2017-02-18 17:54:21 14.16 100667 72.92 0 0 0
2017-02-18 17:48:35 14.1 100659 73.19 0 0 0
2017-02-18 17:42:49 14.02 100656 73.66 0 0 0
2017-02-18 17:37:03 14 100651 73.35 0 0 0
2017-02-18 17:31:17 14.09 100647 73.39 0 0 0
2017-02-18 17:25:31 14.19 100642 72.38 0 0 0
2017-02-18 17:19:45 14.19 100633 71.47 0 0 0
2017-02-18 17:13:59 14.26 100633 70.28 0 0 0
2017-02-18 17:08:14 14.35 100633 69.64 0 0 0
2017-02-18 17:02:28 14.23 100630 69.78 0 0 0
2017-02-18 16:56:42 14.59 100623 68.59 0 0 0
2017-02-18 16:50:56 14.58 100614 68.1 0 0 0
2017-02-18 16:45:10 14.81 100607 66.71 0 0 0
2017-02-18 16:39:24 14.99 100596 65.14 0 0 0
2017-02-18 16:33:38 14.96 100591 65.68 0 0 0
2017-02-18 16:27:52 14.81 100592 66.23 0 0 0
2017-02-18 16:22:07 14.93 100596 65.05 0 0 0
2017-02-18 16:16:21 15.14 100596 63.87 0 0 0
2017-02-18 16:10:35 15.11 100591 61.88 0 0 0
2017-02-18 16:04:49 15.11 100577 62.35 0 0 0
2017-02-18 15:59:03 15.17 100580 62.44 0 0 0
2017-02-18 15:53:17 15.47 100589 60.97 0 0 0
2017-02-18 15:47:31 15.39 100588 61.04 0 0 0
2017-02-18 15:41:45 15.28 100587 61.87 0 0 0
2017-02-18 15:35:59 15.34 100589 61.76 0 0 0
2017-02-18 15:30:13 15.34 100592 61.11 0 0 0
2017-02-18 15:24:28 15.29 100592 60.56 0 0 0
2017-02-18 15:18:42 15.47 100595 60.07 0 0 0
2017-02-18 15:12:56 15.35 100597 60.92 0 0 0
2017-02-18 15:07:10 15.18 100598 61.18 0 0 0
2017-02-18 15:01:24 15.28 100601 60.36 0 0 0
2017-02-18 14:55:38 15.25 100601 59.92 0 0 0
2017-02-18 14:49:52 15.51 100601 58.74 0 0 0
2017-02-18 14:44:06 15.87 100599 57.68 0 0 0
2017-02-18 14:38:20 15.56 100603 58.75 0 0 0
2017-02-18 14:32:34 15.48 100605 58.96 0 0 0
2017-02-18 14:26:48 15.43 100609 58.64 0 0 0
2017-02-18 14:21:02 15.58 100611 57.52 0 0 0
2017-02-18 14:15:17 15.44 100618 58.19 0 0 0
2017-02-18 14:09:31 15.39 100625 58.2 0 0 0
2017-02-18 14:03:45 14.94 100627 59.62 0 0 0
2017-02-18 13:57:59 14.77 100632 60.07 0 0 0
2017-02-18 13:52:13 14.87 100632 59.83 0 0 0
2017-02-18 13:46:27 15.06 100635 58.98 0 0 0
2017-02-18 13:40:41 15.11 100644 58.84 0 0 0
2017-02-18 13:34:55 14.91 100644 59.35 0 0 0
2017-02-18 13:29:09 14.79 100650 59.88 0 0 0
2017-02-18 13:23:24 14.72 100654 60.05 0 0 0
2017-02-18 13:17:38 14.52 100659 61.15 0 0 0
2017-02-18 13:11:52 14.41 100660 61.04 0 0 0
2017-02-18 13:06:06 14.75 100668 59.35 0 0 0
2017-02-18 12:54:34 14.77 100671 58.92 0 0 0
2017-02-18 12:48:48 15.11 100673 57.92 0 0 0
2017-02-18 12:43:02 15.21 100670 57.36 0 0 0
2017-02-18 12:37:16 15.05 100671 57.98 0 0 0
2017-02-18 12:31:30 15.47 100675 55.71 0 0 0
2017-02-18 12:25:45 16.62 100670 50.59 0 0 0
2017-02-18 12:19:59 16.51 100667 50.76 0 0 0
2017-02-18 12:14:13 15.97 100675 51.58 0 0 0
2017-02-18 12:08:27 15.95 100688 54.71 0 0 0
2017-02-18 12:02:41 15.98 100691 54 0 0 0
2017-02-18 11:56:55 15.98 100705 54.7 0 0 0
2017-02-18 11:51:09 15.64 100718 57.15 0 0 0
2017-02-18 11:45:23 15.04 100717 58.32 0 0 0
2017-02-18 11:39:37 14.67 100719 59.35 0 0 0
2017-02-18 11:33:51 14.56 100717 59.72 0 0 0
2017-02-18 11:28:05 14.58 100715 60.38 0 0 0
2017-02-18 11:22:19 14.28 100720 61.34 0 0 0
2017-02-18 11:16:33 14.18 100717 61.74 0 0 0
2017-02-18 11:10:48 14.29 100717 61.83 0 0 0
2017-02-18 11:05:02 14.33 100718 62.48 0 0 0
2017-02-18 10:59:16 14.25 100715 63.16 0 0 0
2017-02-18 10:53:30 13.96 100716 64.1 0 0 0
2017-02-18 10:47:44 13.86 100718 64.65 0 0 0
2017-02-18 10:41:58 13.62 100717 66.1 0 0 0
2017-02-18 10:36:12 13.46 100710 66.57 0 0 0
2017-02-18 10:30:26 13.29 100711 66.66 0 0 0
2017-02-18 10:24:40 13.07 100713 67.76 0 0 0
2017-02-18 10:18:54 12.51 100706 69.37 0 0 0
2017-02-18 10:13:08 11.9 100712 71.04 0 0 0
2017-02-18 10:07:23 11.61 100708 71.2 0 0 0
2017-02-18 10:01:37 11.35 100708 72.63 0 0 0
2017-02-18 09:55:51 10.95 100710 73.51 0 0 0
2017-02-18 09:50:05 10.71 100716 74.36 0 0 0
2017-02-18 09:44:19 10.41 100713 74.75 0 0 0
2017-02-18 09:38:33 10.07 100711 76.2 0 0 0
2017-02-18 09:32:47 9.66 100711 76.9 0 0 0
2017-02-18 09:27:01 9.43 100710 77.67 0 0 0
2017-02-18 09:21:15 9.11 100709 79.12 0 0 0
2017-02-18 09:15:30 8.75 100707 79.79 0 0 0
2017-02-18 09:09:44 8.44 100706 80.95 0 0 0
2017-02-18 09:03:58 8.16 100708 80.82 0 0 0
2017-02-18 08:58:12 7.83 100709 82.25 0 0 0
2017-02-18 08:52:26 7.59 100711 83.19 0 0 0
2017-02-18 08:46:41 7.25 100706 84.53 0 0 0
2017-02-18 08:40:55 6.79 100708 85.87 0 0 0
2017-02-18 08:35:09 6.56 100707 87.47 0 0 0
2017-02-18 08:29:23 6.31 100706 88.76 0 0 0
2017-02-18 08:23:37 6.1 100701 89.76 0 0 0
2017-02-18 08:17:52 5.93 100694 90.64 0 0 0
2017-02-18 08:12:06 5.81 100690 91.33 0 0 0
2017-02-18 08:06:20 5.71 100680 91.55 0 0 0
2017-02-18 08:00:34 5.72 100676 90.01 0 0 0
2017-02-18 07:54:48 5.8 100667 88.82 0 0 0
2017-02-18 07:49:03 5.88 100656 87.42 0 0 0
2017-02-18 07:43:17 5.92 100646 86.97 0 0 0
2017-02-18 07:37:31 5.9 100644 86.92 0 0 0
2017-02-18 07:31:45 5.89 100642 86.94 0 0 0
2017-02-18 07:25:59 5.86 100635 86.34 0 0 0
2017-02-18 07:20:13 5.84 100630 86.14 0 0 0
2017-02-18 07:14:28 5.73 100631 86.22 0 0 0
2017-02-18 07:08:42 5.67 100628 85.76 0 0 0
2017-02-18 07:02:56 5.67 100625 84.72 0 0 0
2017-02-18 06:57:10 5.77 100625 83.69 0 0 0
2017-02-18 06:51:24 5.86 100624 83.2 0 0 0
2017-02-18 06:45:39 5.87 100621 82.8 0 0 0
2017-02-18 06:39:53 5.97 100617 81.62 0 0 0
2017-02-18 06:34:07 6.32 100614 79.68 0 0 0
2017-02-18 06:28:21 6.52 100608 79.28 0 0 0
2017-02-18 06:22:35 6.43 100606 80.35 0 0 0
2017-02-18 06:16:49 6.16 100602 81.93 0 0 0
2017-02-18 06:11:04 5.85 100605 83.89 0 0 0
2017-02-18 06:05:18 5.73 100606 84.57 0 0 0
2017-02-18 05:59:32 5.72 100605 83.23 0 0 0
2017-02-18 05:53:46 5.79 100602 82.56 0 0 0
2017-02-18 05:48:00 5.88 100603 81.49 0 0 0
2017-02-18 05:42:15 5.91 100602 80.53 0 0 0
2017-02-18 05:36:29 5.92 100606 80.34 0 0 0
2017-02-18 05:30:43 6.06 100606 79.55 0 0 0
2017-02-18 05:24:57 6.02 100609 80.92 0 0 0
2017-02-18 05:19:12 6.02 100608 81.17 0 0 0
2017-02-18 05:13:26 6.03 100609 81.21 0 0 0
2017-02-18 05:07:40 6.1 100604 80.82 0 0 0
2017-02-18 05:01:54 6.2 100602 81.3 0 0 0
2017-02-18 04:56:08 6.28 100603 81.16 0 0 0
2017-02-18 04:50:22 6.25 100602 81.54 0 0 0
2017-02-18 04:44:37 6.24 100609 82.79 0 0 0
2017-02-18 04:38:51 6.36 100613 82.61 0 0 0
2017-02-18 04:33:05 6.67 100610 81.89 0 0 0
2017-02-18 04:27:19 6.88 100608 79.89 0 0 0
2017-02-18 04:21:33 6.95 100606 79.02 0 0 0
2017-02-18 04:15:47 7.09 100608 78.39 0 0 0
2017-02-18 04:10:02 7.29 100603 77.64 0 0 0
2017-02-18 04:04:16 7.31 100606 77.75 0 0 0
2017-02-18 03:58:30 7.36 100609 77.06 0 0 0
2017-02-18 03:52:44 7.44 100606 74.89 0 0 0
2017-02-18 03:46:58 7.53 100602 73.78 0 0 0
2017-02-18 03:41:13 7.58 100608 73.22 0 0 0
2017-02-18 03:35:27 7.51 100610 74.47 0 0 0
2017-02-18 03:29:41 7.49 100614 76.32 0 0 0
2017-02-18 03:23:55 7.53 100613 77.67 0 0 0
2017-02-18 03:18:09 7.75 100611 75.63 0 0 0
2017-02-18 03:12:24 8.15 100607 74.2 0 0 0
2017-02-18 03:06:38 8.48 100605 72.26 0 0 0
2017-02-18 03:00:52 8.51 100613 71.71 0 0 0
2017-02-18 02:55:06 8.83 100613 70.21 0 0 0
2017-02-18 02:49:20 8.94 100607 69.05 0 0 0
2017-02-18 02:43:35 8.96 100616 68.72 0 0 0
2017-02-18 02:37:49 9.16 100614 67.5 0 0 0
2017-02-18 02:32:03 9.45 100613 65.79 0 0 0
2017-02-18 02:26:17 9.59 100613 65.28 0 0 0
2017-02-18 02:20:31 9.82 100609 63.97 0 0 0
2017-02-18 02:14:45 10.46 100593 59.91 0 0 0
2017-02-18 02:09:00 9.84 100596 63.42 0 0 0
2017-02-18 02:03:14 9.64 100599 65.22 0 0 0
2017-02-18 01:57:28 9.87 100604 64 0 0 0
2017-02-18 01:51:42 9.98 100614 63.6 0 0 0
2017-02-18 01:45:56 10.07 100621 63.29 0 0 0
2017-02-18 01:40:10 9.9 100618 64.71 0 0 0
2017-02-18 01:34:25 9.82 100609 65.62 0 0 0
2017-02-18 01:28:39 9.49 100610 68.03 0 0 0
2017-02-18 01:22:53 9.76 100604 66.3 0 0 0
2017-02-18 01:17:07 10.32 100609 62.96 0 0 0
2017-02-18 01:11:21 10.57 100606 60.98 0 0 0
2017-02-18 01:05:36 10.49 100616 61 0 0 0
2017-02-18 00:59:50 10.67 100622 60.95 0 0 0
2017-02-18 00:54:04 10.78 100624 60.59 0 0 0
2017-02-18 00:48:18 10.41 100633 63.02 0 0 0
2017-02-18 00:42:32 10.35 100642 63.61 0 0 0
2017-02-18 00:36:46 10.52 100643 62.82 0 0 0
2017-02-18 00:31:00 10.67 100643 62.2 0 0 0
2017-02-18 00:25:14 10.35 100648 64.11 0 0 0
2017-02-18 00:19:29 9.93 100646 67.29 0 0 0
2017-02-18 00:13:43 10.53 100644 64.88 0 0 0
2017-02-18 00:07:57 10.44 100651 65.22 0 0 0
2017-02-18 00:02:11 10.16 100660 68.25 0 0 0
2017-02-17 23:56:25 10.02 100665 69.77 0 0 0
2017-02-17 23:50:39 10.14 100672 68.9 0 0 0
2017-02-17 23:44:53 10.21 100680 69.54 0 0 0
2017-02-17 23:39:08 10.53 100687 67.84 0 0 0
2017-02-17 23:33:22 10.51 100694 68.68 0 0 0
2017-02-17 23:27:36 10.36 100694 71.34 0 0 0
2017-02-17 23:21:50 10.53 100696 71.29 0 0 0
2017-02-17 23:16:04 10.58 100697 72.22 0 0 0
2017-02-17 23:10:18 10.62 100701 71.49 0 0 0
2017-02-17 23:04:32 10.52 100706 73.64 0 0 0
2017-02-17 22:58:47 10.4 100715 76.33 0 0 0
2017-02-17 22:53:01 10.25 100722 78.88 0 0 0
2017-02-17 22:47:15 10.06 100726 81.56 0 0 0
2017-02-17 22:41:29 10.39 100721 80.77 0 0 0
2017-02-17 22:35:43 10.71 100715 78.86 0 0 0
2017-02-17 22:29:57 10.75 100716 78.34 0 0 0
2017-02-17 22:24:11 10.65 100724 80.16 0 0 0
2017-02-17 22:18:25 10.83 100725 80.43 0 0 0
2017-02-17 22:12:40 10.98 100720 80.16 0 0 0
2017-02-17 22:06:54 10.88 100724 81.8 0 0 0
2017-02-17 22:01:08 10.77 100733 84.18 0 0 0
2017-02-17 21:55:22 10.87 100736 83.3 0 0 0
2017-02-17 21:49:36 10.87 100741 83.55 0 0 0
2017-02-17 21:43:50 10.74 100745 84.35 0 0 0
2017-02-17 21:38:04 10.64 100748 85.02 0 0 0
2017-02-17 21:32:18 10.77 100750 83.47 0 0 0
2017-02-17 21:26:32 10.88 100747 82.86 0 0 0
2017-02-17 21:20:46 10.96 100745 82.39 0 0 0
2017-02-17 21:15:01 11.02 100744 82.77 0 0 0
2017-02-17 21:09:15 11.1 100744 82.51 0 0 0
2017-02-17 21:03:29 11.13 100743 82.82 0 0 0
2017-02-17 20:57:43 11.17 100743 83.06 0 0 0
2017-02-17 20:51:57 11.21 100743 83.17 0 0 0
2017-02-17 20:46:11 11.26 100743 83.4 0 0 0
2017-02-17 20:40:25 11.3 100742 83.49 0 0 0
2017-02-17 20:34:40 11.29 100746 83.47 0 0 0
2017-02-17 20:28:54 11.34 100746 82.48 0 0 0
2017-02-17 20:23:08 11.39 100743 81.36 0 0 0
2017-02-17 20:17:22 11.49 100744 80.18 0 0 0
2017-02-17 20:11:36 11.56 100742 79.57 0 0 0
2017-02-17 20:05:50 11.6 100744 79.51 0 0 0
2017-02-17 20:00:11 11.64 100747 79.44 0 0 0
2017-02-17 19:54:18 11.69 100749 79.31 0 0 0
2017-02-17 19:48:32 11.66 100749 79.71 0 0 0
2017-02-17 19:42:46 11.61 100751 81.08 0 0 0
2017-02-17 19:37:00 11.69 100759 81.08 0 0 0
2017-02-17 19:31:14 11.65 100761 82.09 0 0 0
2017-02-17 19:25:28 11.7 100763 82.43 0 0 0
2017-02-17 19:19:43 11.79 100767 82.09 0 0 0
2017-02-17 19:13:57 11.74 100766 83.85 0 0 0
2017-02-17 19:08:11 11.74 100768 86.03 0 0 0
2017-02-17 19:02:25 11.84 100765 84.33 0 0 0
2017-02-17 18:56:39 11.8 100763 86.2 0 0 0
2017-02-17 18:50:53 11.8 100764 91.03 0 0 0
2017-02-17 18:45:07 11.77 100763 94.29 0 0 0
2017-02-17 18:39:21 11.65 100763 99.86 0 0 0
2017-02-17 18:33:35 11.58 100764 99.99 0 0 0
2017-02-17 18:27:49 11.71 100766 99.99 0 0 0
2017-02-17 18:22:03 11.98 100766 99.99 0 0 0
2017-02-17 18:16:17 12.2 100761 99.99 0 0 0
2017-02-17 18:10:32 12.32 100756 99.99 0 0 0
2017-02-17 18:04:46 12.43 100755 99.65 0 0 0
2017-02-17 17:59:00 12.58 100751 97.91 0 0 0
2017-02-17 17:53:14 12.62 100752 97.93 0 0 0
2017-02-17 17:47:28 12.64 100753 99 0 0 0
2017-02-17 17:41:42 12.55 100751 99.98 0 0 0
2017-02-17 17:35:56 12.51 100755 99.99 0 0 0
2017-02-17 17:30:10 12.43 100760 99.99 0 0 0
2017-02-17 17:24:24 12.33 100761 99.99 0 0 0
2017-02-17 17:18:38 12.11 100768 99.99 0 0 0
2017-02-17 17:12:52 11.84 100773 99.99 0 0 0
2017-02-17 17:07:07 11.76 100779 99.99 0 0 0
2017-02-17 17:01:21 11.66 100780 99.99 0 0 0
2017-02-17 16:55:35 11.51 100786 99.99 0 0 0
2017-02-17 16:49:49 11.31 100798 99.99 0 0 0
2017-02-17 16:44:03 11.04 100816 99.99 0 0 0
2017-02-17 16:38:17 10.68 100826 99.99 0 0 0
2017-02-17 16:32:31 10.42 100847 99.99 0 0 0
2017-02-17 16:26:45 10.28 100855 99.99 0 0 0
2017-02-17 16:20:59 10.22 100862 99.99 0 0 0
2017-02-17 16:15:13 10.13 100865 99.99 0 0 0
2017-02-17 16:09:28 10.08 100868 99.99 0 0 0
2017-02-17 16:03:42 10.2 100875 99.99 0 0 0
2017-02-17 15:57:56 10.27 100878 99.99 0 0 0
2017-02-17 15:52:10 10.27 100875 99.99 0 0 0
2017-02-17 15:46:24 10.31 100883 99.99 0 0 0
2017-02-17 15:40:38 10.22 100887 99.99 0 0 0
2017-02-17 15:34:52 10.25 100892 99.99 0 0 0
2017-02-17 15:29:06 10.32 100897 99.99 0 0 0
2017-02-17 15:23:20 10.6 100904 99.99 0 0 0
2017-02-17 15:17:34 10.62 100914 99.99 0 0 0
2017-02-17 15:11:49 10.79 100913 99.99 0 0 0
2017-02-17 15:06:03 11.02 100912 99.99 0 0 0
2017-02-17 14:54:31 11.17 100918 99.99 0 0 0
2017-02-17 14:48:45 11.32 100922 99.99 0 0 0
2017-02-17 14:42:59 11.44 100921 99.99 0 0 0
2017-02-17 14:37:13 11.57 100922 99.59 0 0 0
2017-02-17 14:31:27 11.97 100924 93.15 0 0 0
2017-02-17 14:25:41 12.12 100931 91.9 0 0 0
2017-02-17 14:19:56 12.1 100946 90.65 0 0 0
2017-02-17 14:14:10 12.13 100952 90.09 0 0 0
2017-02-17 14:08:24 11.98 100961 90.62 0 0 0
2017-02-17 14:02:38 11.89 100976 93.34 0 0 0
2017-02-17 13:56:52 11.5 100989 95.38 0 0 0
2017-02-17 13:51:06 11.44 100994 95.76 0 0 0
2017-02-17 13:45:20 11.39 100999 92.49 0 0 0
2017-02-17 13:39:34 11.71 101005 90.63 0 0 0
2017-02-17 13:33:48 11.18 101014 98.35 0 0 0
2017-02-17 13:28:03 10.92 101022 99.9 0 0 0
2017-02-17 13:22:17 10.91 101034 99.99 0 0 0
2017-02-17 13:16:31 10.7 101049 99.99 0 0 0
2017-02-17 13:10:45 10.45 101057 99.99 0 0 0
2017-02-17 13:04:59 10.49 101067 99.99 0 0 0
2017-02-17 12:59:13 10.21 101074 99.99 0 0 0
2017-02-17 12:53:27 9.98 101084 99.99 0 0 0
2017-02-17 12:47:41 9.96 101103 99.99 0 0 0
2017-02-17 12:41:56 9.93 101115 99.99 0 0 0
2017-02-17 12:36:10 9.9 101130 99.99 0 0 0
2017-02-17 12:30:24 9.96 101141 99.99 0 0 0
2017-02-17 12:24:38 9.82 101148 99.99 0 0 0
2017-02-17 12:18:52 9.9 101161 99.99 0 0 0
2017-02-17 12:13:07 9.91 101177 99.99 0 0 0
2017-02-17 12:07:21 9.92 101184 99.99 0 0 0
2017-02-17 12:01:35 9.93 101196 99.99 0 0 0
2017-02-17 11:55:49 10.04 101198 99.99 0 0 0
2017-02-17 11:50:03 10.22 101202 99.99 0 0 0
2017-02-17 11:44:17 10.33 101202 99.99 0 0 0
2017-02-17 11:38:32 10.32 101207 99.99 0 0 0
2017-02-17 11:32:46 10.3 101206 99.99 0 0 0
2017-02-17 11:27:00 10.35 101208 99.99 0 0 0
2017-02-17 11:21:14 10.3 101210 99.99 0 0 0
2017-02-17 11:15:28 10.33 101209 99.99 0 0 0
2017-02-17 11:09:42 10.3 101206 99.99 0 0 0
2017-02-17 11:03:56 10.19 101211 99.99 0 0 0
2017-02-17 10:58:10 10.25 101209 99.99 0 0 0
2017-02-17 10:52:25 10.09 101215 99.99 0 0 0
2017-02-17 10:46:39 10.2 101211 99.99 0 0 0
2017-02-17 10:40:53 10.24 101212 99.99 0 0 0
2017-02-17 10:35:07 10.09 101215 99.99 0 0 0
2017-02-17 10:29:21 10.14 101215 99.99 0 0 0
2017-02-17 10:23:35 10.17 101223 99.99 0 0 0
2017-02-17 10:17:49 10 101223 99.99 0 0 0
2017-02-17 10:12:03 10.12 101220 99.99 0 0 0
2017-02-17 10:06:18 10.23 101225 99.99 0 0 0
2017-02-17 10:00:32 10.09 101226 99.99 0 0 0
2017-02-17 09:54:46 10.25 101227 99.99 0 0 0
2017-02-17 09:49:00 10.46 101227 99.99 0 0 0
2017-02-17 09:43:14 10.51 101229 99.99 0 0 0
2017-02-17 09:37:28 10.61 101228 99.99 0 0 0
2017-02-17 09:31:42 10.69 101229 99.99 0 0 0
2017-02-17 09:25:56 10.4 101235 99.99 0 0 0
2017-02-17 09:20:10 10.14 101240 99.99 0 0 0
2017-02-17 09:14:24 10.17 101241 99.99 0 0 0
2017-02-17 09:08:39 9.79 101246 99.99 0 0 0
2017-02-17 09:02:53 9.34 101251 99.99 0 0 0
2017-02-17 08:57:07 9.04 101252 99.99 0 0 0
2017-02-17 08:51:21 8.81 101255 99.99 0 0 0
2017-02-17 08:45:35 8.46 101255 99.99 0 0 0
2017-02-17 08:39:50 8.14 101259 99.99 0 0 0
2017-02-17 08:34:04 7.98 101264 99.99 0 0 0
2017-02-17 08:28:18 7.84 101268 99.99 0 0 0
2017-02-17 08:22:32 7.63 101269 99.99 0 0 0
2017-02-17 08:16:46 7.58 101268 99.99 0 0 0
2017-02-17 08:11:01 7.37 101264 99.99 0 0 0
2017-02-17 08:05:15 7.17 101270 99.99 0 0 0
2017-02-17 07:59:29 6.99 101269 99.99 0 0 0
2017-02-17 07:53:43 6.89 101270 99.99 0 0 0
2017-02-17 07:47:57 6.77 101270 99.99 0 0 0
2017-02-17 07:42:12 6.86 101267 99.99 0 0 0
2017-02-17 07:36:26 7.18 101263 99.99 0 0 0
2017-02-17 07:30:40 7.38 101258 99.99 0 0 0
2017-02-17 07:24:54 7.4 101262 99.99 0 0 0
2017-02-17 07:19:08 7.58 101260 99.99 0 0 0
2017-02-17 07:13:23 7.61 101259 99.99 0.28 0 0
2017-02-17 07:07:37 7.62 101255 99.99 0 0 0
2017-02-17 07:01:51 7.61 101252 99.99 0 0 0
2017-02-17 06:56:05 7.6 101253 99.99 0 0 0
2017-02-17 06:50:20 7.68 101259 99.99 0 0 0
2017-02-17 06:44:34 7.87 101261 99.99 0 0 0
2017-02-17 06:38:48 8.08 101264 99.99 0 0 0
2017-02-17 06:33:02 8.23 101271 99.99 0 0 0
2017-02-17 06:27:16 8.32 101276 99.99 0 0 0
2017-02-17 06:21:30 8.4 101279 99.99 0 0 0
2017-02-17 06:15:44 8.53 101281 99.99 0 0 0
2017-02-17 06:09:59 8.72 101279 99.99 0 0 0
2017-02-17 06:04:13 8.8 101283 99.99 0 0 0
2017-02-17 05:58:27 8.93 101288 99.99 0 0 0
2017-02-17 05:52:41 9.21 101286 99.99 0 0 0
2017-02-17 05:46:55 9.37 101293 99.99 0 0 0
2017-02-17 05:41:10 9.51 101299 99.99 0 0 0
2017-02-17 05:35:24 9.69 101304 99.99 0 0 0
2017-02-17 05:29:38 9.87 101305 99.99 0 0 0
2017-02-17 05:23:52 9.97 101311 99.99 0 0 0
2017-02-17 05:18:06 10.04 101314 99.99 0 0 0
2017-02-17 05:12:21 10.14 101316 99.99 0 0 0
2017-02-17 05:06:35 10.28 101319 99.99 0 0 0
2017-02-17 05:00:49 10.45 101326 99.99 0 0 0
2017-02-17 04:55:03 10.64 101324 99.99 0 0 0
2017-02-17 04:49:17 10.76 101328 99.99 0 0 0
2017-02-17 04:43:31 10.74 101332 99.99 0 0 0
2017-02-17 04:37:45 10.55 101338 99.99 0 0 0
2017-02-17 04:32:00 10.12 101347 99.99 0 0 0
2017-02-17 04:26:14 9.98 101351 99.99 0 0 0
2017-02-17 04:20:28 9.89 101353 99.99 0 0 0
2017-02-17 04:14:42 9.76 101361 99.99 0 0 0
2017-02-17 04:08:56 9.72 101367 99.99 0 0 0
2017-02-17 04:03:11 9.71 101376 99.99 0 0 0
2017-02-17 03:57:25 9.64 101383 99.99 0 0 0
2017-02-17 03:51:39 9.52 101389 99.99 0 0 0
2017-02-17 03:45:53 9.38 101397 99.99 0 0 0
2017-02-17 03:40:07 9.18 101403 99.99 0 0 0
2017-02-17 03:34:22 9.06 101409 99.99 0 0 0
2017-02-17 03:28:36 9.13 101417 99.99 0 0 0
2017-02-17 03:22:50 9.29 101420 99.99 0 0 0
2017-02-17 03:17:04 9.48 101419 99.99 0 0 0
2017-02-17 03:11:18 9.54 101424 99.99 0 0 0
2017-02-17 03:05:33 9.55 101426 99.99 0 0 0
2017-02-17 02:59:47 9.64 101430 99.99 0 0 0
2017-02-17 02:54:01 9.61 101430 99.99 0 0 0
2017-02-17 02:48:15 9.59 101432 99.99 0 0 0
2017-02-17 02:42:29 9.74 101441 99.99 0 0 0
2017-02-17 02:36:44 9.85 101450 99.99 0 0 0
2017-02-17 02:30:58 9.95 101455 99.99 0 0 0
2017-02-17 02:25:12 10.15 101463 99.99 0 0 0
2017-02-17 02:19:26 10.33 101465 99.99 0 0 0
2017-02-17 02:13:40 10.47 101470 99.99 0 0 0
2017-02-17 02:07:54 10.54 101472 99.99 0 0 0
2017-02-17 02:02:08 10.59 101479 99.99 0 0 0
2017-02-17 01:56:22 10.67 101483 99.99 0 0 0
2017-02-17 01:50:37 10.72 101486 99.99 0 0 0
2017-02-17 01:44:51 10.82 101491 99.99 0 0 0
2017-02-17 01:39:05 10.94 101494 99.99 0 0 0
2017-02-17 01:33:19 10.94 101499 99.99 0 0 0
2017-02-17 01:27:33 10.96 101508 99.99 0 0 0
2017-02-17 01:21:47 10.98 101518 99.99 0 0 0
2017-02-17 01:16:01 10.99 101526 99.99 0 0 0
2017-02-17 01:10:15 10.99 101526 99.99 0 0 0
2017-02-17 01:04:30 11.07 101538 99.99 0 0 0
2017-02-17 00:58:44 11.15 101543 99.99 0 0 0
2017-02-17 00:52:58 11.2 101546 99.99 0 0 0
2017-02-17 00:47:12 11.26 101553 99.99 0 0 0
2017-02-17 00:41:26 11.29 101554 99.99 0 0 0
2017-02-17 00:35:40 11.29 101554 99.99 0 0 0
2017-02-17 00:29:54 11.32 101557 99.99 0 0 0
2017-02-17 00:24:08 11.36 101563 99.99 0 0 0
2017-02-17 00:18:23 11.37 101563 99.99 0 0 0
2017-02-17 00:12:37 11.4 101566 99.99 0 0 0
2017-02-17 00:06:51 11.41 101566 99.99 0 0 0
2017-02-17 00:01:05 11.42 101571 99.99 0 0 0
2017-02-16 23:55:19 11.42 101576 99.99 0 0 0
2017-02-16 23:49:33 11.37 101579 99.99 0 0 0
2017-02-16 23:43:47 11.34 101584 99.99 0 0 0
2017-02-16 23:38:01 11.34 101583 99.99 0 0 0
2017-02-16 23:32:16 11.36 101585 99.99 0 0 0
2017-02-16 23:26:30 11.36 101592 99.99 0 0 0
2017-02-16 23:20:44 11.34 101597 99.99 0 0 0
2017-02-16 23:14:58 11.33 101599 99.99 0 0 0
2017-02-16 23:09:12 11.31 101601 99.99 0 0 0
2017-02-16 23:03:26 11.29 101604 99.99 0 0 0
2017-02-16 22:57:40 11.32 101609 99.99 0 0 0
2017-02-16 22:51:54 11.32 101612 99.99 0 0 0
2017-02-16 22:46:08 11.38 101613 99.99 0 0 0
2017-02-16 22:40:23 11.38 101619 99.99 0 0 0
2017-02-16 22:34:37 11.38 101618 99.99 0 0 0
2017-02-16 22:28:51 11.45 101616 99.99 0 0 0
2017-02-16 22:23:05 11.46 101618 99.99 0 0 0
2017-02-16 22:17:19 11.47 101624 99.99 0 0 0
2017-02-16 22:11:33 11.49 101626 99.99 0 0 0
2017-02-16 22:05:47 11.49 101631 99.99 0 0 0
2017-02-16 22:00:11 11.45 101634 99.99 0 0 0
2017-02-16 21:54:15 11.37 101633 99.99 0 0 0
2017-02-16 21:48:29 11.34 101635 99.99 0 0 0
2017-02-16 21:42:43 11.36 101634 99.99 0 0 0
2017-02-16 21:36:57 11.42 101628 99.99 0 0 0
2017-02-16 21:31:11 11.48 101627 99.99 0 0 0
2017-02-16 21:25:25 11.52 101622 99.99 0 0 0
2017-02-16 21:19:39 11.63 101619 99.99 0 0 0
2017-02-16 21:13:53 11.65 101614 99.99 0 0 0
2017-02-16 21:08:07 11.67 101616 99.99 0 0 0
2017-02-16 21:02:22 11.72 101622 99.99 0 0 0
2017-02-16 20:56:36 11.74 101614 99.99 0 0 0
2017-02-16 20:50:50 11.71 101614 99.99 0 0 0
2017-02-16 20:45:04 11.76 101612 99.99 0 0 0
2017-02-16 20:39:18 11.78 101611 99.99 0 0 0
2017-02-16 20:33:32 11.83 101612 99.99 0 0 0
2017-02-16 20:27:46 11.84 101610 99.99 0 0 0
2017-02-16 20:22:00 11.83 101610 99.99 0 0 0
2017-02-16 20:16:14 11.82 101613 99.99 0 0 0
2017-02-16 20:10:28 11.78 101610 99.99 0 0 0
2017-02-16 20:04:43 11.77 101606 99.99 0 0 0
2017-02-16 19:58:57 11.82 101609 99.99 0 0 0
2017-02-16 19:53:11 11.87 101602 99.99 0 0 0
2017-02-16 19:47:25 11.89 101606 99.99 0 0 0
2017-02-16 19:41:39 11.89 101605 99.99 0 0 0
2017-02-16 19:35:53 11.88 101603 99.99 0 0 0
2017-02-16 19:30:07 11.87 101606 99.99 0 0 0
2017-02-16 19:24:22 11.9 101612 99.99 0 0 0
2017-02-16 19:18:36 11.91 101608 99.99 0 0 0
2017-02-16 19:12:50 11.91 101605 99.99 0 0 0
2017-02-16 19:07:04 11.94 101604 99.99 0 0 0
2017-02-16 19:01:18 11.97 101601 99.99 0 0 0
2017-02-16 18:55:32 12.01 101596 99.99 0 0 0
2017-02-16 18:49:46 12.01 101599 99.99 0 0 0
2017-02-16 18:44:00 12.01 101599 99.99 0 0 0
2017-02-16 18:38:15 12.05 101596 99.99 0 0 0
2017-02-16 18:32:29 12.1 101595 99.99 0 0 0
2017-02-16 18:26:43 12.14 101591 99.99 0 0 0
2017-02-16 18:20:57 12.24 101582 99.99 0 0 0
2017-02-16 18:15:11 12.31 101582 99.99 0 0 0
2017-02-16 18:09:25 12.34 101585 99.99 0 0 0
2017-02-16 18:03:39 12.3 101587 99.99 0 0 0
2017-02-16 17:57:54 12.28 101585 99.99 0 0 0
2017-02-16 17:52:08 12.28 101581 99.99 0 0 0
2017-02-16 17:46:22 12.46 101584 99.99 0 0 0
2017-02-16 17:40:36 12.5 101583 99.99 0 0 0
2017-02-16 17:34:50 12.61 101582 99.99 0 0 0
2017-02-16 17:29:04 12.62 101578 99.99 0 0 0
2017-02-16 17:23:18 12.78 101573 99.99 0 0 0
2017-02-16 17:17:33 12.82 101571 99.99 0 0 0
2017-02-16 17:11:47 13.01 101570 99.99 0 0 0
2017-02-16 17:06:01 13.23 101571 99.99 0 0 0
2017-02-16 16:54:29 13.5 101566 99.1 0 0 0
2017-02-16 16:48:43 13.69 101564 96.34 0 0 0
2017-02-16 16:42:57 13.83 101569 95.4 0 0 0
2017-02-16 16:37:12 13.48 101575 97.1 0 0 0
2017-02-16 16:31:26 13.67 101579 93.34 0 0 0
2017-02-16 16:25:40 13.76 101582 91.4 0 0 0
2017-02-16 16:19:54 13.49 101587 90.19 0 0 0
2017-02-16 16:14:08 13.63 101592 87.04 0 0 0
2017-02-16 16:08:22 13.73 101593 87.76 0 0 0
2017-02-16 16:02:36 13.82 101591 86.11 0 0 0
2017-02-16 15:56:50 13.9 101594 84.17 0 0 0
2017-02-16 15:51:04 13.94 101594 80.85 0 0 0
2017-02-16 15:45:18 13.98 101595 81.11 0 0 0
2017-02-16 15:39:32 14.1 101593 80.9 0 0 0
2017-02-16 15:33:46 14.11 101601 81.34 0 0 0
2017-02-16 15:28:01 13.99 101612 83.14 0 0 0
2017-02-16 15:22:15 13.92 101617 81.9 0 0 0
2017-02-16 15:16:29 13.64 101627 83.58 0 0 0
2017-02-16 15:10:43 13.81 101624 80.06 0 0 0
2017-02-16 15:04:57 14.01 101623 80.05 0 0 0
2017-02-16 14:59:11 14.13 101623 78.74 0 0 0
2017-02-16 14:53:25 13.98 101631 81.15 0 0 0
2017-02-16 14:47:39 14.14 101636 80.75 0 0 0
2017-02-16 14:41:53 13.7 101642 84.78 0 0 0
2017-02-16 14:36:07 14.05 101642 84.06 0 0 0
2017-02-16 14:30:21 14.58 101641 80.26 0 0 0
2017-02-16 14:24:35 14.97 101635 74.64 0 0 0
2017-02-16 14:18:49 15.35 101633 70.3 0 0 0
2017-02-16 14:13:04 15.12 101633 69.72 0 0 0
2017-02-16 14:07:18 15.26 101642 68.98 0 0 0
2017-02-16 14:01:32 15.24 101645 70.68 0 0 0
2017-02-16 13:55:46 15.18 101652 71.45 0 0 0
2017-02-16 13:50:00 15.3 101664 71.26 0 0 0
2017-02-16 13:44:14 15.27 101671 71.1 0 0 0
2017-02-16 13:38:28 15.01 101682 71.91 0 0 0
2017-02-16 13:32:42 15.07 101697 74.02 0 0 0
2017-02-16 13:26:56 14.52 101712 77.14 0 0 0
2017-02-16 13:21:10 14.27 101723 77.22 0 0 0
2017-02-16 13:15:24 14.27 101733 76.94 0 0 0
2017-02-16 13:09:39 14.02 101745 77.86 0 0 0
2017-02-16 13:03:53 14.44 101744 74.93 0 0 0
2017-02-16 12:58:07 14.89 101742 72.82 0 0 0
2017-02-16 12:52:21 14.8 101750 73.03 0 0 0
2017-02-16 12:46:35 14.71 101753 72.29 0 0 0
2017-02-16 12:40:49 14.7 101758 72.13 0 0 0
2017-02-16 12:35:03 14.69 101762 72.85 0 0 0
2017-02-16 12:29:17 14.43 101769 73.83 0 0 0
2017-02-16 12:23:31 14.46 101773 73.09 0 0 0
2017-02-16 12:17:45 14.6 101772 72.39 0 0 0
2017-02-16 12:11:59 14.69 101775 73.58 0 0 0
2017-02-16 12:06:13 14.66 101780 72.48 0 0 0
2017-02-16 11:54:42 14.73 101782 72.06 0 0 0
2017-02-16 11:48:56 14.87 101783 71.16 0 0 0
2017-02-16 11:43:10 14.79 101783 70.83 0 0 0
2017-02-16 11:37:24 14.97 101785 69.91 0 0 0
2017-02-16 11:31:38 14.6 101790 71.25 0 0 0
2017-02-16 11:25:52 14.46 101793 72.24 0 0 0
2017-02-16 11:20:06 14.17 101792 72.83 0 0 0
2017-02-16 11:14:21 14.24 101793 73.49 0 0 0
2017-02-16 11:08:35 14.15 101793 73.82 0 0 0
2017-02-16 11:02:49 13.94 101794 75.22 0 0 0
2017-02-16 10:57:03 13.73 101792 75.69 0 0 0
2017-02-16 10:51:17 13.93 101790 75.21 0 0 0
2017-02-16 10:45:31 13.85 101792 75.82 0 0 0
2017-02-16 10:39:45 13.68 101792 76.94 0 0 0
2017-02-16 10:33:59 13.4 101793 77.52 0 0 0
2017-02-16 10:28:13 13.3 101795 77.98 0 0 0
2017-02-16 10:22:27 13.2 101800 78.29 0 0 0
2017-02-16 10:16:41 13.09 101802 78.97 0 0 0
2017-02-16 10:10:55 12.99 101805 79.34 0 0 0
2017-02-16 10:05:10 12.77 101808 80.98 0 0 0
2017-02-16 09:59:24 12.43 101809 82.71 0 0 0
2017-02-16 09:53:38 12.2 101811 83.65 0 0 0
2017-02-16 09:47:52 11.96 101808 85.45 0 0 0
2017-02-16 09:42:06 11.85 101806 85.96 0 0 0
2017-02-16 09:36:20 12.05 101799 85.85 0 0 0
2017-02-16 09:30:34 12 101794 85.93 0 0 0
2017-02-16 09:24:48 11.84 101788 87.08 0 0 0
2017-02-16 09:19:02 11.81 101784 88.18 0 0 0
2017-02-16 09:13:16 11.54 101783 92.96 0 0 0
2017-02-16 09:07:30 11.06 101786 97.71 0 0 0
2017-02-16 09:01:45 10.58 101786 99.99 0 0 0
2017-02-16 08:55:59 10.05 101796 99.99 0 0 0
2017-02-16 08:50:13 9.52 101805 99.99 0 0 0
2017-02-16 08:44:27 9.13 101812 99.99 0 0 0
2017-02-16 08:38:41 8.82 101818 99.99 0 0 0
2017-02-16 08:32:55 8.61 101820 99.99 0 0 0
2017-02-16 08:27:10 8.53 101823 99.99 0 0 0
2017-02-16 08:21:24 8.32 101824 99.99 0 0 0
2017-02-16 08:15:38 8.19 101831 99.99 0 0 0
2017-02-16 08:09:52 8.1 101834 99.99 0 0 0
2017-02-16 08:04:06 8 101830 99.99 0 0 0
2017-02-16 07:58:21 7.96 101834 99.99 0 0 0
2017-02-16 07:52:35 7.91 101836 99.99 0 0 0
2017-02-16 07:46:49 7.86 101836 99.99 0 0 0
2017-02-16 07:41:03 7.87 101831 99.99 0 0 0
2017-02-16 07:35:18 7.86 101831 99.99 0 0 0
2017-02-16 07:29:32 7.83 101833 99.99 0 0 0
2017-02-16 07:23:46 7.81 101837 99.99 0 0 0
2017-02-16 07:18:00 7.91 101838 99.99 0 0 0
2017-02-16 07:12:14 7.94 101837 99.99 0 0 0
2017-02-16 07:06:29 7.93 101834 99.99 0 0 0
2017-02-16 07:00:43 7.84 101833 99.99 0 0 0
2017-02-16 06:54:57 7.77 101835 99.99 0 0 0
2017-02-16 06:49:11 7.72 101835 99.99 0 0 0
2017-02-16 06:43:25 7.74 101838 99.99 0 0 0
2017-02-16 06:37:40 7.74 101848 99.99 0 0 0
2017-02-16 06:31:54 7.74 101847 99.99 0 0 0
2017-02-16 06:26:08 7.72 101846 99.99 0 0 0
2017-02-16 06:20:22 7.5 101851 99.99 0 0 0
2017-02-16 06:14:36 7.51 101855 99.99 0 0 0
2017-02-16 06:08:50 7.63 101856 99.99 0 0 0
2017-02-16 06:03:05 7.8 101857 99.99 0 0 0
2017-02-16 05:57:19 7.88 101859 99.99 0 0 0
2017-02-16 05:51:33 7.95 101860 99.99 0 0 0
2017-02-16 05:45:47 7.92 101858 99.99 0 0 0
2017-02-16 05:40:01 7.96 101858 99.99 0 0 0
2017-02-16 05:34:16 8.09 101860 99.99 0 0 0
2017-02-16 05:28:30 8.25 101866 99.99 0 0 0
2017-02-16 05:22:44 8.28 101868 99.99 0 0 0
2017-02-16 05:16:58 8.34 101866 99.99 0 0 0
2017-02-16 05:11:12 8.43 101859 99.99 0 0 0
2017-02-16 05:05:27 8.52 101856 99.99 0 0 0
2017-02-16 04:59:41 8.61 101856 99.99 0 0 0
2017-02-16 04:53:55 8.7 101858 99.99 0 0 0
2017-02-16 04:48:09 8.74 101862 99.99 0 0 0
2017-02-16 04:42:23 8.78 101861 99.99 0 0 0
2017-02-16 04:36:37 8.91 101858 99.99 0 0 0
2017-02-16 04:30:52 9.05 101854 99.99 0 0 0
2017-02-16 04:25:06 9.19 101858 99.99 0 0 0
2017-02-16 04:19:20 9.31 101865 99.99 0 0 0
2017-02-16 04:13:34 9.34 101872 99.99 0 0 0
2017-02-16 04:07:49 9.34 101876 99.99 0 0 0
2017-02-16 04:02:03 9.38 101881 99.99 0 0 0
2017-02-16 03:56:17 9.39 101882 99.99 0 0 0
2017-02-16 03:50:31 9.43 101889 99.99 0 0 0
2017-02-16 03:44:45 9.43 101896 99.99 0 0 0
2017-02-16 03:39:00 9.41 101901 99.99 0 0 0
2017-02-16 03:33:14 9.31 101904 99.99 0 0 0
2017-02-16 03:27:28 9.22 101911 99.99 0 0 0
2017-02-16 03:21:42 9.14 101914 99.99 0 0 0
2017-02-16 03:15:56 9.06 101916 99.99 0 0 0
2017-02-16 03:10:10 8.95 101921 99.99 0 0 0
2017-02-16 03:04:25 8.79 101923 99.99 0 0 0
2017-02-16 02:58:39 8.71 101929 99.99 0 0 0
2017-02-16 02:52:53 8.62 101937 99.99 0 0 0
2017-02-16 02:47:07 8.51 101945 99.99 0 0 0
2017-02-16 02:41:21 8.46 101947 99.99 0 0 0
2017-02-16 02:35:36 8.38 101949 99.99 0 0 0
2017-02-16 02:29:50 8.24 101953 99.99 0 0 0
2017-02-16 02:24:04 8.2 101958 99.99 0 0 0
2017-02-16 02:18:18 8.13 101961 99.99 0 0 0
2017-02-16 02:12:32 8.06 101962 99.99 0 0 0
2017-02-16 02:06:46 7.98 101962 99.99 0 0 0
2017-02-16 02:01:01 7.87 101960 99.99 0 0 0
2017-02-16 01:55:15 7.83 101963 99.99 0 0 0
2017-02-16 01:49:29 7.78 101965 99.99 0 0 0
2017-02-16 01:43:43 7.71 101967 99.99 0 0 0
2017-02-16 01:37:57 7.69 101972 99.99 0 0 0
2017-02-16 01:32:11 7.75 101976 99.99 0 0 0
2017-02-16 01:26:26 7.79 101982 99.99 0 0 0
2017-02-16 01:20:40 7.82 101982 99.99 0 0 0
2017-02-16 01:14:54 7.84 101977 99.99 0 0 0
2017-02-16 01:09:08 7.91 101975 99.99 0 0 0
2017-02-16 01:03:22 7.93 101979 99.99 0 0 0
2017-02-16 00:57:36 7.84 101983 99.99 0 0 0
2017-02-16 00:51:51 7.87 101985 99.99 0 0 0
2017-02-16 00:46:05 7.96 101988 99.99 0 0 0
2017-02-16 00:40:19 8.03 101991 99.99 0 0 0
2017-02-16 00:34:33 8.12 101993 99.99 0 0 0
2017-02-16 00:28:48 8.24 102000 99.99 0 0 0
2017-02-16 00:23:02 8.21 102002 99.99 0 0 0
2017-02-16 00:17:16 8.2 102005 99.99 0 0 0
2017-02-16 00:11:30 8.12 102009 99.99 0 0 0
2017-02-16 00:05:44 8.17 102008 99.99 0 0 0
2017-02-15 23:59:58 8.24 102007 99.99 0 0 0
2017-02-15 23:54:13 8.29 102006 99.99 0 0 0
2017-02-15 23:48:27 8.37 102004 99.99 0 0 0
2017-02-15 23:42:41 8.5 102003 99.99 0 0 0
2017-02-15 23:36:55 8.53 102004 99.99 0 0 0
2017-02-15 23:31:09 8.51 102006 99.99 0 0 0
2017-02-15 23:25:24 8.49 102004 99.99 0 0 0
2017-02-15 23:19:38 8.58 102000 99.99 0 0 0
2017-02-15 23:13:52 8.61 101997 99.99 0 0 0
2017-02-15 23:08:06 8.64 101994 99.99 0 0 0
2017-02-15 23:02:20 8.73 102000 99.99 0 0 0
2017-02-15 22:56:34 8.87 102000 99.99 0 0 0
2017-02-15 22:50:48 8.94 102002 99.99 0 0 0
2017-02-15 22:45:03 9.03 102001 99.99 0 0 0
2017-02-15 22:39:17 9.1 102004 99.99 0 0 0
2017-02-15 22:33:31 9.09 102007 99.99 0 0 0
2017-02-15 22:27:45 9.12 102004 99.99 0 0 0
2017-02-15 22:21:59 9.27 102005 99.99 0 0 0
2017-02-15 22:16:13 9.36 102004 99.99 0 0 0
2017-02-15 22:10:27 9.44 102004 99.99 0 0 0
2017-02-15 22:04:41 9.46 102007 99.99 0 0 0
2017-02-15 21:58:56 9.51 102010 99.99 0 0 0
2017-02-15 21:53:10 9.61 102008 99.99 0 0 0
2017-02-15 21:47:24 9.73 102002 99.99 0 0 0
2017-02-15 21:41:38 9.83 101997 99.99 0 0 0
2017-02-15 21:35:52 9.82 101997 99.99 0 0 0
2017-02-15 21:30:07 9.8 101997 99.99 0 0 0
2017-02-15 21:24:21 9.83 101991 99.99 0 0 0
2017-02-15 21:18:35 9.99 101991 99.99 0 0 0
2017-02-15 21:12:49 10.13 101987 99.99 0 0 0
2017-02-15 21:07:03 10.18 101984 99.99 0 0 0
2017-02-15 21:01:17 10.32 101982 99.99 0 0 0
2017-02-15 20:55:31 10.39 101982 99.99 0 0 0
2017-02-15 20:49:46 10.25 101982 99.99 0 0 0
2017-02-15 20:44:00 10.28 101980 99.99 0 0 0
2017-02-15 20:38:14 10.41 101980 99.99 0 0 0
2017-02-15 20:32:28 10.55 101980 99.99 0 0 0
2017-02-15 20:26:42 10.69 101980 99.99 0 0 0
2017-02-15 20:20:56 11.18 101980 99.55 0 0 0
2017-02-15 20:15:10 11.46 101977 97.22 0 0 0
2017-02-15 20:09:24 11.84 101976 94.84 0 0 0
2017-02-15 20:03:39 12.14 101978 95.23 0 0 0
2017-02-15 19:57:53 12.22 101980 94.86 0 0 0
2017-02-15 19:52:07 12.29 101982 94.37 0 0 0
2017-02-15 19:46:21 12.4 101985 93.96 0 0 0
2017-02-15 19:40:35 12.48 101987 93.94 0 0 0
2017-02-15 19:34:49 12.62 101985 93.49 0 0 0
2017-02-15 19:29:03 12.75 101981 92.38 0 0 0
2017-02-15 19:23:17 12.79 101983 90.17 0 0 0
2017-02-15 19:17:31 12.8 101980 88.76 0 0 0
2017-02-15 19:11:46 12.88 101979 87.13 0 0 0
2017-02-15 19:06:00 13 101978 85.05 0 0 0
2017-02-15 18:54:28 13.19 101974 82.38 0 0 0
2017-02-15 18:48:42 13.33 101971 80.82 0 0 0
2017-02-15 18:42:56 13.46 101969 78.86 0 0 0
2017-02-15 18:37:11 13.57 101970 77.39 0 0 0
2017-02-15 18:31:25 13.66 101972 76.25 0 0 0
2017-02-15 18:25:39 13.72 101968 75.39 0 0 0
2017-02-15 18:19:53 13.79 101960 74.44 0 0 0
2017-02-15 18:14:07 13.86 101950 73.19 0 0 0
2017-02-15 18:08:21 13.97 101942 71.64 0 0 0
2017-02-15 18:02:35 14.07 101937 70.46 0 0 0
2017-02-15 17:56:49 14.12 101934 69.41 0 0 0
2017-02-15 17:51:03 14.19 101936 68.75 0 0 0
2017-02-15 17:45:18 14.26 101933 67.89 0 0 0
2017-02-15 17:39:32 14.33 101933 67.18 0 0 0
2017-02-15 17:33:46 14.45 101926 66.78 0 0 0
2017-02-15 17:28:00 14.54 101925 67.06 0 0 0
2017-02-15 17:22:14 14.64 101927 66.34 0 0 0
2017-02-15 17:16:28 14.8 101927 65.26 0 0 0
2017-02-15 17:10:42 14.92 101927 64.23 0 0 0
2017-02-15 17:04:56 14.97 101929 63.71 0 0 0
2017-02-15 16:59:10 14.97 101928 63.32 0 0 0
2017-02-15 16:53:24 15.01 101928 63.78 0 0 0
2017-02-15 16:47:38 15.03 101924 63.96 0 0 0
2017-02-15 16:41:53 15.04 101926 63.25 0 0 0
2017-02-15 16:36:07 15.24 101932 62.65 0 0 0
2017-02-15 16:30:21 15.26 101935 62.06 0 0 0
2017-02-15 16:24:35 15.22 101935 62.38 0 0 0
2017-02-15 16:18:49 15.2 101935 62.42 0 0 0
2017-02-15 16:13:03 15.16 101932 62.06 0 0 0
2017-02-15 16:07:17 15.18 101933 61.73 0 0 0
2017-02-15 16:01:31 15.34 101933 61.22 0 0 0
2017-02-15 15:55:45 15.44 101931 60.69 0 0 0
2017-02-15 15:49:59 15.41 101929 59.78 0 0 0
2017-02-15 15:44:14 15.41 101933 59.34 0 0 0
2017-02-15 15:38:28 15.4 101937 60.12 0 0 0
2017-02-15 15:32:42 15.34 101936 61.3 0 0 0
2017-02-15 15:26:56 15.34 101935 61.23 0 0 0
2017-02-15 15:21:10 15.54 101933 60.8 0 0 0
2017-02-15 15:15:24 15.75 101925 60.4 0 0 0
2017-02-15 15:09:38 15.76 101919 60.28 0 0 0
2017-02-15 15:03:52 15.85 101915 59.15 0 0 0
2017-02-15 14:58:06 15.96 101912 58.57 0 0 0
2017-02-15 14:52:20 15.91 101914 58.77 0 0 0
2017-02-15 14:46:35 15.78 101915 58.68 0 0 0
2017-02-15 14:40:49 15.89 101918 58.72 0 0 0
2017-02-15 14:35:03 15.81 101918 58.44 0 0 0
2017-02-15 14:29:17 16 101916 56.83 0 0 0
2017-02-15 14:23:31 16.16 101909 54.43 0 0 0
2017-02-15 14:17:45 16 101911 54.05 0 0 0
2017-02-15 14:11:59 15.96 101915 54.95 0 0 0
2017-02-15 14:06:13 15.93 101919 54.93 0 0 0
2017-02-15 13:54:41 15.8 101932 55.49 0 0 0
2017-02-15 13:48:56 15.87 101938 56.34 0 0 0
2017-02-15 13:43:10 15.88 101942 57.3 0 0 0
2017-02-15 13:37:24 15.98 101942 56.26 0 0 0
2017-02-15 13:31:38 16.2 101943 55.97 0 0 0
2017-02-15 13:25:52 16.2 101946 54.83 0 0 0
2017-02-15 13:20:06 16.13 101934 54.92 0 0 0
2017-02-15 13:14:20 15.93 101938 55.33 0 0 0
2017-02-15 13:08:34 15.94 101947 55.2 0 0 0
2017-02-15 13:02:48 15.83 101958 54.96 0 0 0
2017-02-15 12:57:02 16 101952 54 0 0 0
2017-02-15 12:51:16 16.03 101958 53.98 0 0 0
2017-02-15 12:45:30 16.07 101969 53.2 0 0 0
2017-02-15 12:39:45 16.08 101968 54.07 0 0 0
2017-02-15 12:33:59 16.03 101980 54.18 0 0 0
2017-02-15 12:28:13 15.84 101983 54.71 0 0 0
2017-02-15 12:22:27 15.72 101994 54.88 0 0 0
2017-02-15 12:16:41 15.72 101998 54.77 0 0 0
2017-02-15 12:10:55 15.97 101986 53.85 0 0 0
2017-02-15 12:05:09 15.56 101998 54.71 0 0 0
2017-02-15 11:59:23 15.32 102009 55.48 0 0 0
2017-02-15 11:53:37 15.2 101996 54.87 0 0 0
2017-02-15 11:47:52 15.31 101993 54.17 0 0 0
2017-02-15 11:42:06 15.44 101989 53.53 0 0 0
2017-02-15 11:36:20 15.6 101987 53.53 0 0 0
2017-02-15 11:30:34 15.48 101992 53.33 0 0 0
2017-02-15 11:24:48 15.61 101987 53.1 0 0 0
2017-02-15 11:19:02 15.43 101996 53.23 0 0 0
2017-02-15 11:13:16 15.32 101993 52.58 0 0 0
2017-02-15 11:07:30 15.47 101986 51.89 0 0 0
2017-02-15 11:01:44 15.44 101976 51.4 0 0 0
2017-02-15 10:55:58 15.57 101973 50.12 0 0 0
2017-02-15 10:50:13 15.54 101970 50.24 0 0 0
2017-02-15 10:44:27 15.3 101956 49.48 0 0 0
2017-02-15 10:38:41 15.42 101958 49.41 0 0 0
2017-02-15 10:32:57 15.3 101956 49 0 0 0
2017-02-15 10:27:08 15.13 101963 51.34 0 0 0
2017-02-15 10:21:22 14.81 101972 52.5 0 0 0
2017-02-15 10:15:36 14.67 101967 52.44 0 0 0
2017-02-15 10:09:50 14.48 101964 53.56 0 0 0
2017-02-15 10:04:04 14.62 101961 52.89 0 0 0
2017-02-15 09:58:19 14.39 101966 54.82 0 0 0
2017-02-15 09:52:33 14.17 101963 55.75 0 0 0
2017-02-15 09:46:47 13.97 101957 56.41 0 0 0
2017-02-15 09:41:01 13.79 101952 57.49 0 0 0
2017-02-15 09:35:15 13.58 101945 57.59 0 0 0
2017-02-15 09:29:29 13.39 101937 59.02 0 0 0
2017-02-15 09:23:43 13.22 101933 59.36 0 0 0
2017-02-15 09:17:57 13.11 101922 59.82 0 0 0
2017-02-15 09:12:11 12.9 101918 60.98 0 0 0
2017-02-15 09:06:25 12.74 101914 61.44 0 0 0
2017-02-15 09:00:40 12.69 101910 61.5 0 0 0
2017-02-15 08:54:54 12.61 101909 61.93 0 0 0
2017-02-15 08:49:08 12.53 101906 62.22 0 0 0
2017-02-15 08:43:22 12.47 101902 62.37 0 0 0
2017-02-15 08:37:36 12.44 101895 62.23 0 0 0
2017-02-15 08:31:50 12.44 101884 62.06 0 0 0
2017-02-15 08:26:04 12.5 101878 61.69 0 0 0
2017-02-15 08:20:19 12.52 101871 61.47 0 0 0
2017-02-15 08:14:33 12.47 101870 62.06 0 0 0
2017-02-15 08:08:49 12.47 101868 62.16 0 0 0
2017-02-15 08:03:00 12.51 101861 62.23 0 0 0
2017-02-15 07:57:14 12.5 101857 62.46 0 0 0
2017-02-15 07:51:28 12.49 101851 62.73 0 0 0
2017-02-15 07:45:43 12.54 101843 62.46 0 0 0
2017-02-15 07:39:57 12.51 101841 62.56 0 0 0
2017-02-15 07:34:11 12.51 101840 62.53 0 0 0
2017-02-15 07:28:25 12.5 101835 62.51 0 0 0
2017-02-15 07:22:39 12.49 101834 62.34 0 0 0
2017-02-15 07:16:53 12.44 101835 62.56 0 0 0
2017-02-15 07:11:07 12.43 101834 62.39 0 0 0
2017-02-15 07:05:22 12.43 101833 62.31 0 0 0
2017-02-15 06:59:36 12.42 101834 62.25 0 0 0
2017-02-15 06:53:50 12.42 101829 62.2 0 0 0
2017-02-15 06:48:04 12.43 101826 62.07 0 0 0
2017-02-15 06:42:18 12.42 101824 61.92 0 0 0
2017-02-15 06:36:32 12.45 101824 61.66 0 0 0
2017-02-15 06:30:46 12.47 101821 61.37 0 0 0
2017-02-15 06:25:00 12.46 101813 61.31 0 0 0
2017-02-15 06:19:15 12.47 101810 61.32 0 0 0
2017-02-15 06:13:29 12.55 101800 60.78 0 0 0
2017-02-15 06:07:43 12.57 101795 60.5 0 0 0
2017-02-15 06:01:57 12.55 101789 60.67 0 0 0
2017-02-15 05:56:11 12.49 101785 61.11 0 0 0
2017-02-15 05:50:25 12.48 101784 61.22 0 0 0
2017-02-15 05:44:39 12.49 101779 61.19 0 0 0
2017-02-15 05:38:54 12.44 101778 61.54 0 0 0
2017-02-15 05:33:08 12.48 101772 61.28 0 0 0
2017-02-15 05:27:22 12.54 101773 60.92 0 0 0
2017-02-15 05:21:36 12.55 101767 60.66 0 0 0
2017-02-15 05:15:50 12.55 101766 60.47 0 0 0
2017-02-15 05:10:04 12.57 101763 60.29 0 0 0
2017-02-15 05:04:18 12.54 101758 60.2 0 0 0
2017-02-15 04:58:32 12.53 101758 60.13 0 0 0
2017-02-15 04:52:46 12.48 101752 60.27 0 0 0
2017-02-15 04:47:01 12.47 101755 60.2 0 0 0
2017-02-15 04:41:15 12.47 101751 60.06 0 0 0
2017-02-15 04:35:29 12.43 101750 60.21 0 0 0
2017-02-15 04:29:43 12.42 101744 60.2 0 0 0
2017-02-15 04:23:57 12.47 101745 59.76 0 0 0
2017-02-15 04:18:11 12.44 101744 59.85 0 0 0
2017-02-15 04:12:25 12.4 101746 59.89 0 0 0
2017-02-15 04:06:39 12.31 101753 60.34 0 0 0
2017-02-15 04:00:54 12.28 101757 60.31 0 0 0
2017-02-15 03:55:08 12.32 101759 60.21 0 0 0
2017-02-15 03:49:22 12.44 101756 59.45 0 0 0
2017-02-15 03:43:36 12.45 101750 59.17 0 0 0
2017-02-15 03:37:50 12.45 101741 59.13 0 0 0
2017-02-15 03:32:04 12.5 101741 58.73 0 0 0
2017-02-15 03:26:18 12.7 101739 57.46 0 0 0
2017-02-15 03:20:32 12.63 101743 57.69 0 0 0
2017-02-15 03:14:47 12.69 101744 57.32 0 0 0
2017-02-15 03:09:01 12.64 101745 57.3 0 0 0
2017-02-15 03:03:14 12.71 101745 56.97 0 0 0
2017-02-15 02:57:28 12.81 101742 56.39 0 0 0
2017-02-15 02:51:43 12.65 101737 56.74 0 0 0
2017-02-15 02:45:57 12.57 101739 57.33 0 0 0
2017-02-15 02:40:11 12.66 101742 57.14 0 0 0
2017-02-15 02:34:25 12.68 101741 57.44 0 0 0
2017-02-15 02:28:39 12.68 101738 57.19 0 0 0
2017-02-15 02:22:53 12.69 101734 57.36 0 0 0
2017-02-15 02:17:07 12.7 101734 57.48 0 0 0
2017-02-15 02:11:21 12.74 101732 57.38 0 0 0
2017-02-15 02:05:36 12.78 101729 57.42 0 0 0
2017-02-15 01:59:50 12.7 101729 57.79 0 0 0
2017-02-15 01:54:04 12.64 101725 58.08 0 0 0
2017-02-15 01:48:18 12.66 101717 57.86 0 0 0
2017-02-15 01:42:32 12.74 101711 57.84 0 0 0
2017-02-15 01:36:46 12.94 101709 56.63 0 0 0
2017-02-15 01:31:00 13.04 101705 55.97 0 0 0
2017-02-15 01:25:14 13.1 101703 55.56 0 0 0
2017-02-15 01:19:28 13.06 101706 55.82 0 0 0
2017-02-15 01:13:42 13.04 101706 56.04 0 0 0
2017-02-15 01:07:57 12.95 101699 56.8 0 0 0
2017-02-15 01:02:11 13.01 101700 56.68 0 0 0
2017-02-15 00:56:25 13.1 101694 56.32 0 0 0
2017-02-15 00:50:39 13.13 101689 56.33 0 0 0
2017-02-15 00:44:53 13.11 101687 56.58 0 0 0
2017-02-15 00:39:07 13.15 101687 56.34 0 0 0
2017-02-15 00:33:21 13.01 101686 57.32 0 0 0
2017-02-15 00:27:36 13.04 101681 57.52 0 0 0
2017-02-15 00:21:50 13.1 101674 57.3 0 0 0
2017-02-15 00:16:04 13.16 101671 57.12 0 0 0
2017-02-15 00:10:18 13.13 101663 57.37 0 0 0
2017-02-15 00:04:32 13.1 101654 57.63 0 0 0
2017-02-14 23:58:46 13.09 101645 57.68 0 0 0
2017-02-14 23:53:00 13.06 101641 57.92 0 0 0
2017-02-14 23:47:14 13.11 101633 57.65 0 0 0
2017-02-14 23:41:28 13.12 101625 57.63 0 0 0
2017-02-14 23:35:42 13.12 101626 57.66 0 0 0
2017-02-14 23:29:56 13.16 101629 57.38 0 0 0
2017-02-14 23:24:11 13.16 101633 57.42 0 0 0
2017-02-14 23:18:25 13.24 101635 56.73 0 0 0
2017-02-14 23:12:39 13.2 101634 57.02 0 0 0
2017-02-14 23:06:53 13.2 101632 56.87 0 0 0
2017-02-14 23:01:07 13.18 101633 56.97 0 0 0
2017-02-14 22:55:21 13.16 101639 57.03 0 0 0
2017-02-14 22:49:35 13.16 101640 56.98 0 0 0
2017-02-14 22:43:49 13.12 101637 57.22 0 0 0
2017-02-14 22:38:03 12.98 101639 58.02 0 0 0
2017-02-14 22:32:17 12.9 101635 58.46 0 0 0
2017-02-14 22:26:32 12.87 101640 58.78 0 0 0
2017-02-14 22:20:46 12.92 101640 58.52 0 0 0
2017-02-14 22:15:00 12.89 101638 58.63 0 0 0
2017-02-14 22:09:14 12.86 101638 58.82 0 0 0
2017-02-14 22:03:28 12.85 101637 58.92 0 0 0
2017-02-14 21:57:42 12.9 101637 58.6 0 0 0
2017-02-14 21:51:56 12.92 101635 58.44 0 0 0
2017-02-14 21:46:10 12.99 101631 58.01 0 0 0
2017-02-14 21:40:25 13.03 101629 57.72 0 0 0
2017-02-14 21:34:39 13.07 101623 57.4 0 0 0
2017-02-14 21:28:53 13.1 101623 57.32 0.28 0 0
2017-02-14 21:23:07 13.17 101624 56.78 0 0 0
2017-02-14 21:17:21 13.18 101622 56.61 0 0 0
2017-02-14 21:11:35 13.21 101619 56.35 0 0 0
2017-02-14 21:05:49 13.21 101614 56.25 0 0 0
2017-02-14 21:00:11 13.24 101612 55.93 0 0 0
2017-02-14 20:54:17 13.29 101607 55.7 0 0 0
2017-02-14 20:48:31 13.31 101603 55.51 0 0 0
2017-02-14 20:42:45 13.24 101600 56 0 0 0
2017-02-14 20:36:59 13.16 101593 56.6 0 0 0
2017-02-14 20:31:13 13.17 101592 56.62 0 0 0
2017-02-14 20:25:27 13.03 101595 57.47 0 0 0
2017-02-14 20:19:41 12.88 101600 58.5 0 0 0
2017-02-14 20:13:55 12.88 101599 58.72 0 0 0
2017-02-14 20:08:10 12.99 101597 58.24 0 0 0
2017-02-14 20:02:24 13.11 101589 57.48 0 0 0
2017-02-14 19:56:38 13 101583 58.13 0 0 0
2017-02-14 19:50:52 12.86 101577 59.03 0 0 0
2017-02-14 19:45:06 12.82 101575 59.52 0 0 0
2017-02-14 19:39:20 12.93 101574 58.74 0 0 0
2017-02-14 19:33:34 13.04 101572 57.76 0 0 0
2017-02-14 19:27:48 13.02 101564 57.64 0 0 0
2017-02-14 19:22:02 13.05 101558 57.4 0 0 0
2017-02-14 19:16:17 13.09 101545 57.3 0 0 0
2017-02-14 19:10:31 13.1 101535 57.36 0 0 0
2017-02-14 19:04:45 13.13 101527 57.21 0 0 0
2017-02-14 18:58:59 13.12 101520 57.21 0 0 0
2017-02-14 18:53:13 13.1 101509 57.22 0 0 0
2017-02-14 18:47:27 13.03 101504 57.78 0 0 0
2017-02-14 18:41:41 13.03 101500 58.3 0 0 0
2017-02-14 18:35:55 13.05 101493 58.43 0 0 0
2017-02-14 18:30:09 13.1 101485 58.81 0 0 0
2017-02-14 18:24:23 13.17 101477 59.12 0 0 0
2017-02-14 18:18:38 13.27 101472 59.36 0 0 0
2017-02-14 18:12:52 13.35 101460 59.29 0 0 0
2017-02-14 18:07:06 13.38 101454 59.23 0 0 0
2017-02-14 18:01:20 13.51 101448 58.6 0 0 0
2017-02-14 17:55:34 13.58 101442 58.27 0 0 0
2017-02-14 17:49:48 13.71 101432 57.85 0 0 0
2017-02-14 17:44:02 13.86 101419 57.46 0 0 0
2017-02-14 17:38:16 13.9 101414 57.76 0 0 0
2017-02-14 17:32:31 13.92 101410 58.15 0 0 0
2017-02-14 17:26:45 14.01 101403 58.03 0 0 0
2017-02-14 17:20:59 14.09 101398 58.05 0 0 0
2017-02-14 17:15:13 14.18 101394 57.61 0 0 0
2017-02-14 17:09:27 14.24 101393 57.8 0 0 0
2017-02-14 17:03:41 14.18 101387 57.7 0 0 0
2017-02-14 16:57:55 14.25 101380 57.32 0 0 0
2017-02-14 16:52:09 14.35 101373 57.02 0 0 0
2017-02-14 16:46:24 14.45 101372 56.96 0 0 0
2017-02-14 16:40:38 14.48 101372 57.12 0 0 0
2017-02-14 16:34:52 14.52 101364 56.47 0 0 0
2017-02-14 16:29:06 14.52 101364 56.44 0 0 0
2017-02-14 16:23:20 14.52 101364 56.44 0 0 0
2017-02-14 16:17:34 14.46 101359 56.38 0 0 0
2017-02-14 16:11:48 14.46 101358 56.45 0 0 0
2017-02-14 16:06:02 14.53 101354 56.59 0 0 0
2017-02-14 15:54:31 14.68 101344 55.97 0 0 0
2017-02-14 15:48:45 14.75 101337 55.48 0 0 0
2017-02-14 15:42:59 14.84 101325 55 0 0 0
2017-02-14 15:37:13 14.89 101320 55.02 0 0 0
2017-02-14 15:31:27 14.8 101317 55.17 0 0 0
2017-02-14 15:25:41 14.82 101312 54.77 0 0 0
2017-02-14 15:19:55 14.65 101301 55.01 0 0 0
2017-02-14 15:14:09 14.62 101301 55.57 0 0 0
2017-02-14 15:08:23 14.5 101295 55.6 0 0 0
2017-02-14 15:02:37 14.55 101291 55.63 0 0 0
2017-02-14 14:56:52 14.45 101285 55.67 0 0 0
2017-02-14 14:51:06 14.4 101276 55.27 0 0 0
2017-02-14 14:45:20 14.5 101276 55.02 0 0 0
2017-02-14 14:39:34 14.54 101276 54.84 0 0 0
2017-02-14 14:33:48 14.68 101268 53.79 0 0 0
2017-02-14 14:28:02 14.9 101254 52.64 0 0 0
2017-02-14 14:22:16 14.99 101259 52.33 0 0 0
2017-02-14 14:16:31 15.29 101253 51.35 0 0 0
2017-02-14 14:10:44 15.4 101240 50.8 0 0 0
2017-02-14 14:04:58 15.43 101232 50.42 0 0 0
2017-02-14 13:59:12 15.5 101236 50.28 0 0 0
2017-02-14 13:53:26 15.56 101223 49.89 0 0 0
2017-02-14 13:47:40 15.77 101225 49.54 0 0 0
2017-02-14 13:41:54 15.72 101229 50.07 0 0 0
2017-02-14 13:36:09 15.51 101220 50.37 0 0 0
2017-02-14 13:30:23 15.31 101224 51.06 0 0 0
2017-02-14 13:24:37 15.21 101231 51.44 0 0 0
2017-02-14 13:18:51 15.13 101227 51.33 0 0 0
2017-02-14 13:13:05 15.15 101234 51.8 0 0 0
2017-02-14 13:07:19 15.19 101235 51.69 0 0 0
2017-02-14 13:01:33 15.28 101245 52.28 0 0 0
2017-02-14 12:55:47 15.2 101238 52.02 0 0 0
2017-02-14 12:50:02 15.09 101234 52.31 0 0 0
2017-02-14 12:44:15 15.06 101232 52.07 0 0 0
2017-02-14 12:38:30 15.1 101232 51.95 0 0 0
2017-02-14 12:32:44 15.14 101226 51.84 0 0 0
2017-02-14 12:26:58 15.13 101226 51.56 0 0 0
2017-02-14 12:21:12 15.22 101209 50.72 0 0 0
2017-02-14 12:15:26 15.48 101208 50.23 0 0 0
2017-02-14 12:09:40 15.46 101196 50.29 0 0 0
2017-02-14 12:03:54 15.46 101191 50.08 0 0 0
2017-02-14 11:58:08 15.51 101196 50.45 0 0 0
2017-02-14 11:52:23 15.64 101191 50.28 0 0 0
2017-02-14 11:46:37 15.67 101179 49.93 0 0 0
2017-02-14 11:40:51 15.99 101172 49.4 0.28 0 0
2017-02-14 11:35:05 16.23 101175 49.43 0 0 0
2017-02-14 11:29:19 16.13 101182 49.88 0 0 0
2017-02-14 11:23:33 15.67 101173 51.06 0 0 0
2017-02-14 11:17:47 15.43 101168 51.64 0 0 0
2017-02-14 11:12:01 15.41 101162 51.92 0 0 0
2017-02-14 11:06:15 15.22 101154 52.17 0 0 0
2017-02-14 11:00:29 15.21 101158 52.45 0 0 0
2017-02-14 10:54:43 14.78 101152 53.44 0 0 0
2017-02-14 10:48:58 14.65 101127 53.42 0.84 0 0
2017-02-14 10:43:12 14.77 101135 53.16 0 0 0
2017-02-14 10:37:26 14.79 101123 53.24 0 0 0
2017-02-14 10:31:40 14.45 101117 53.82 0.28 0 0
2017-02-14 10:25:54 14.23 101111 54.11 0 0 0
2017-02-14 10:20:08 14.16 101098 54.16 0 0 0
2017-02-14 10:14:22 14.06 101087 54.27 0 0 0
2017-02-14 10:08:36 14.01 101083 54.31 0 0 0
2017-02-14 10:02:50 14.09 101076 54.22 0 0 0
2017-02-14 09:57:05 14.06 101059 54.16 0 0 0
2017-02-14 09:51:19 14.14 101046 54.06 0 0 0
2017-02-14 09:45:33 14.19 101036 54.06 0 0 0
2017-02-14 09:39:47 14.25 101012 53.96 0.28 0 0
2017-02-14 09:34:01 14.16 101014 54.19 0 0 0
2017-02-14 09:28:15 14.11 101009 54.42 0 0 0
2017-02-14 09:22:29 14.01 101016 54.64 0 0 0
2017-02-14 09:16:43 14 101031 54.64 0 0 0
2017-02-14 09:10:57 14.02 101015 54.38 0 0 0
2017-02-14 09:05:11 13.88 101006 54.7 0 0 0
2017-02-14 08:59:25 13.76 101010 55.23 0 0 0
2017-02-14 08:53:39 13.62 101008 55.92 0 0 0
2017-02-14 08:47:54 13.6 101000 55.85 0 0 0
2017-02-14 08:42:08 13.59 100992 55.88 0 0 0
2017-02-14 08:36:22 13.53 100991 56.28 0 0 0
2017-02-14 08:30:36 13.49 100996 56.68 0 0 0
2017-02-14 08:24:50 13.51 100983 56.38 0 0 0
2017-02-14 08:19:04 13.48 100977 56.46 0 0 0
2017-02-14 08:13:18 13.39 100974 56.63 0 0 0
2017-02-14 08:07:32 13.43 100961 56.37 0 0 0
2017-02-14 08:01:47 13.31 100955 56.96 0 0 0
2017-02-14 07:56:01 13.37 100951 56.78 0 0 0
2017-02-14 07:50:15 13.38 100933 56.77 0 0 0
2017-02-14 07:44:29 13.4 100924 56.72 0 0 0
2017-02-14 07:38:43 13.5 100916 56.17 0 0 0
2017-02-14 07:32:57 13.58 100894 55.65 0 0 0
2017-02-14 07:27:11 13.65 100881 55.19 0 0 0
2017-02-14 07:21:25 13.69 100871 54.89 0 0 0
2017-02-14 07:15:39 13.71 100853 54.64 0 0 0
2017-02-14 07:09:53 13.75 100845 54.29 0 0 0
2017-02-14 07:04:08 13.79 100823 54.11 0 0 0
2017-02-14 06:58:22 13.77 100800 54.26 0 0 0
2017-02-14 06:52:36 13.75 100800 54.38 0 0 0
2017-02-14 06:46:50 13.78 100785 54.28 0 0 0
2017-02-14 06:41:04 13.8 100762 54.06 0.56 0 0
2017-02-14 06:35:18 13.72 100760 54.41 0 0 0
2017-02-14 06:29:32 13.73 100735 54.24 0.28 0 0
2017-02-14 06:23:46 13.61 100744 54.5 0 0 0
2017-02-14 06:18:01 13.68 100733 54.01 0 0 0
2017-02-14 06:12:15 13.78 100714 53.56 0 0 0
2017-02-14 06:06:29 13.79 100703 53.55 0 0 0
2017-02-14 06:00:43 13.79 100700 53.71 0 0 0
2017-02-14 05:54:57 13.84 100693 53.55 0.28 0 0
2017-02-14 05:49:11 13.91 100678 53.41 0 0 0
2017-02-14 05:43:25 13.89 100678 53.88 0 0 0
2017-02-14 05:37:40 13.88 100667 54.12 0.28 0 0
2017-02-14 05:31:54 13.74 100676 55.48 0 0 0
2017-02-14 05:26:08 13.78 100655 55.78 0 0 0
2017-02-14 05:20:22 13.77 100622 56.37 0.56 0 0
2017-02-14 05:14:36 13.75 100624 56.86 0.56 0 0
2017-02-14 05:08:50 13.76 100625 57.3 1.4 0 0
2017-02-14 05:03:04 13.71 100640 57.92 0.56 0 0
2017-02-14 04:57:18 13.67 100644 58.54 1.12 0 0
2017-02-14 04:51:33 13.65 100655 59.02 0 0 0
2017-02-14 04:45:47 13.65 100652 59.08 0 0 0
2017-02-14 04:40:01 13.71 100641 58.77 0.28 0 0
2017-02-14 04:34:15 13.67 100647 58.84 0 0 0
2017-02-14 04:28:29 13.78 100646 57.9 0 0 0
2017-02-14 04:22:43 13.76 100614 58.15 0.84 0 0
2017-02-14 04:16:57 13.73 100633 58.14 0 0 0
2017-02-14 04:11:11 13.81 100638 57.21 0 0 0
2017-02-14 04:05:25 13.82 100630 57.25 0.28 0 0
2017-02-14 03:59:39 13.83 100623 56.89 0 0 0
2017-02-14 03:53:54 13.83 100641 56.75 0 0 0
2017-02-14 03:48:08 13.92 100632 56.31 0 0 0
2017-02-14 03:42:22 13.92 100636 56.19 0 0 0
2017-02-14 03:36:36 13.89 100642 56.21 0 0 0
2017-02-14 03:30:49 13.83 100644 56.6 0 0 0
2017-02-14 03:25:04 13.85 100642 56.5 0 0 0
2017-02-14 03:19:18 13.93 100629 56.06 0 0 0
2017-02-14 03:13:32 13.9 100617 56.24 1.96 0 0
2017-02-14 03:07:46 13.91 100613 56.18 0 0 0
2017-02-14 03:02:00 13.98 100600 55.8 0.28 0 0
2017-02-14 02:56:14 13.95 100598 56 1.12 0 0
2017-02-14 02:50:28 13.94 100602 56.11 0 0 0
2017-02-14 02:44:42 13.83 100606 56.81 0 0 0
2017-02-14 02:38:57 13.79 100601 57.32 0 0 0
2017-02-14 02:33:11 13.85 100621 56.85 0 0 0
2017-02-14 02:27:25 13.91 100607 56.39 0.84 0 0
2017-02-14 02:21:39 13.99 100612 55.63 0 0 0
2017-02-14 02:15:53 14.01 100609 55.27 0.56 0 0
2017-02-14 02:10:07 14.06 100616 54.47 0 0 0
2017-02-14 02:04:21 14.08 100608 54.1 0 0 0
2017-02-14 01:58:35 14.11 100611 53.55 0 0 0
2017-02-14 01:52:49 14.11 100597 53.41 0 0 0
2017-02-14 01:47:04 14.13 100565 53.26 0 0 0
2017-02-14 01:41:18 14.15 100551 53.04 0 0 0
2017-02-14 01:35:32 14.15 100539 52.83 0.28 0 0
2017-02-14 01:29:46 14.26 100534 52.1 0.28 0 0
2017-02-14 01:24:00 14.28 100544 51.72 0 0 0
2017-02-14 01:18:14 14.29 100557 51.61 0 0 0
2017-02-14 01:12:28 14.33 100554 51.42 0 0 0
2017-02-14 01:06:42 14.33 100556 51.53 0.84 0 0
2017-02-14 01:00:56 14.34 100593 51.61 0 0 0
2017-02-14 00:55:11 14.38 100599 51.71 0.84 0 0
2017-02-14 00:49:25 14.31 100614 52.59 0 0 0
2017-02-14 00:43:39 14.25 100619 53.62 0.28 0 0
2017-02-14 00:37:53 14.17 100620 54.48 0.28 0 0
2017-02-14 00:32:07 14.03 100648 55.61 0 0 0
2017-02-14 00:26:21 14.09 100645 55.31 0 0 0
2017-02-14 00:20:35 14.1 100645 55.19 0 0 0
2017-02-14 00:14:49 14.11 100642 54.97 1.4 0 0
2017-02-14 00:09:03 14.1 100652 54.79 0 0 0
2017-02-14 00:03:17 14.09 100640 54.8 0 0 0
2017-02-13 23:57:32 14.08 100637 54.94 0 0 0
2017-02-13 23:51:46 14.08 100635 54.55 0 0 0
2017-02-13 23:46:00 14.13 100642 53.75 0 0 0
2017-02-13 23:40:14 14.15 100626 53.1 0 0 0
2017-02-13 23:34:28 14.15 100629 52.46 0 0 0
2017-02-13 23:28:42 14.24 100611 51.5 0 0 0
2017-02-13 23:22:56 14.26 100596 51.08 0 0 0
2017-02-13 23:17:10 14.22 100592 51.15 0 0 0
2017-02-13 23:11:24 14.24 100591 51.04 0 0 0
2017-02-13 23:05:39 14.29 100589 50.69 0 0 0
2017-02-13 22:59:53 14.23 100571 51.15 0 0 0
2017-02-13 22:54:07 14.2 100568 51.39 0 0 0
2017-02-13 22:48:21 14.2 100567 51.44 0 0 0
2017-02-13 22:42:35 14.09 100570 52.06 0 0 0
2017-02-13 22:36:49 14.11 100571 52.08 0 0 0
2017-02-13 22:31:03 14.09 100572 51.93 0 0 0
2017-02-13 22:25:17 14.07 100580 51.96 0 0 0
2017-02-13 22:19:31 14.09 100564 51.61 0 0 0
2017-02-13 22:13:45 14.04 100561 51.33 0 0 0
2017-02-13 22:08:00 14.07 100557 50.9 0 0 0
2017-02-13 22:02:14 14.13 100549 50.42 0 0 0
2017-02-13 21:56:28 14.15 100544 50.11 0 0 0
2017-02-13 21:50:42 14.26 100531 49.27 0 0 0
2017-02-13 21:44:56 14.25 100508 49.22 0 0 0
2017-02-13 21:39:10 14.15 100508 49.56 0 0 0
2017-02-13 21:33:24 13.99 100528 50.59 0 0 0
2017-02-13 21:27:38 14.04 100527 50.51 0 0 0
2017-02-13 21:21:53 14.13 100531 50.09 0 0 0
2017-02-13 21:16:07 14.21 100519 49.57 0 0 0
2017-02-13 21:10:21 14.29 100505 49.24 0 0 0
2017-02-13 21:04:35 14.31 100483 49.11 0 0 0
2017-02-13 20:58:49 14.29 100468 49.22 0 0 0
2017-02-13 20:53:03 14.33 100450 48.79 0.56 0 0
2017-02-13 20:47:17 14.32 100441 48.8 0 0 0
2017-02-13 20:41:31 14.3 100433 48.82 0 0 0
2017-02-13 20:35:45 14.21 100436 49.09 0 0 0
2017-02-13 20:29:59 14.26 100442 48.35 0 0 0
2017-02-13 20:24:14 14.3 100428 47.8 0.28 0 0
2017-02-13 20:18:28 14.31 100425 47.51 0 0 0
2017-02-13 20:12:42 14.14 100456 49 0 0 0
2017-02-13 20:06:56 14.12 100474 49.46 0 0 0
2017-02-13 20:01:10 14.16 100488 49.31 0.28 0 0
2017-02-13 19:55:24 14.13 100498 49.5 0 0 0
2017-02-13 19:49:38 14.14 100489 49.59 0.28 0 0
2017-02-13 19:43:52 14.15 100482 49.58 0 0 0
2017-02-13 19:38:07 14.15 100455 49.44 0 0 0
2017-02-13 19:32:21 14.2 100443 49.05 0 0 0
2017-02-13 19:26:35 14.24 100448 49.14 0 0 0
2017-02-13 19:20:49 14.31 100424 48.85 0 0 0
2017-02-13 19:15:03 14.3 100410 48.98 0 0 0
2017-02-13 19:09:17 14.23 100401 49.68 0 0 0
2017-02-13 19:03:31 14.26 100388 49.72 0.56 0 0
2017-02-13 18:57:45 14.25 100363 50.08 0.28 0 0
2017-02-13 18:51:59 14.27 100361 49.86 0 0 0
2017-02-13 18:46:14 14.26 100355 49.83 0 0 0
2017-02-13 18:40:28 14.17 100354 50.38 0 0 0
2017-02-13 18:34:42 14.22 100355 49.82 0 0 0
2017-02-13 18:28:56 14.2 100360 49.79 0 0 0
2017-02-13 18:23:10 14.19 100369 49.86 0 0 0
2017-02-13 18:17:24 14.3 100367 49.04 0 0 0
2017-02-13 18:11:38 14.32 100353 48.87 0 0 0
2017-02-13 18:05:53 14.35 100365 48.73 0 0 0
2017-02-13 17:54:21 14.47 100374 48.13 0 0 0
2017-02-13 17:48:35 14.55 100372 47.48 0 0 0
2017-02-13 17:42:49 14.6 100368 47.26 0 0 0
2017-02-13 17:37:03 14.58 100369 47.59 0 0 0
2017-02-13 17:31:17 14.67 100356 46.92 0 0 0
2017-02-13 17:25:31 14.67 100346 47.27 0 0 0
2017-02-13 17:19:45 14.7 100333 47.33 0 0 0
2017-02-13 17:14:00 14.73 100323 47.29 0 0 0
2017-02-13 17:08:14 14.82 100312 46.97 0 0 0
2017-02-13 17:02:28 14.82 100298 47.36 0 0 0
2017-02-13 16:56:42 14.81 100288 48.13 0 0 0
2017-02-13 16:50:56 14.84 100289 48.43 0 0 0
2017-02-13 16:45:10 14.93 100282 48.68 0 0 0
2017-02-13 16:39:24 14.96 100283 49.11 0 0 0
2017-02-13 16:33:38 15.05 100281 48.78 0 0 0
2017-02-13 16:27:53 15.21 100283 47.9 0 0 0
2017-02-13 16:22:07 15.25 100286 47.95 0 0 0
2017-02-13 16:16:21 15.39 100281 46.76 0 0 0
2017-02-13 16:10:35 15.35 100284 47.86 0 0 0
2017-02-13 16:04:49 15.38 100285 47.57 0 0 0
2017-02-13 15:59:03 15.41 100279 47.8 0 0 0
2017-02-13 15:53:17 15.5 100273 47.17 0 0 0
2017-02-13 15:47:31 15.51 100273 47.54 0 0 0
2017-02-13 15:41:45 15.46 100268 48.4 0.56 0 0
2017-02-13 15:35:59 15.58 100278 48.06 0 0 0
2017-02-13 15:30:14 15.69 100292 48.17 0 0 0
2017-02-13 15:24:28 15.72 100303 48.46 0 0 0
2017-02-13 15:18:42 15.8 100334 48.79 0 0 0
2017-02-13 15:12:56 15.81 100326 47.86 0 0 0
2017-02-13 15:07:10 15.84 100327 47.66 0 0 0
2017-02-13 15:01:24 16 100342 47.3 0 0 0
2017-02-13 14:55:38 16.03 100342 47.35 0 0 0
2017-02-13 14:49:52 16.04 100340 47.41 0 0 0
2017-02-13 14:44:06 16.06 100345 47.84 0 0 0
2017-02-13 14:38:21 16 100339 48.32 0 0 0
2017-02-13 14:32:34 15.93 100322 47.87 0 0 0
2017-02-13 14:26:49 15.97 100324 47.86 0 0 0
2017-02-13 14:21:03 15.97 100323 48.08 0 0 0
2017-02-13 14:15:17 15.97 100321 47.42 0 0 0
2017-02-13 14:09:31 15.78 100326 48.06 0 0 0
2017-02-13 14:03:45 15.61 100315 48.47 0 0 0
2017-02-13 13:57:59 15.57 100290 47.98 0 0 0
2017-02-13 13:52:13 15.49 100307 49.71 0 0 0
2017-02-13 13:46:27 15.56 100316 49.51 0 0 0
2017-02-13 13:40:41 15.71 100308 47.62 0 0 0
2017-02-13 13:34:56 15.72 100312 47.2 0 0 0
2017-02-13 13:29:10 15.7 100325 47.57 0 0 0
2017-02-13 13:23:24 15.59 100334 48.7 0 0 0
2017-02-13 13:17:38 15.61 100358 48.92 0 0 0
2017-02-13 13:11:52 15.59 100357 48.99 0 0 0
2017-02-13 13:06:06 15.58 100372 50.09 0 0 0
2017-02-13 12:54:34 15.68 100396 51.43 0 0 0
2017-02-13 12:48:49 15.69 100403 50.97 0 0 0
2017-02-13 12:43:03 15.73 100401 50.26 0 0 0
2017-02-13 12:37:17 15.84 100425 49.85 0 0 0
2017-02-13 12:31:31 15.78 100440 49.65 0 0 0
2017-02-13 12:25:45 15.7 100437 49.21 0 0 0
2017-02-13 12:19:59 15.64 100446 49.58 0 0 0
2017-02-13 12:14:13 15.71 100458 48.79 0 0 0
2017-02-13 12:08:27 15.69 100463 48.51 0 0 0
2017-02-13 12:02:41 15.54 100476 50.19 0 0 0
2017-02-13 11:56:55 15.35 100468 51.01 0 0 0
2017-02-13 11:51:09 15.42 100463 50.62 0 0 0
2017-02-13 11:45:24 15.43 100457 49.66 0 0 0
2017-02-13 11:39:38 15.26 100452 49.99 0 0 0
2017-02-13 11:33:52 15.28 100452 49.92 0 0 0
2017-02-13 11:28:06 15.26 100448 49.54 0 0 0
2017-02-13 11:22:20 15.3 100444 48.91 0 0 0
2017-02-13 11:16:34 15.27 100453 48.96 0 0 0
2017-02-13 11:04:42 15.25 100462 48.71 0 0 0
2017-02-13 10:58:56 15.21 100460 49.35 0 0 0
2017-02-13 10:53:11 15.14 100458 49.6 0 0 0
2017-02-13 10:47:25 15.07 100443 50.17 0 0 0
2017-02-13 10:41:39 15.07 100433 49.76 0 0 0
2017-02-13 10:35:53 15 100427 49.84 0 0 0
2017-02-13 10:30:07 14.94 100423 49.86 0 0 0
2017-02-13 10:24:21 14.8 100427 50.39 0 0 0
2017-02-13 10:18:35 14.7 100427 51.39 0 0 0
2017-02-13 10:12:49 14.75 100438 50.5 0 0 0
2017-02-13 10:07:03 14.63 100435 51.18 0 0 0
2017-02-13 10:01:17 14.54 100434 51.63 0 0 0
2017-02-13 09:55:31 14.51 100425 51.65 0 0 0
2017-02-13 09:49:45 14.55 100425 51.24 0 0 0
2017-02-13 09:44:00 14.63 100429 49.72 0 0 0
2017-02-13 09:33:36 14.6 100428 49.85 0 0 0
2017-02-13 09:27:50 14.7 100420 48.87 0 0 0
2017-02-13 09:22:04 14.73 100422 49.01 0 0 0
2017-02-13 09:16:18 14.77 100423 48.8 0 0 0
2017-02-13 09:10:32 14.7 100431 48.81 0 0 0
2017-02-13 09:04:46 14.62 100426 48.98 0 0 0
2017-02-13 08:59:01 14.33 100433 50.84 0 0 0
2017-02-13 08:53:15 14.31 100447 50.75 0 0 0
2017-02-13 08:47:29 14.3 100439 50.52 0 0 0
2017-02-13 08:41:43 14.2 100452 51.22 0 0 0
2017-02-13 08:35:57 14.09 100438 51.74 0 0 0
2017-02-13 08:30:11 14.07 100439 51.26 0 0 0
2017-02-13 08:24:25 14.01 100431 51.67 0 0 0
2017-02-13 08:18:40 14.14 100421 50.5 0 0 0
2017-02-13 08:12:54 14.13 100404 50.32 0 0 0
2017-02-13 08:07:08 14.13 100399 50.24 0 0 0
2017-02-13 08:01:22 14.05 100384 51.08 0 0 0
2017-02-13 07:55:36 14.03 100379 51.41 0.56 0 0
2017-02-13 07:49:50 13.98 100384 51.73 0 0 0
2017-02-13 07:44:04 13.95 100386 51.81 0 0 0
2017-02-13 07:38:18 14.05 100384 50.82 0 0 0
2017-02-13 07:32:32 14.12 100379 50.29 0 0 0
2017-02-13 07:26:46 14.16 100389 49.9 0 0 0
2017-02-13 07:21:01 14.19 100406 49.56 0 0 0
2017-02-13 07:15:15 14.4 100396 47.98 0 0 0
2017-02-13 07:09:29 14.48 100383 46.89 0 0 0
2017-02-13 07:03:43 14.58 100353 45.78 0 0 0
2017-02-13 06:57:57 14.56 100345 45.82 0 0 0
2017-02-13 06:52:11 14.44 100332 46.82 0 0 0
2017-02-13 06:46:25 14.53 100347 46.42 0 0 0
2017-02-13 06:40:39 14.65 100333 45.38 0 0 0
2017-02-13 06:34:54 14.55 100332 46.33 0 0 0
2017-02-13 06:29:08 14.48 100322 47.05 0 0 0
2017-02-13 06:23:22 14.25 100353 48.74 0 0 0
2017-02-13 06:17:36 14.11 100374 50.1 0 0 0
2017-02-13 06:11:50 13.97 100377 51.49 0 0 0
2017-02-13 06:06:04 14.01 100384 51.21 0 0 0
2017-02-13 05:54:33 13.98 100380 52.11 0 0 0
2017-02-13 05:48:47 13.87 100371 53.36 0 0 0
2017-02-13 05:43:01 13.95 100356 53.21 0 0 0
2017-02-13 05:37:15 13.95 100354 53.33 0 0 0
2017-02-13 05:31:29 14.02 100344 53.12 0.28 0 0
2017-02-13 05:25:43 13.94 100346 53.88 0 0 0
2017-02-13 05:19:57 13.88 100340 54.57 0 0 0
2017-02-13 05:14:12 13.77 100355 55.4 0 0 0
2017-02-13 05:08:26 13.78 100350 55.42 0.28 0 0
2017-02-13 05:02:40 13.7 100361 56.08 0 0 0
2017-02-13 04:56:54 13.57 100355 57.27 0 0 0
2017-02-13 04:51:08 13.52 100374 57.63 0 0 0
2017-02-13 04:45:22 13.58 100377 57.13 0 0 0
2017-02-13 04:39:36 13.79 100364 55.43 0 0 0
2017-02-13 04:33:50 13.92 100345 54.23 0.28 0 0
2017-02-13 04:28:05 13.98 100342 53.66 0 0 0
2017-02-13 04:22:19 14.02 100339 53.15 0 0 0
2017-02-13 04:16:33 14.08 100346 52.63 0 0 0
2017-02-13 04:10:47 14.16 100333 52.36 0.28 0 0
2017-02-13 04:05:01 14.05 100342 53.26 0 0 0
2017-02-13 03:59:15 13.99 100346 53.58 0.28 0 0
2017-02-13 03:53:29 14.01 100347 53.45 0 0 0
2017-02-13 03:47:43 13.93 100361 54.01 0.28 0 0
2017-02-13 03:41:58 13.73 100375 55.74 0 0 0
2017-02-13 03:36:12 13.76 100372 55.52 0.28 0 0
2017-02-13 03:30:26 13.75 100386 55.32 0 0 0
2017-02-13 03:24:40 13.83 100387 55.2 0 0 0
2017-02-13 03:18:54 13.67 100397 56.46 0 0 0
2017-02-13 03:13:08 13.63 100415 57.11 0 0 0
2017-02-13 03:07:22 13.75 100428 56.42 0 0 0
2017-02-13 03:01:36 13.72 100443 56.88 0 0 0
2017-02-13 02:55:50 13.65 100448 57.53 0 0 0
2017-02-13 02:50:04 13.62 100477 57.36 0 0 0
2017-02-13 02:44:19 13.56 100472 57.78 0 0 0
2017-02-13 02:38:33 13.52 100483 57.47 0 0 0
2017-02-13 02:32:47 13.44 100489 58.14 0 0 0
2017-02-13 02:27:01 13.54 100497 57.27 0 0 0
2017-02-13 02:21:15 13.58 100493 57.14 0 0 0
2017-02-13 02:15:29 13.53 100501 57.42 0 0 0
2017-02-13 02:09:43 13.62 100498 56.6 0 0 0
2017-02-13 02:03:57 13.61 100495 56.84 0 0 0
2017-02-13 01:58:12 13.62 100507 56.74 0 0 0
2017-02-13 01:52:26 13.59 100503 56.96 0 0 0
2017-02-13 01:46:40 13.6 100506 57.4 0 0 0
2017-02-13 01:40:54 13.69 100500 56.75 0 0 0
2017-02-13 01:35:08 13.7 100489 57.01 0 0 0
2017-02-13 01:29:22 13.78 100488 56.58 0 0 0
2017-02-13 01:23:36 13.74 100480 56.98 0 0 0
2017-02-13 01:17:51 13.74 100486 57.33 0 0 0
2017-02-13 01:12:05 13.81 100484 56.61 0 0 0
2017-02-13 01:06:19 13.74 100482 56.93 0 0 0
2017-02-13 01:00:33 13.75 100472 57.04 0 0 0
2017-02-13 00:54:47 13.77 100474 56.8 0 0 0
2017-02-13 00:49:01 13.82 100474 56.25 0 0 0
2017-02-13 00:43:15 13.81 100480 56.14 0 0 0
2017-02-13 00:37:29 13.87 100474 56.03 0 0 0
2017-02-13 00:31:43 13.87 100474 56.01 0 0 0
2017-02-13 00:25:58 13.88 100465 56.07 0 0 0
2017-02-13 00:20:12 13.76 100453 56.81 0 0 0
2017-02-13 00:14:26 13.7 100461 57.44 0 0 0
2017-02-13 00:08:40 13.69 100442 57.74 0 0 0
2017-02-13 00:02:54 13.71 100444 57.56 0 0 0
2017-02-12 23:57:08 13.71 100431 57.85 0 0 0
2017-02-12 23:51:22 13.73 100415 57.59 0 0 0
2017-02-12 23:45:36 13.77 100392 57.29 0 0 0
2017-02-12 23:39:50 13.68 100411 58.24 0 0 0
2017-02-12 23:34:05 13.67 100425 58.25 0 0 0
2017-02-12 23:28:19 13.64 100441 58.88 0 0 0
2017-02-12 23:22:33 13.72 100423 58.62 0.28 0 0
2017-02-12 23:16:47 13.64 100432 59.63 0 0 0
2017-02-12 23:11:01 13.7 100433 59.41 0 0 0
2017-02-12 23:05:15 13.63 100428 60.26 0 0 0
2017-02-12 22:59:29 13.71 100421 59.98 0 0 0
2017-02-12 22:53:43 13.69 100438 60.23 0 0 0
2017-02-12 22:47:58 13.68 100418 60.25 0 0 0
2017-02-12 22:42:12 13.74 100416 60 0 0 0
2017-02-12 22:36:26 13.77 100406 59.71 0 0 0
2017-02-12 22:30:40 13.67 100423 60.35 0 0 0
2017-02-12 22:24:54 13.75 100419 59.93 0 0 0
2017-02-12 22:19:08 13.74 100416 60.22 0 0 0
2017-02-12 22:13:22 13.65 100424 60.97 1.12 0 0
2017-02-12 22:07:36 13.66 100437 60.98 0 0 0
2017-02-12 22:01:51 13.62 100444 61.31 0 0 0
2017-02-12 21:56:05 13.57 100447 61.59 0.28 0 0
2017-02-12 21:50:19 13.58 100459 61.3 0 0 0
2017-02-12 21:44:33 13.59 100463 61.04 0 0 0
2017-02-12 21:38:47 13.59 100482 60.97 0 0 0
2017-02-12 21:33:01 13.65 100479 60.76 0 0 0
2017-02-12 21:27:15 13.65 100448 60.76 0 0 0
2017-02-12 21:21:29 13.65 100443 60.66 0 0 0
2017-02-12 21:15:43 13.66 100436 60.9 0 0 0
2017-02-12 21:09:58 13.62 100442 61.27 0 0 0
2017-02-12 21:04:12 13.65 100430 61.34 0 0 0
2017-02-12 20:58:26 13.67 100425 61.31 0 0 0
2017-02-12 20:52:40 13.67 100416 61.8 0 0 0
2017-02-12 20:46:54 13.67 100414 62.07 0 0 0
2017-02-12 20:41:08 13.59 100418 63.08 0 0 0
2017-02-12 20:35:22 13.61 100420 63.35 0 0 0
2017-02-12 20:29:37 13.62 100424 63.57 0 0 0
2017-02-12 20:23:51 13.37 100447 65.37 0 0 0
2017-02-12 20:18:05 13.5 100442 64.31 0 0 0
2017-02-12 20:12:19 13.73 100418 62.7 0 0 0
2017-02-12 20:06:33 13.78 100418 62.35 0 0 0
2017-02-12 20:00:47 13.8 100405 62.61 0 0 0
2017-02-12 19:55:01 13.77 100413 62.56 0 0 0
2017-02-12 19:49:15 13.76 100424 62.39 0 0 0
2017-02-12 19:43:30 13.7 100435 62.64 0 0 0
2017-02-12 19:37:44 13.8 100415 62.03 0 0 0
2017-02-12 19:31:58 13.7 100417 62.5 0 0 0
2017-02-12 19:26:12 13.69 100422 62.61 0 0 0
2017-02-12 19:20:26 13.68 100414 62.8 0 0 0
2017-02-12 19:14:40 13.58 100415 64.05 0 0 0
2017-02-12 19:08:54 13.52 100423 64.02 0 0 0
2017-02-12 19:03:08 13.5 100425 64.15 0 0 0
2017-02-12 18:57:22 13.65 100419 63.38 0 0 0
2017-02-12 18:51:37 13.6 100407 63.72 0 0 0
2017-02-12 18:45:51 13.61 100409 63.72 0 0 0
2017-02-12 18:40:05 13.57 100403 64.08 0 0 0
2017-02-12 18:34:19 13.56 100407 64.29 0 0 0
2017-02-12 18:28:33 13.57 100395 64.67 0 0 0
2017-02-12 18:22:47 13.55 100398 64.84 0 0 0
2017-02-12 18:17:01 13.59 100379 64.67 0 0 0
2017-02-12 18:11:15 13.6 100377 64.49 0 0 0
2017-02-12 18:05:29 13.58 100378 64.72 0 0 0
2017-02-12 17:59:44 13.64 100369 64.43 0 0 0
2017-02-12 17:53:58 13.63 100380 64.47 0 0 0
2017-02-12 17:48:12 13.76 100353 63.61 1.12 0 0
2017-02-12 17:42:26 13.68 100364 64.73 0 0 0
2017-02-12 17:36:40 13.78 100344 63.9 0.28 0 0
2017-02-12 17:30:54 13.78 100370 64.25 0 0 0
2017-02-12 17:25:08 13.83 100386 64.17 0 0 0
2017-02-12 17:19:22 13.9 100381 63.82 0 0 0
2017-02-12 17:13:37 13.96 100377 63.33 0 0 0
2017-02-12 17:07:51 14 100360 63.37 0 0 0
2017-02-12 17:02:05 14.04 100346 63.08 0 0 0
2017-02-12 16:56:19 14.11 100340 62.72 0 0 0
2017-02-12 16:50:33 14.14 100347 62.87 0 0 0
2017-02-12 16:44:47 14.16 100349 63.12 0 0 0
2017-02-12 16:39:01 14.22 100335 62.37 0 0 0
2017-02-12 16:33:15 14.18 100335 63.02 0 0 0
2017-02-12 16:27:29 14.19 100319 62.92 0.84 0 0
2017-02-12 16:21:43 14.21 100311 62.69 0.28 0 0
2017-02-12 16:15:57 14.2 100305 62.83 0 0 0
2017-02-12 16:10:12 14.22 100291 62.48 1.68 0 0
2017-02-12 16:04:26 14.12 100304 64.19 0.56 0 0
2017-02-12 15:58:40 14.13 100298 64.01 0.56 0 0
2017-02-12 15:52:54 14.13 100296 64.33 2.24 0 0
2017-02-12 15:47:08 14.15 100298 64.29 2.79 0 0
2017-02-12 15:41:22 14.28 100294 63.33 0.28 0 0
2017-02-12 15:35:36 14.37 100300 62.65 0.28 0 0
2017-02-12 15:29:51 14.43 100285 61.92 1.12 0 0
2017-02-12 15:24:05 14.56 100281 61.3 2.51 0 0
2017-02-12 15:18:19 14.68 100300 60.47 0.28 0 0
2017-02-12 15:12:33 14.84 100304 59.9 0.84 0 0
2017-02-12 15:06:47 14.84 100298 59.8 0.84 0 0
2017-02-12 15:01:01 14.89 100279 59.09 1.4 0 0
2017-02-12 14:55:15 14.97 100285 59.17 0 0 0
2017-02-12 14:49:29 14.91 100288 59 0 0 0
2017-02-12 14:43:43 14.88 100295 60.39 1.12 0 0
2017-02-12 14:37:57 14.89 100318 60.84 0 0 0
2017-02-12 14:32:12 14.88 100308 60.21 0 0 0
2017-02-12 14:26:26 14.91 100323 59.85 0 0 0
2017-02-12 14:20:40 14.93 100318 60.05 0 0 0
2017-02-12 14:14:54 14.84 100307 59.67 0 0 0
2017-02-12 14:09:08 14.8 100294 59.96 3.07 0 0
2017-02-12 14:03:22 14.76 100294 59.73 3.35 0 0
2017-02-12 13:57:36 14.76 100301 59.66 0 0 0
2017-02-12 13:51:50 14.73 100319 59.74 3.07 0 0
2017-02-12 13:46:04 14.87 100321 58.76 0.56 0 0
2017-02-12 13:40:19 14.97 100327 58.17 0 0 0
2017-02-12 13:34:33 15.12 100331 57.64 0 0 0
2017-02-12 13:28:47 15.2 100348 58.11 0 0 0
2017-02-12 13:23:01 15.36 100348 57.86 0.28 0 0
2017-02-12 13:17:15 15.29 100361 58.04 0 0 0
2017-02-12 13:11:29 15.21 100349 57.12 0 0 0
2017-02-12 13:05:43 15.11 100334 56.86 3.07 0 0
2017-02-12 12:59:57 15.09 100330 57.84 1.68 0 0
2017-02-12 12:54:11 15.03 100360 58.26 0.28 0 0
2017-02-12 12:48:26 14.97 100353 57.58 1.96 0 0
2017-02-12 12:42:40 15 100347 58.1 0.84 0 0
2017-02-12 12:36:54 15.04 100386 58.87 0.28 0 0
2017-02-12 12:31:08 15.11 100381 58.46 0.28 0 0
2017-02-12 12:25:22 15.06 100385 58.69 0 0 0
2017-02-12 12:19:36 14.97 100390 58.63 0.84 0 0
2017-02-12 12:13:50 15.25 100402 58.38 0.28 0 0
2017-02-12 12:08:04 15.05 100402 58.63 0 0 0
2017-02-12 12:02:18 15.04 100391 58.54 0.84 0 0
2017-02-12